     2.11           OBSERVATION DATA    G (GPS)             RINEX VERSION / TYPE
teqc 2010Oct21 OPUS Account 20111027 15:48:04UTC            PGM / RUN BY / DATE
Y 1524                                                      MARKER NAME
3004                                                        MARKER NUMBER
CSMIDDLETON NGS                                             OBSERVER / AGENCY
0220320152 TRIMBLE 5700 2.01                                REC # / TYPE / VERS
12214372 TRM41249.00 NONE                                   ANT # / TYPE
  -762463.2875 -5538298.9514  3060114.5202                  APPROX POSITION XYZ
        2.0000        0.0000        0.0000                  ANTENNA: DELTA H/E/N
     1     1                                                WAVELENGTH FACT L1/2
     5    L1    L2    C1    P1    P2                        # / TYPES OF OBSERV
    15                                                      LEAP SECONDS
  2011     8    15    16    35   30.0000000     GPS         TIME OF FIRST OBS
                                                            END OF HEADER
 11  8 15 16 35 30.0000000  0  9G03G06G07G08G10G13G16G19G23
    115619.21158     79916.19555  21084213.6484                   21084211.4304
    239927.20757    171358.67255  22850156.5004                   22850154.4104
   -454308.25857   -337011.03156  21924326.7274                   21924324.1374
   -517817.50457   -388422.61354  23844732.4614                   23844729.6334
    -31730.22756    -27995.99253  23828857.9534                   23828856.6054
   -142157.27757   -108492.75856  19934076.3594                   19934072.9654
    365760.28956    265084.41454  23369263.6644                   23369260.8054
   -300366.55957   -224072.22356  20956974.2424                   20956969.6454
    180488.61358    127215.66056  20465714.5084                   20465709.7424
 11  8 15 16 36  0.0000000  0 11G03G06G07G08G10G13G16G19G23G11G28
    138274.29348     97569.48045  21088524.8984                   21088522.3054
    283493.89847    205306.69545  22858446.4774                   22858444.8874
   -535343.12947   -400155.10945  21908906.3834                   21908903.6054
   -611662.68747   -461548.70344  23826874.2034                   23826871.9654
    -36515.36747    -31724.69543  23827947.5004                   23827946.4104
   -166011.85548   -127080.77346  19929537.0634                   19929533.4774
    430352.71946    315416.11744  23381554.9224                   23381552.4574
   -352213.69948   -264472.60546  20947108.2424                   20947103.4774
    213653.76648    153058.58246  20472025.5944                   20472020.8134
   -128758.92256    -93134.61753  24594136.6414                   24594135.6954
   -125027.10256    -90480.34452  24431312.8524                   24431309.8954
 11  8 15 16 36 30.0000000  0 11G03G06G07G08G10G13G16G19G23G11G28
    161415.46548    115601.53545  21092928.6174                   21092926.2344
    327392.89147    239513.64145  22866800.3134                   22866798.9454
   -616415.06647   -463328.04746  21893478.5394                   21893476.0944
   -705651.23047   -534786.50844  23808988.5164                   23808987.4534
    -40954.73847    -35184.01243  23827102.8834                   23827101.2194
   -189362.21148   -145275.87547  19925093.9694                   19925090.0084
    494861.82846    365682.89544  23393830.2814                   23393828.3164
   -403555.21147   -304478.99646  20937338.1564                   20937333.5314
    247252.46548    179239.34046  20478419.5554                   20478414.5904
   -229593.57946   -171707.00043  24574948.4064                   24574946.9774
   -223057.26246   -166867.46143  24412657.7424                   24412656.6844
 11  8 15 16 37  0.0000000  0 11G03G06G07G08G10G13G16G19G23G11G28
    185064.13748    134029.03945  21097428.7734                   21097426.2734
    371644.75847    273995.57044  22875220.6884                   22875219.5044
   -697499.73447   -526510.90646  21878048.8444                   21878046.1914
   -799760.24646   -608118.15644  23791080.0474                   23791078.9144
    -45027.09046    -38357.32843  23826326.8364                   23826326.1994
   -212184.53147   -163059.52746  19920750.6724                   19920747.2464
    559309.16446    415901.51244  23406095.1804                   23406091.5784
   -454366.69947   -344072.36746  20927668.9774                   20927664.3754
    281306.59848    205774.98046  20484900.0004                   20484894.9344
   -330624.53147   -250432.48443  24555722.9534                   24555721.8554
   -320930.95746   -243132.59843  24394033.4774                   24394031.7814
 11  8 15 16 37 30.0000000  0 11G03G06G07G08G10G13G16G19G23G11G28
    209212.15248    152845.64145  21102023.6884                   21102021.6374
    416241.35947    308746.10244  22883708.0864                   22883705.8984
   -778603.20347   -589708.41046  21862615.6484                   21862612.2934
   -893995.90246   -681548.51244  23773147.7114                   23773146.7464
    -48740.58646    -41251.02343  23825621.3284                   23825619.0204
   -234484.38348   -180436.05947  19916507.5084                   19916503.4844
    623686.83646    466065.87144  23418345.1644                   23418342.0004
   -504652.86347   -383256.39846  20918099.8524                   20918094.9454
    315808.22348    232659.31646  20491465.4064                   20491460.3914
   -431855.80146   -329313.96143  24536458.7894                   24536458.9734
   -418653.93747   -319280.30143  24375436.8284                   24375435.4024
 11  8 15 16 38  0.0000000  0 11G03G06G07G08G10G13G16G19G23G11G28
    233860.59848    172052.19945  21106714.2584                   21106712.2704
    461183.43447    343765.86344  22892259.8754                   22892257.0704
   -859721.49247   -652917.48446  21847179.4614                   21847176.2304
   -988355.04747   -755075.05544  23755191.7734                   23755190.5704
    -52093.77346    -43863.95743  23824982.7194                   23824981.8914
   -256258.14548   -197402.65646  19912363.9384                   19912360.2624
    687996.19146    516177.00444  23430583.8364                   23430580.4344
   -554409.56247   -422027.86746  20908631.5704                   20908627.2344
    350758.60948    259893.33646  20498116.2424                   20498110.9734
   -533282.24646   -408347.52043  24517158.5474                   24517156.6564
   -516223.04746   -395308.12543  24356870.0784                   24356868.8714
 11  8 15 16 38 30.0000000  0 11G03G06G07G08G10G13G16G19G23G11G28
    259011.76647    191650.48445  21111500.0314                   21111497.9494
    506473.23047    379056.59044  22900877.6094                   22900875.8484
   -940849.16447   -716133.85546  21831741.2734                   21831738.1954
  -1082832.64847   -828693.91044  23737213.7504                   23737211.7304
    -55083.70347    -46193.84843  23824414.7274                   23824412.6564
   -277500.94948   -213955.51647  19908321.4614                   19908317.9654
    752240.13346    566237.15244  23442808.5084                   23442806.0204
   -603631.10948   -460382.31646  20899264.8594                   20899260.5704
    386160.75048    287479.37146  20504853.0164                   20504847.9574
   -634896.79346   -487527.73843  24497821.9384                   24497820.1604
   -613633.29347   -471212.13343  24338333.3204                   24338332.0634
 11  8 15 16 39  0.0000000  0 11G03G06G07G08G10G13G16G19G23G11G28
    284668.09847    211642.39145  21116382.4924                   21116380.4694
    552112.52047    414619.61744  22909562.4224                   22909560.8984
  -1021981.44547   -779353.81246  21816301.8914                   21816299.7034
  -1177424.89146   -902402.14144  23719212.7344                   23719210.6724
    -57708.77746    -48239.39144  23823915.1564                   23823913.8634
   -298208.41447   -230091.23047  19904381.1724                   19904377.5164
    816421.24247    616248.34444  23455022.0234                   23455018.8834
   -652312.16447   -498315.61746  20890001.4454                   20889996.5744
    422017.36348    315419.53946  20511676.4694                   20511671.6564
   -736693.23446   -566849.59443  24478449.8054                   24478449.8524
   -710880.17647   -546988.91043  24319827.5864                   24319826.1564
 11  8 15 16 39 30.0000000  0 11G03G06G07G08G10G13G16G19G23G11G28
    310830.52747    232028.67645  21121361.0944                   21121359.1954
    598101.68447    450455.27744  22918314.9144                   22918313.0984
  -1103114.76647   -842574.56646  21800863.0554                   21800860.5274
  -1272128.90247   -976197.45744  23701191.6804                   23701189.8054
    -59968.07446    -49999.93444  23823484.7194                   23823484.1644
   -318377.23848   -245807.22747  19900543.0474                   19900539.3364
    880540.25846    666211.18444  23467223.0554                   23467220.0314
   -700448.73448   -535824.63746  20880841.3134                   20880836.5434
    458329.67248    343714.80546  20518586.6724                   20518581.3714
   -838666.49646   -646309.26243  24459045.3674                   24459045.0594
   -807960.52046   -622635.88744  24301354.3204                   24301353.2704
 11  8 15 16 40  0.0000000  0 11G03G06G07G08G10G13G16G19G23G11G28
    337501.27747    252811.04345  21126436.3284                   21126434.4064
    644442.63747    486565.06644  22927132.6414                   22927131.7774
  -1184244.22347   -905792.33646  21785425.0314                   21785421.2344
  -1366940.39847  -1050076.47744  23683149.5394                   23683148.0944
    -61859.35246    -51473.70343  23823124.9924                   23823123.0434
   -338002.61347   -261099.75047  19896808.4144                   19896805.0514
    944600.52046    716128.19144  23479412.9774                   23479410.8794
   -748035.68048   -572905.37946  20871785.7424                   20871781.3094
    495099.89148    372366.86746  20525583.8444                   20525578.3244
   -940810.07446   -725901.66042  24439608.4224                   24439607.1024
   -904870.09847   -698149.78943  24282913.2114                   24282911.3094
 11  8 15 16 40 30.0000000  0 11G03G06G07G08G10G13G16G19G23G11G28
    364679.55147    273988.89145  21131608.3674                   21131606.1804
    691134.35947    522948.15644  22936017.8984                   22936017.0084
  -1265367.71147   -969005.45346  21769987.3914                   21769983.7234
  -1461857.98847  -1124038.18444  23665087.5704                   23665085.2584
    -63383.47346    -52661.38744  23822835.3204                   23822834.3284
   -357083.03948   -275967.64547  19893178.0474                   19893174.1724
   1008600.83646    765998.49244  23491592.7344                   23491590.4574
   -795070.53548   -609555.93046  20862835.0394                   20862831.0944
    532327.45348    401375.31346  20532667.7664                   20532663.0864
  -1043120.19946   -805623.75442  24420138.6564                   24420138.2304
  -1001607.21946   -773529.31243  24264503.8284                   24264502.6684
 11  8 15 16 41  0.0000000  0 11G03G06G07G08G10G13G16G19G23G11G28
    392362.93847    295560.34445  21136876.4304                   21136874.3954
    738174.49247    559602.77044  22944969.8364                   22944968.2854
  -1346484.57047  -1032213.39846  21754550.6884                   21754548.6094
  -1556881.56247  -1198082.50444  23647005.1484                   23647002.1174
    -64542.28946    -53564.40243  23822614.3594                   23822613.1604
   -375618.17648   -290410.63346  19889650.9844                   19889647.2234
   1072539.49246    815820.76644  23503759.7504                   23503757.1954
   -841552.47348   -645775.60946  20853990.1954                   20853985.6214
    570010.52748    430738.69946  20539838.6024                   20539833.5274
  -1145594.86346   -885474.13743  24400638.7504                   24400638.4104
  -1098171.54746   -848774.23443  24246128.3524                   24246127.2464
 11  8 15 16 41 30.0000000  0 11G03G06G07G08G10G13G16G19G23G11G28
   1995972.38347   1545126.11745  21442033.0704                   21442031.2894
   2360982.84047   1824128.69944  23253780.0474                   23253778.6764
    147832.57847    132189.59046  22038910.3284                   22038907.2234
    -76584.03147    -44603.86344  23928695.7344                   23928694.4654
   1510085.77346   1173418.45743  24122256.5394                   24122255.4064
   1181816.76248    923174.99646  20186020.8284                   20186016.8674
   2711836.91446   2093195.28544  23815707.4454                   23815705.4024
    687944.98448    546040.58646  21145043.9384                   21145039.4414
   2183570.05948   1688057.77046  20846888.9774                   20846883.4494
    327195.45346    262154.67643  24680902.1094                   24680900.7074
    380863.54346    303720.69143  24527580.4224                   24527578.5904
 11  8 15 16 42  0.0000000  0 11G03G06G07G08G10G13G16G19G23G11G28
   2024668.93048   1567487.02045  21447494.2034                   21447492.0514
   2408721.28547   1861327.45744  23262864.3524                   23262862.6054
     66740.30547     69000.80146  22023478.8674                   22023475.9534
   -171810.58247   -118806.37144  23910575.2424                   23910572.8054
   1509659.86346   1173086.53543  24122174.9774                   24122174.2774
   1164382.00048    909589.45347  20182703.1254                   20182699.5594
   2775656.91847   2142925.07844  23827851.7814                   23827849.9774
    642581.00047    510692.01646  21136411.3204                   21136406.9924
   2222168.06348   1718134.09446  20854233.7424                   20854229.0984
    224407.52746    182060.21943  24661341.6334                   24661340.6094
    284653.40646    228751.81343  24509271.6094                   24509270.3244
 11  8 15 16 42 30.0000000  0 11G03G06G07G08G10G13G16G19G23G11G28
   2053872.17247   1590242.75045  21453051.3134                   21453048.9384
   2456808.23847   1898797.77344  23272014.5084                   23272013.7274
    -14335.43447      5824.90646  22008050.1644                   22008047.2584
   -267135.42247   -193085.43444  23892434.5314                   23892432.6724
   1509600.72746   1173040.42244  24122163.7664                   24122162.7894
   1147500.89148    896435.32047  20179490.6644                   20179486.9694
   2839418.05147   2192609.02044  23839985.6254                   23839983.2584
    597780.45348    475782.49246  21127886.0084                   21127881.2464
   2261223.52748   1748566.87146  20861665.6884                   20861660.8874
    121469.37946    101848.71143  24641753.3444                   24641752.9344
    188623.93846    153923.73043  24490997.8524                   24490996.4574
 11  8 15 16 43  0.0000000  0 11G03G06G07G08G10G13G16G19G23G11G28
   2083580.64847   1613392.18445  21458704.4844                   21458702.2194
   2505242.46547   1936538.69544  23281232.0084                   23281230.3014
    -95392.78947    -57336.66446  21992626.3134                   21992623.6484
   -362557.27747   -267440.11744  23874277.1484                   23874275.0554
   1509907.14147   1173279.17244  24122222.7894                   24122221.8634
   1131174.51648    883713.44147  20176383.6564                   20176380.3834
   2903120.02047   2242246.83244  23852107.8444                   23852104.5664
    553545.32048    441313.55946  21119468.3834                   21119463.9024
   2300735.75048   1779355.56646  20869184.8594                   20869179.7734
     18384.52746     21522.90643  24622137.0554                   24622135.8324
     92776.36346     79237.35243  24472757.3524                   24472757.2504
 11  8 15 16 43 30.0000000  0 11G03G06G07G08G10G13G16G19G23G11G28
   2113791.41848   1636933.02045  21464453.4774                   21464451.0004
   2554020.62147   1974547.60544  23290513.5164                   23290511.8634
   -176431.92647   -120484.04746  21977205.2114                   21977202.0004
   -458077.30947   -341871.27744  23856100.1174                   23856097.9494
   1510576.01646   1173800.31343  24122350.4304                   24122348.6684
   1115402.34448    871423.41047  20173382.3284                   20173378.9184
   2966760.18047   2291836.50044  23864218.7114                   23864215.2624
    509875.30948    407284.97746  21111158.3754                   21111153.7074
   2340702.37548   1810498.34046  20876790.1644                   20876785.1604
    -84845.82046    -58916.30143  24602492.5554                   24602492.2114
     -2890.02046      4692.14543  24454553.2274                   24454552.2584
 11  8 15 16 44  0.0000000  0 11G03G06G07G08G10G13G16G19G23G11G28
   2144502.97347   1660864.07045  21470297.8284                   21470295.7344
   2603141.14147   2012823.28144  23299861.6954                   23299859.7854
   -257451.02747   -183615.79746  21961787.5864                   21961784.6134
   -553694.13747   -416377.86344  23837904.9304                   23837902.8754
   1511606.22346   1174603.02343  24122545.9224                   24122543.9304
   1100185.42248    859566.03946  20170486.6804                   20170483.0944
   3030337.93846   2341377.53544  23876316.8284                   23876314.1294
    466772.55948    373698.41846  21102955.9384                   21102951.3984
   2381121.80148   1841993.95346  20884481.7034                   20884477.2584
   -188218.14146   -139466.10243  24582821.8364                   24582821.0594
    -98374.25846    -69711.08643  24436383.9774                   24436382.4304
 11  8 15 16 44 30.0000000  0 11G03G06G07G08G10G13G16G19G23G11G28
   2175713.86347   1685184.22345  21476237.0554                   21476234.5824
   2652602.11347   2051364.27344  23309273.1414                   23309272.0124
   -338448.64847   -246730.83246  21946374.4384                   21946370.9694
   -649407.39847   -490959.60244  23819691.6254                   23819689.0004
   1512996.03946   1175685.96543  24122809.7814                   24122809.2704
   1085524.28548    848141.75447  20167696.7814                   20167693.3634
   3093851.91446   2390868.87543  23888402.5864                   23888400.0594
    424238.41047    340554.92246  21094862.0394                   21094856.9304
   2421993.08248   1873841.64146  20892259.6724                   20892254.5004
   -291729.70346   -220124.37543  24563124.2424                   24563123.8164
   -193675.60946   -143971.79343  24418248.0234                   24418247.4924
 11  8 15 16 45  0.0000000  0 11G03G06G07G08G10G13G16G19G23G11G28
   2207423.06347   1709892.64545  21482270.9844                   21482268.7544
   2702402.03947   2090169.35244  23318750.1094                   23318748.7624
   -419423.24248   -309827.91046  21930965.3674                   21930961.4304
   -745215.95046   -565615.55544  23801459.1024                   23801457.3164
   1514744.00046   1177047.98843  24123142.2274                   24123142.5354
   1071419.94548    837151.32846  20165013.0004                   20165009.7274
   3157301.54046   2440310.13343  23900477.1484                   23900473.7504
    382274.43848    307855.71146  21086876.5944                   21086871.8794
   2463315.12148   1906040.59046  20900122.4924                   20900118.0164
   -395377.05546   -300888.49643  24543400.3054                   24543399.1254
   -288793.07446   -218089.26243  24400147.9304                   24400146.8714
 11  8 15 16 45 30.0000000  0 11G03G06G07G08G10G13G16G19G23G11G28
   2239630.21147   1734989.07445  21488399.6174                   21488397.8054
   2752540.67247   2129238.35944  23328291.0164                   23328289.5634
   -500371.66448   -372904.60246  21915561.3834                   21915558.7624
   -841117.30947   -640343.89544  23783209.4774                   23783207.7034
   1516850.24246   1178689.17643  24123544.1174                   24123542.6024
   1057874.96148    826596.77347  20162435.3134                   20162431.7894
   3220687.92246   2489702.01643  23912539.3054                   23912535.6954
    340883.71548    275603.19546  21079000.2814                   21078995.4694
   2505088.13748   1938590.93846  20908072.0314                   20908066.5124
   -499155.98446   -381755.13743  24523651.9064                   24523651.2664
   -383724.19146   -292061.53143  24382083.3054                   24382081.2544
 11  8 15 16 46  0.0000000  0 11G03G06G07G08G10G13G16G19G23G11G28
   2272333.18447   1760471.87945  21494623.2424                   21494620.7584
   2803015.66047   2168569.45744  23337895.9694                   23337895.0164
   -581293.32848   -435960.42646  21900162.3284                   21900159.2464
   -937111.53147   -715144.55544  23764943.0234                   23764941.0514
   1519312.73046   1180607.98843  24124012.9844                   24124010.8324
   1044889.44948    816478.16446  20159964.1804                   20159961.0554
   3284009.11346   2539043.11343  23924588.6024                   23924585.5274
    300067.23848    243798.13746  21071233.2424                   21071228.2154
   2547310.07448   1971491.08646  20916106.7194                   20916101.5944
   -603063.71946   -462722.18443  24503878.7424                   24503877.4844
   -478469.12147   -365888.72743  24364053.4694                   24364052.0704
 11  8 15 16 46 30.0000000  0 11G03G06G07G08G10G13G16G19G23G11G28
   2305528.14147   1786338.03945  21500939.8284                   21500937.5004
   2853822.75847   2208159.34044  23347564.9224                   23347563.7934
   -662188.41448   -498995.55946  21884768.7344                   21884765.6094
  -1033199.67247   -790018.40644  23746657.4304                   23746655.5944
   1522128.11346   1182801.74243  24124548.7584                   24124547.2814
   1032462.12148    806794.51646  20157599.2424                   20157596.2074
   3347262.19946   2588331.17243  23936625.8204                   23936622.6684
    259823.63348    212439.47346  21063575.4064                   21063570.6254
   2589977.59848   2004738.44946  20924225.9144                   20924221.0204
   -707099.44546   -543788.90643  24484081.0864                   24484080.0124
   -573028.97347   -439571.65643  24346059.6024                   24346058.0204
 11  8 15 16 47  0.0000000  0 11G03G06G07G08G10G13G16G19G23G11G28
   2339216.02047   1812588.30145  21507350.3754                   21507348.3164
   2904963.17646   2248008.96144  23357296.0474                   23357294.4574
   -743052.86348   -562006.81246  21869380.4144                   21869376.8954
  -1129378.18447   -864962.69144  23728355.5474                   23728353.2154
   1525296.94946   1185270.93843  24125150.8444                   24125150.3714
   1020596.04748    797548.19946  20155341.3984                   20155337.8554
   3410449.35546   2637567.82844  23948650.4694                   23948647.5004
    220157.26648    181530.60946  21056026.9774                   21056022.4654
   2633092.19548   2038334.18846  20932430.5314                   20932425.6174
   -811257.42246   -624950.93043  24464260.6644                   24464259.6094
   -667400.12146   -513107.58643  24328101.2664                   24328099.1764
 11  8 15 16 47 30.0000000  0 11G03G06G07G08G10G13G16G19G23G11G28
   2373393.88347   1839220.35945  21513854.3364                   21513851.9964
   2956433.57047   2288115.73444  23367090.7194                   23367088.9654
   -823886.52048   -624994.09446  21853998.4694                   21853995.4574
  -1225647.81247   -939977.98044  23710035.9304                   23710033.9064
   1528816.66046   1188013.53943  24125821.2664                   24125820.3164
   1009290.43448    788738.61346  20153190.0554                   20153186.6844
   3473567.90246   2686751.04744  23960661.1414                   23960658.1884
    181068.17248    151071.56646  21048588.3984                   21048583.9454
   2676650.93448   2072276.00446  20940719.2034                   20940714.6684
   -915536.09046   -706206.97743  24444417.3054                   24444416.3594
   -761583.63346   -586497.31243  24310179.5084                   24310175.9844
 11  8 15 16 48  0.0000000  0 11G03G06G07G08G10G13G16G19G23G11G28
   2408063.48047   1866235.57845  21520451.9924                   21520449.7504
   3008235.85546   2328481.08244  23376948.0864                   23376947.0434
   -904683.81248   -687953.02046  21838623.0864                   21838620.3954
  -1322003.62147  -1015060.39844  23691700.0234                   23691698.1954
   1532689.27746   1191031.12544  24126558.5704                   24126557.5434
    998549.57448    780369.08246  20151146.0634                   20151142.9064
   3536620.93446   2735883.21944  23972659.5164                   23972656.9734
    142561.32848    121066.21946  21041260.6414                   21041256.1724
   2720656.21148   2106565.76646  20949093.3914                   20949088.5664
  -1019928.82046   -787551.89843  24424552.3754                   24424551.3404
   -855574.77046   -659737.16043  24292292.9304                   24292290.9734
 11  8 15 16 48 30.0000000  0 11G03G06G07G08G10G13G16G19G23G11G28
   2443219.25047   1893629.64545  21527141.8444                   21527139.5784
   3060363.89547   2369100.28944  23386868.0234                   23386866.4534
   -985447.82048   -750886.00846  21823254.1954                   21823251.3204
  -1418449.33647  -1090212.90244  23673347.5634                   23673344.3714
   1536908.84846   1194319.05143  24127361.4534                   24127359.8984
    988369.88748    772436.84046  20149209.0164                   20149206.0084
   3599603.35247   2784960.35944  23984645.2194                   23984642.4414
    104633.59448     91512.12546  21034043.6414                   21034038.9614
   2765102.35948   2141199.07846  20957551.1564                   20957546.6454
  -1124436.50846   -868986.38343  24404664.6174                   24404663.7704
   -949377.32047   -732830.00843  24274443.0084                   24274441.8014
 11  8 15 16 49  0.0000000  0 11G03G06G07G08G10G13G16G19G23G11G28
   2478861.21147   1921402.54745  21533924.0784                   21533922.7304
   3112817.48046   2409973.16044  23396849.7344                   23396848.5704
  -1066175.27048   -813790.52746  21807892.5944                   21807889.5234
  -1514982.52747  -1165433.54744  23654977.5864                   23654975.9844
   1541475.18446   1197877.18043  24128230.0864                   24128229.2854
    978753.52048    764943.54347  20147379.3914                   20147375.5004
   3662515.77747   2833982.93044  23996616.6254                   23996614.1724
     67287.70748     62411.42246  21026936.5634                   21026932.0864
   2809989.35548   2176175.90246  20966093.1414                   20966087.7974
  -1229054.58646   -950506.86343  24384756.9144                   24384755.7194
  -1042988.97347   -805774.13343  24256628.9384                   24256627.5204
 11  8 15 16 49 30.0000000  0 11G03G06G07G08G10G13G16G19G23G11G28
   2514985.83247   1949551.57445  21540798.4144                   21540796.2074
   3165592.97347   2451096.86344  23406893.1024                   23406891.4454
  -1146866.22748   -876666.59846  21792537.6254                   21792534.6174
  -1611603.82446  -1240722.82844  23636590.8984                   23636588.9184
   1546385.30546   1201703.16843  24129164.3054                   24129163.4774
    969699.82048    757888.69547  20145656.4144                   20145653.2424
   3725355.91447   2882949.21144  24008575.3204                   24008572.4454
     30523.51648     33763.98046  21019940.8834                   21019936.4024
   2855314.63748   2211494.24246  20974718.1334                   20974713.6294
  -1333781.48846  -1032112.17243  24364827.4534                   24364825.9414
  -1136410.38347   -878569.99643  24238851.9924                   24238849.4924
 11  8 15 16 50  0.0000000  0 11G03G06G07G08G10G13G16G19G23G11G28
   2551591.52747   1978075.45745  21547764.3364                   21547762.2624
   3218688.71146   2492470.13344  23416996.3444                   23416994.5274
  -1227518.96948   -939512.88746  21777189.9224                   21777186.3014
  -1708312.15646  -1316079.96144  23618187.7894                   23618185.7584
   1551637.71946   1205795.91444  24130163.6954                   24130163.1684
    961208.82048    751272.30946  20144040.5164                   20144037.0274
   3788123.03546   2931858.56344  24020518.7114                   24020516.7974
     -5657.81648      5570.72346  21013055.8754                   21013051.0634
   2901076.52048   2247152.80146  20983426.6414                   20983421.5354
  -1438613.92646  -1113799.74243  24344877.9304                   24344877.0514
  -1229640.72347   -951216.97343  24221110.4384                   24221108.4384
 11  8 15 16 50 30.0000000  0 11G03G06G07G08G10G13G16G19G23G11G28
   2588678.31647   2006974.21545  21554822.1954                   21554819.5474
   3272105.04346   2534093.20344  23427161.3444                   23427159.8484
  -1308129.68448  -1002326.43446  21761849.9694                   21761846.4924
  -1805104.21146  -1391502.33244  23599769.5394                   23599767.2774
   1557232.79346   1210155.66443  24131228.4534                   24131227.6414
    953283.44148    745096.66846  20142532.0944                   20142528.7704
   3850818.62946   2980712.18043  24032448.4064                   24032447.3364
    -41252.98048    -22165.77746  21006281.8364                   21006277.7424
   2947275.62148   2283152.04746  20992218.0084                   20992213.1604
  -1543546.99246  -1195565.71543  24324909.8674                   24324909.1334
  -1322677.52746  -1023713.12543  24203406.2974                   24203404.7934
 11  8 15 16 51  0.0000000  0 11G03G06G07G08G10G13G16G19G23G11G28
   2626245.18847   2036247.07045  21561970.6644                   21561968.3164
   3325840.47346   2575964.93044  23437386.6334                   23437385.7504
  -1388696.36347  -1065105.68046  21746518.6804                   21746515.4224
  -1901979.03547  -1466989.19544  23581334.4144                   23581332.1334
   1563169.08646   1214781.30944  24132358.5704                   24132357.7234
    945924.07448    739362.06346  20141131.8054                   20141128.4414
   3913442.09046   3029509.57843  24044366.7814                   24044364.7504
    -76260.47348    -49444.35946  20999620.0944                   20999615.9024
   2993911.03148   2319491.27746  21001092.6024                   21001087.5864
  -1648577.18747  -1277407.38343  24304924.1024                   24304922.4344
  -1415519.76246  -1096057.71143  24185738.5164                   24185737.4064
 11  8 15 16 51 30.0000000  0 11G03G06G07G08G10G13G16G19G23G11G28
   2664286.79747   2065889.83645  21569209.6884                   21569207.8984
   3379889.42246   2618080.94144  23447671.7274                   23447670.1094
  -1469220.90248  -1127852.08246  21731195.6174                   21731192.4024
  -1998939.30947  -1542542.60244  23562883.2734                   23562881.1454
   1569441.82046   1219669.10243  24133552.0164                   24133551.3874
    939128.16448    734066.53146  20139838.8054                   20139835.0474
   3975989.34446   3078247.63743  24056269.1024                   24056266.9694
   -110682.52048    -76266.75046  20993070.0864                   20993065.5664
   3040977.44548   2356166.35246  21010048.7584                   21010044.2074
  -1753704.48847  -1359324.69943  24284918.3364                   24284917.8984
  -1508169.83246  -1168252.54343  24168107.2344                   24168106.6094
 11  8 15 16 52  0.0000000  0 11G03G06G07G08G10G13G16G19G23G11G28
   2702801.90647   2095901.58245  21576538.7894                   21576536.7774
   3434250.91046   2660440.47344  23458016.4384                   23458015.4224
  -1549701.16447  -1190563.97346  21715880.2274                   21715877.7274
  -2095983.56647  -1618161.50444  23544416.2664                   23544415.1914
   1576049.71546   1224818.06643  24134809.3594                   24134808.6024
    932896.60548    729210.75446  20138652.8054                   20138649.9064
   4038460.30146   3126926.25043  24068156.7584                   24068154.0434
   -144517.72748   -102631.85946  20986631.7504                   20986627.5704
   3088474.16848   2393176.74246  21019087.1254                   21019082.5864
  -1858925.24647  -1441314.80943  24264895.2894                   24264895.8164
  -1600626.62546  -1240296.75043  24150513.3674                   24150513.0664
 11  8 15 16 52 30.0000000  0 11G03G06G07G08G10G13G16G19G23G11G28
   2741788.21947   2126280.49645  21583957.6174                   21583955.3324
   3488922.18046   2703041.38744  23468420.4614                   23468419.3484
  -1630136.11348  -1253240.55546  21700574.1644                   21700570.7894
  -2193111.02347  -1693845.23044  23525934.1484                   23525932.2154
   1582990.53546   1230226.41843  24136130.4844                   24136129.6054
    927229.14548    724794.51646  20137574.2664                   20137570.8674
   4100853.59846   3175544.34843  24080030.3914                   24080026.7424
   -177765.54747   -128539.25446  20980304.3364                   20980300.0354
   3136399.19148   2430520.84846  21028206.9774                   21028203.2814
  -1964237.12147  -1523375.97743  24244856.1484                   24244854.8984
  -1692890.44546  -1312190.60944  24132957.4614                   24132955.3594
 11  8 15 16 53  0.0000000  0 11G03G06G07G08G10G13G16G19G23G11G28
   2781246.14147   2157026.89845  21591466.5704                   21591464.0944
   3543903.49646   2745883.92644  23478882.8984                   23478881.5204
  -1710521.66448  -1315878.65646  21685277.3984                   21685273.9224
  -2290318.66047  -1769591.43744  23507435.9614                   23507434.4184
   1590264.60246   1235894.44943  24137514.5704                   24137513.3834
    922128.38348    720819.87146  20136603.8134                   20136600.3364
   4163170.66446   3224103.05544  24091888.2814                   24091885.6804
   -210422.90648   -153986.55946  20974090.2034                   20974085.4264
   3184753.06348   2468199.13746  21037408.4844                   21037404.2704
  -2069634.65247  -1605503.83243  24224798.7114                   24224798.5394
  -1784958.20746  -1383931.68444  24115436.8984                   24115435.8914
 11  8 15 16 53 30.0000000  0 11G03G06G07G08G10G13G16G19G23G11G28
   2821173.47747   2188139.06345  21599064.3754                   21599061.7814
   3599193.12546   2788966.69144  23489404.2734                   23489402.8054
  -1790856.29748  -1378477.08246  21669990.2274                   21669987.1024
  -2387605.54347  -1845399.35544  23488922.7894                   23488920.5204
   1597869.96946   1241820.69944  24138961.8054                   24138960.9264
    917594.60548    717287.03546  20135741.1724                   20135737.5204
   4225410.62946   3272601.65643  24103732.2814                   24103729.8834
   -242488.86348   -178973.03146  20967988.4534                   20967983.8164
   3233533.91048   2506210.12946  21046691.4064                   21046687.0664
  -2175114.53947  -1687695.91044  24204727.1174                   24204725.5864
  -1876829.20746  -1455519.45743  24097953.8364                   24097953.4734
 11  8 15 16 54  0.0000000  0 11G03G06G07G08G10G13G16G19G23G11G28
   2861568.57047   2219615.71945  21606751.4844                   21606749.7154
   3654789.01246   2832288.10244  23499983.9454                   23499982.1914
  -1871138.28547  -1441034.48046  21654712.9454                   21654709.7034
  -2484971.01247  -1921268.55544  23470394.9064                   23470392.8794
   1605804.91046   1248003.69543  24140471.8984                   24140470.3754
    913627.84048    714196.01246  20134985.9224                   20134983.0394
   4287572.96146   3321039.73843  24115560.5864                   24115559.2544
   -273962.49248   -203497.93046  20961998.9614                   20961994.4144
   3282740.39548   2544552.79346  21056054.9304                   21056050.4654
  -2280673.86347  -1769949.87944  24184639.5164                   24184638.5744
  -1968502.69146  -1526953.29344  24080509.3914                   24080507.9064
 11  8 15 16 54 30.0000000  0 11G03G06G07G08G10G13G16G19G23G11G28
   2902426.85947   2251453.29745  21614526.5554                   21614524.6724
   3710686.95346   2875844.88344  23510621.2194                   23510619.0904
  -1951368.18447  -1503551.28546  21639445.7424                   21639443.3554
  -2582416.24647  -1997199.85244  23451850.7664                   23451850.7154
   1614065.46946   1254440.44143  24142043.9384                   24142042.8714
    910226.48048    711545.57846  20134339.0864                   20134336.0864
   4349654.78546   3369415.13343  24127375.5864                   24127372.9844
   -304844.89147   -227562.14146  20956122.3914                   20956117.5434
   3332368.68448   2583224.13346  21065498.7664                   21065494.3674
  -2386311.55147  -1852264.90243  24164537.8054                   24164536.8524
  -2059980.44546  -1598234.66444  24063102.2344                   24063100.0204
 11  8 15 16 55  0.0000000  0 11G03G06G07G08G10G13G16G19G23G11G28
   2943747.64547   2283651.27045  21622389.6484                   21622387.9654
   3766886.09447   2919636.35944  23521315.4844                   23521313.1054
  -2031543.82448  -1566025.79346  21624188.9304                   21624186.0204
  -2679938.93747  -2073191.52344  23433293.1484                   23433292.0664
   1622651.05146   1261130.44944  24143678.3754                   24143677.7544
    907391.57448    709336.53546  20133799.4304                   20133796.0594
   4411656.14846   3417727.82843  24139173.3204                   24139171.1174
   -335134.10548   -251164.13346  20950358.1094                   20950353.4614
   3382418.16448   2622223.66046  21075023.1334                   21075018.9384
  -2492023.63747  -1934637.87143  24144420.7504                   24144420.6604
  -2151261.52046  -1669362.77043  24045731.3594                   24045729.9144
 11  8 15 16 55 30.0000000  0 11G03G06G07G08G10G13G16G19G23G11G28
   2985526.25847   2316205.99245  21630340.0704                   21630338.1294
   3823381.73047   2963658.87944  23532066.0864                   23532063.4144
  -2111665.85248  -1628458.54746  21608941.8674                   21608939.3014
  -2777541.21547  -2149245.24244  23414720.4844                   23414719.0864
   1631557.15246   1268070.25843  24145372.3054                   24145371.4844
    905120.68448    707566.98446  20133367.2974                   20133364.3284
   4473573.80546   3465975.24243  24150956.3674                   24150954.3634
   -364832.66047   -274305.86746  20944707.0704                   20944702.3834
   3432884.13748   2661547.74646  21084626.6484                   21084622.1294
  -2597809.46547  -2017068.35243  24124290.4144                   24124288.9844
  -2242347.45746  -1740338.81644  24028398.7424                   24028396.3554
 11  8 15 16 56  0.0000000  0 11G03G06G07G08G10G13G16G19G23G11G28
   3027762.29747   2349117.13745  21638377.3594                   21638375.4384
   3880173.06346   3007911.85244  23542872.8674                   23542871.0434
  -2191731.38748  -1690847.27346  21593706.3054                   21593703.0314
  -2875220.62547  -2225359.03944  23396132.1254                   23396130.9654
   1640782.93446   1275259.11343  24147127.5704                   24147126.9304
    903415.05948    706237.89546  20133042.7114                   20133039.5084
   4535408.14846   3514157.71943  24162723.6724                   24162721.2274
   -393938.04348   -296985.40246  20939168.2974                   20939163.8984
   3483766.50848   2701196.28546  21094309.0004                   21094304.5164
  -2703664.71546  -2099552.91043  24104147.1414                   24104146.2774
  -2333236.72747  -1811161.63744  24011102.9614                   24011101.4064
 11  8 15 16 56 30.0000000  0 11G03G06G07G08G10G13G16G19G23G11G28
   3070457.06347   2382385.74245  21646501.8674                   21646499.0084
   3937261.19146   3052396.03543  23553736.7894                   23553735.4654
  -2271735.67648  -1753188.28946  21578482.0634                   21578479.2774
  -2972973.46947  -2301530.07844  23377530.7894                   23377529.3794
   1650329.73846   1282698.11743  24148944.9064                   24148944.3834
    902277.86348    705351.75046  20132826.2344                   20132823.0004
   4597161.53146   3562277.19943  24174474.2894                   24174472.2814
   -422446.82848   -319200.05146  20933743.3754                   20933738.7114
   3535066.40248   2741170.18046  21104071.1644                   21104066.8554
  -2809583.34446  -2182086.83243  24083991.2734                   24083989.6884
  -2423925.55146  -1881828.23443  23993845.0084                   23993843.9344
 11  8 15 16 57  0.0000000  0 11G03G06G07G08G10G13G16G19G23G11G28
   3113603.98048   2416006.67645  21654712.0784                   21654710.3244
   3994640.43846   3097107.07844  23564655.7194                   23564654.6024
  -2351680.80948  -1815483.18746  21563268.6884                   21563266.3404
  -3070802.23847  -2377760.27044  23358914.5004                   23358912.4884
   1660191.88346   1290382.82443  24150821.7664                   24150820.0944
    901705.51248    704905.73046  20132717.9144                   20132714.1214
   4658829.57446   3610330.15243  24186209.9384                   24186206.5944
   -450361.78148   -340951.96946  20928431.3834                   20928426.6604
   3586778.45748   2781465.22746  21113911.7894                   21113906.9804
  -2915565.47746  -2264670.25443  24063822.8284                   24063822.3984
  -2514417.37546  -1952341.36743  23976625.8674                   23976623.1484
 11  8 15 16 57 30.0000000  0 11G03G06G07G08G10G13G16G19G23G11G28
   3157199.89847   2449977.47745  21663008.0234                   21663006.9144
   4052307.34846   3142042.26644  23575629.5314                   23575628.3594
  -2431566.59048  -1877731.84446  21548066.9694                   21548063.8914
  -3168707.35547  -2454049.94544  23340284.1174                   23340282.1254
   1670365.79746   1298310.46943  24152757.1414                   24152756.6374
    901696.68048    704898.82846  20132716.1724                   20132712.6914
   4720410.31346   3658315.09844  24197928.3754                   24197925.3444
   -477683.68048   -362241.77746  20923232.0554                   20923227.6684
   3638899.52348   2822078.99646  21123830.1484                   21123825.4454
  -3021609.71946  -2347302.04343  24043643.5164                   24043643.4344
  -2604713.53546  -2022701.98043  23959443.0164                   23959440.5434
 11  8 15 16 58  0.0000000  0 11G03G06G07G08G10G13G16G19G23G11G28
   3201243.41447   2484297.04745  21671389.3134                   21671387.1484
   4110260.24246   3187200.30944  23586657.4614                   23586656.0474
  -2511390.93448  -1939932.64846  21532877.2584                   21532873.7154
  -3266687.28547  -2530397.91844  23321639.0234                   23321636.8674
   1680850.30946   1306480.16443  24154752.4614                   24154752.1174
    902251.84848    705331.39846  20132821.9304                   20132818.3674
   4781903.33246   3706231.66443  24209629.5474                   24209628.0904
   -504411.61348   -383068.75446  20918145.8134                   20918141.4384
   3691427.92648   2863010.16046  21133826.1724                   21133821.5394
  -3127712.60546  -2429979.60543  24023452.3444                   24023452.7384
  -2694812.30946  -2092908.78143  23942297.0394                   23942295.5354
 11  8 15 16 58 30.0000000  0 11G03G06G07G08G10G13G16G19G23G11G28
   3245732.65247   2518963.94545  21679855.7114                   21679853.8284
   4168497.50446   3232579.92244  23597740.1564                   23597738.6484
  -2591151.78548  -2002083.97746  21517698.8054                   21517696.2304
  -3364741.00047  -2606803.41444  23302979.7814                   23302977.6724
   1691644.17246   1314890.91443  24156806.9924                   24156806.1564
    903370.89548    706203.35546  20133034.5394                   20133031.5044
   4843308.32846   3754079.67243  24221315.0704                   24221312.3444
   -530544.55547   -403432.10946  20913173.4534                   20913168.4454
   3744362.48448   2904257.82046  21143899.0394                   21143894.3164
  -3233870.48846  -2512699.99243  24003251.0234                   24003250.7344
  -2784713.32046  -2162961.50443  23925190.2034                   23925187.8914
 11  8 15 16 59  0.0000000  0 11G03G06G07G08G10G13G16G19G23G11G28
   3290664.43047   2553975.68045  21688406.4694                   21688403.9264
   4227015.82447   3278178.54744  23608875.1174                   23608874.8634
  -2670848.54348  -2064185.33646  21502532.8914                   21502530.4224
  -3462868.65247  -2683266.50844  23284306.8134                   23284304.2504
   1702743.59046   1323539.78543  24158919.1724                   24158918.4344
    905052.91848    707513.99246  20133354.7274                   20133351.4384
   4904623.64146   3801857.77043  24232983.0084                   24232979.9494
   -556082.91048   -423332.15246  20908313.4144                   20908308.9574
   3797700.47748   2945819.84846  21154049.2034                   21154044.7734
  -3340081.26646  -2595461.59843  23983040.0634                   23983039.2274
  -2874417.32446  -2232860.66043  23908119.8594                   23908117.9144
 11  8 15 16 59 30.0000000  0 11G03G06G07G08G10G13G16G19G23G11G28
   3336037.03547   2589330.92645  21697039.7194                   21697037.6294
   4285813.71947   3323995.00844  23620064.8054                   23620063.7624
  -2750479.07448  -2126235.10946  21487380.0314                   21487376.8714
  -3561068.46547  -2759785.82444  23265620.0084                   23265617.8284
   1714147.29346   1332425.69943  24161089.4614                   24161088.6294
    907298.62948    709263.87546  20133781.8914                   20133778.8364
   4965849.05146   3849565.83243  24244633.7894                   24244631.5554
   -581025.78948   -442768.18746  20903567.1094                   20903562.1334
   3851440.21148   2987694.91446  21164275.3054                   21164270.7584
  -3446341.07846  -2678261.40643  23962819.2664                   23962818.2734
  -2963923.41846  -2302605.61743  23891086.7894                   23891085.5554
 11  8 15 17  0  0.0000000  0 11G03G06G07G08G10G13G16G19G23G11G28
   3381850.26247   2625029.48045  21705758.1484                   21705756.0904
   4344890.92247   3370029.12144  23631306.8054                   23631305.7624
  -2830039.92248  -2188230.59046  21472240.4384                   21472237.0394
  -3659337.87947  -2836359.39844  23246919.4924                   23246917.9064
   1725854.94146   1341548.46143  24163316.9384                   24163315.2194
    910109.43048    711454.09046  20134316.8204                   20134313.5704
   5026985.41446   3897204.49643  24256267.7894                   24256266.4614
   -605370.79348   -461738.35546  20898934.1174                   20898929.4264
   3905581.52748   3029882.90246  21174577.9144                   21174573.5354
  -3552645.23447  -2761095.76243  23942590.7274                   23942588.7274
  -3053229.27346  -2372194.48843  23874092.0004                   23874091.2304
 11  8 15 17  0 30.0000000  0 11G03G06G07G08G10G13G16G19G23G11G28
   3428102.72747   2661070.32845  21714559.6174                   21714557.8984
   4404246.14847   3416279.87944  23642602.0164                   23642600.7034
  -2909528.83248  -2250170.00846  21457113.5784                   21457110.9264
  -3757675.27747  -2912985.92244  23228206.9064                   23228204.8714
   1737865.64846   1350907.42243  24165602.5554                   24165600.8954
    913485.96948    714085.12546  20134959.6334                   20134956.0554
   5088033.01246   3944773.94143  24267885.1484                   24267883.5944
   -629116.96948   -480241.89146  20894415.5314                   20894410.3834
   3960123.51248   3072383.09046  21184957.2344                   21184953.0634
  -3658989.83246  -2843961.63343  23922354.0474                   23922352.9384
  -3142333.97346  -2441626.66443  23857136.2974                   23857135.2304
 11  8 15 17  1  0.0000000  0 11G03G06G07G08G10G13G16G19G23G11G28
   3474789.14147   2697449.30945  21723444.0084                   21723441.3634
   4463874.00847   3462743.07444  23653948.9144                   23653947.5124
  -2988947.10248  -2312054.37146  21442001.1254                   21441998.4264
  -3856082.47747  -2989666.84044  23209480.3594                   23209478.3364
   1750174.18846   1360498.43443  24167944.7274                   24167944.0984
    917424.76248    717154.29346  20135708.9614                   20135705.6054
   5148988.02346   3992271.23843  24279484.3674                   24279482.0044
   -652266.78948   -498280.73046  20890010.1804                   20890005.4454
   4015060.94148   3115191.42246  21195411.0234                   21195407.2344
  -3765374.99247  -2926859.12943  23902109.6334                   23902108.9694
  -3231240.60246  -2510904.48444  23840218.1254                   23840216.7894
 11  8 15 17  1 30.0000000  0 11G03G06G07G08G10G13G16G19G23G11G28
   3521909.09447   2734166.11745  21732410.6954                   21732408.4574
   4523774.30147   3509418.56644  23665347.4304                   23665345.9144
  -3068290.99648  -2373880.78146  21426902.3594                   21426898.7464
  -3954556.53947  -3066399.85244  23190742.1804                   23190739.7664
   1762780.34446   1370321.37943  24170343.6094                   24170343.0164
    921927.75448    720663.08246  20136566.1564                   20136562.8054
   5209851.56646   4039697.29343  24291066.5004                   24291063.4064
   -674818.31648   -515853.39146  20885719.0234                   20885713.9184
   4070394.03148   3158308.03946  21205941.0784                   21205936.6454
  -3871795.53547  -3009784.17643  23881858.6564                   23881857.2584
  -3319946.45746  -2580025.84044  23823337.1724                   23823336.5234
 11  8 15 17  2  0.0000000  0 11G03G06G07G08G10G13G16G19G23G11G28
   3569459.92247   2771218.67245  21741459.5784                   21741457.3874
   4583944.53546   3556304.40244  23676797.5004                   23676795.8404
  -3147559.44548  -2435648.40246  21411818.1484                   21411815.2384
  -4053097.13747  -3143184.72344  23171989.9454                   23171988.2034
   1775681.50846   1380374.15243  24172799.5084                   24172798.5124
    926993.89848    724610.70346  20137530.1254                   20137526.6334
   5270622.65246   4087051.30543  24302631.0554                   24302628.3244
   -696771.39548   -532959.68746  20881541.2424                   20881536.4064
   4126120.08648   3201730.89145  21216545.5084                   21216541.3094
  -3978248.69547  -3092734.66443  23861601.5944                   23861600.4844
  -3408451.57446  -2648990.85944  23806495.7424                   23806494.1604
 11  8 15 17  2 30.0000000  0 11G03G06G07G08G10G13G16G19G23G11G28
   3617439.99247   2808605.71545  21750589.1174                   21750587.4804
   4644383.20746   3603399.40644  23688298.3914                   23688296.8984
  -3226750.37148  -2497355.62146  21396748.4534                   21396745.7384
  -4151702.81647  -3220020.32444  23153225.4064                   23153223.7274
   1788876.09046   1390655.59043  24175309.7114                   24175308.5904
    932623.35248    728997.26646  20138601.1254                   20138597.9344
   5331301.08646   4134333.17643  24314177.3054                   24314174.7384
   -718125.25848   -549599.07446  20877478.1254                   20877473.3674
   4182237.59848   3245458.75846  21227224.3364                   21227219.7624
  -4084730.89847  -3175707.79343  23841338.1484                   23841337.3554
  -3496755.68746  -2717799.19544  23789692.4384                   23789690.7544
 11  8 15 17  3  0.0000000  0 11G03G06G07G08G10G13G16G19G23G11G28
   3665846.98047   2846325.40245  21759800.5944                   21759799.1724
   4705087.74646   3650701.56643  23699849.5314                   23699848.4574
  -3305862.22347  -2559001.21546  21381694.2504                   21381691.1134
  -4250372.63347  -3296905.88744  23134449.2424                   23134447.5904
   1802362.00046   1401164.06343  24177876.4304                   24177874.5984
    938815.91048    733822.60246  20139779.8674                   20139776.6844
   5391886.10946   4181542.20343  24325705.7734                   24325704.3284
   -738879.75048   -565771.42646  20873528.1334                   20873523.8674
   4238744.50448   3289490.05946  21237977.1564                   21237972.7074
  -4191238.78947  -3258700.88343  23821069.9224                   23821068.4924
  -3584858.29747  -2786450.53144  23772926.8594                   23772924.9654
 11  8 15 17  3 30.0000000  0 11G03G06G07G08G10G13G16G19G23G11G28
   3714679.03147   2884376.29745  21769093.3054                   21769091.6214
   4766056.70346   3698209.83643  23711452.0164                   23711449.7504
  -3384892.84048  -2620583.51246  21366655.0704                   21366651.9844
  -4349105.31647  -3373840.44144  23115661.3674                   23115659.5084
   1816137.23046   1411897.90243  24180497.8594                   24180497.1134
    945571.57848    739086.73046  20141065.0864                   20141062.0554
   5452377.55946   4228678.30143  24337217.9774                   24337215.7424
   -759034.46948   -581476.41046  20869692.9384                   20869688.3554
   4295639.12548   3333823.46946  21248803.9454                   21248799.9694
  -4297769.19547  -3341711.53943  23800797.8524                   23800797.5594
  -3672759.02746  -2854944.58244  23756200.3134                   23756198.5634
 11  8 15 17  4  0.0000000  0 11G03G06G07G08G10G13G16G19G23G11G28
   3763933.00447   2922755.97745  21778466.0474                   21778464.1214
   4827287.21946   3745921.84843  23723103.7664                   23723102.3714
  -3463840.90648  -2682101.49246  21351631.6644                   21351628.8594
  -4447900.53947  -3450823.69944  23096860.9064                   23096860.0354
   1830199.30946   1422855.34443  24183173.4144                   24183172.8364
    952889.42248    744788.91446  20142457.6254                   20142454.8134
   5512774.05547   4275740.45743  24348711.4224                   24348708.8914
   -778589.66448   -596714.22746  20865971.6414                   20865967.1024
   4352918.90648   3378457.00846  21259704.2194                   21259700.1724
  -4404319.49247  -3424737.66844  23780522.4224                   23780521.2814
  -3760457.97747  -2923281.38744  23739511.1414                   23739509.2384
 11  8 15 17  4 30.0000000  0 11G03G06G07G08G10G13G16G19G23G11G28
   3813608.63747   2961464.22745  21787918.7114                   21787917.0394
   4888778.99646   3793837.40643  23734806.2344                   23734804.5864
  -3542702.91048  -2743552.40246  21336624.7734                   21336622.4344
  -4546754.97347  -3527853.10544  23078049.4454                   23078048.2304
   1844548.03946   1434036.11743  24185903.5554                   24185903.9414
    960770.90248    750930.30146  20143957.4774                   20143954.7544
   5573076.74246   4322729.51243  24360186.3054                   24360183.4414
   -797543.48048   -611483.44146  20862365.2344                   20862360.2704
   4410583.84448   3423390.66846  21270677.4304                   21270673.4804
  -4510884.52047  -3507775.30944  23760244.3284                   23760242.3404
  -3847952.95347  -2991459.25044  23722861.6884                   23722859.9654
 11  8 15 17  5  0.0000000  0 11G03G06G07G08G10G13G16G19G23G11G28
   3863703.89547   3000499.45745  21797451.7894                   21797450.4414
   4950530.18046   3841955.15643  23746556.3754                   23746554.4804
  -3621477.04348  -2804934.82846  21321634.5554                   21321631.6884
  -4645667.39147  -3604927.68744  23059226.6884                   23059225.5634
   1859181.35946   1445438.66043  24188688.7114                   24188687.9184
    969215.55148    757510.50846  20145564.6094                   20145561.4384
   5633285.50046   4369645.32043  24371643.3524                   24371641.3134
   -815895.27748   -625783.55146  20858872.8134                   20858868.5084
   4468631.80548   3468622.79746  21281723.4924                   21281718.9924
  -4617460.81646  -3590821.69943  23739962.4924                   23739962.5474
  -3935243.54346  -3059477.85244  23706250.9694                   23706248.7704
 11  8 15 17  5 30.0000000  0 11G03G06G07G08G10G13G16G19G23G11G28
   3914216.62547   3039859.98445  21807064.6024                   21807062.3954
   5012538.68846   3890273.44144  23758356.8524                   23758355.1884
  -3700161.52347  -2866247.41846  21306661.7274                   21306658.4884
  -4744637.09447  -3682046.91444  23040394.1414                   23040392.0234
   1874097.25846   1457061.38343  24191527.2584                   24191526.1914
    978223.26648    764529.47346  20147278.5864                   20147275.8794
   5693400.00846   4416487.77342  24383081.9384                   24383080.0164
   -833644.66848   -639614.25046  20855495.4304                   20855490.5274
   4527061.58248   3514152.42246  21292842.5704                   21292838.5944
  -4724044.99246  -3673874.25043  23719679.7584                   23719680.0434
  -4022329.41446  -3127336.96944  23689678.7274                   23689676.5984
 11  8 15 17  6  0.0000000  0 11G03G06G07G08G10G13G16G19G23G11G28
   3965144.93447   3079544.33645  21816755.5394                   21816753.9304
   5074802.73446   3938790.79744  23770204.8674                   23770204.0784
  -3778754.21147  -2927488.46946  21291705.8054                   21291702.4614
  -4843662.19547  -3759209.33244  23021550.4844                   23021548.1334
   1889294.23046   1468903.10943  24194418.6094                   24194418.5984
    987793.57848    771986.82446  20149100.1644                   20149096.9574
   5753419.49646   4463256.12143  24394504.2034                   24394502.2464
   -850791.55948   -652975.46946  20852232.3054                   20852227.3524
   4585870.50848   3559977.49646  21304033.6414                   21304029.5124
  -4830633.63346  -3756930.25443  23699396.2974                   23699396.0044
  -4109210.14847  -3195036.20744  23673146.0474                   23673144.5164
 11  8 15 17  6 30.0000000  0 11G03G06G07G08G10G13G16G19G23G11G28
   4016486.30547   3119550.54745  21826525.1094                   21826524.1524
   5137319.94547   3987505.45744  23782101.6174                   23782100.5864
  -3857253.34847  -2988656.62946  21276767.7584                   21276765.1454
  -4942741.72747  -3836414.15644  23002695.8444                   23002694.1844
   1904769.69146   1480961.83643  24197363.8364                   24197363.4654
    997926.35548    779882.46146  20151028.0944                   20151025.0864
   5813343.59046   4509950.19543  24405907.6884                   24405905.7274
   -867335.97348   -665867.23046  20849084.1884                   20849079.2624
   4645056.49248   3606096.37946  21315296.0554                   21315292.0824
  -4937223.89846  -3839987.55143  23679114.2424                   23679112.6414
  -4195885.65247  -3262575.52044  23656651.9774                   23656650.1024
 11  8 15 17  7  0.0000000  0 11G03G06G07G08G10G13G16G19G23G11G28
   4068239.16847   3159877.40645  21836373.8834                   21836371.4964
   5200088.90647   4036416.27344  23794046.0004                   23794045.4384
  -3935656.57048  -3049750.03946  21261847.8914                   21261845.1024
  -5041874.09847  -3913660.13744  22983831.4774                   22983829.7974
   1920521.86746   1493236.24643  24200361.4144                   24200361.6524
   1008621.51648    788216.32846  20153063.3134                   20153060.6254
   5873172.43846   4556569.96943  24417292.6564                   24417290.6914
   -883276.99248   -678288.81646  20846050.5314                   20846045.8244
   4704618.39548   3652508.19146  21326630.5164                   21326626.6994
  -5043811.60246  -3923042.83644  23658830.8594                   23658829.2664
  -4282355.03946  -3329954.25444  23640197.1884                   23640194.8204
 11  8 15 17  7 30.0000000  0 11G03G06G07G08G10G13G16G19G23G11G28
   4120401.29347   3200523.17245  21846300.0784                   21846298.7304
   5263107.96946   4085521.98844  23806037.8834                   23806037.8914
  -4013961.73048  -3110767.05946  21246947.4924                   21246944.1174
  -5141057.72747  -3990946.06244  22964957.7664                   22964955.8364
   1936549.52346   1505725.24243  24203412.1334                   24203412.0314
   1019879.00448    796988.35946  20155205.5864                   20155202.3554
   5932905.79345   4603115.37143  24428660.0864                   24428657.8594
   -898614.38348   -690240.03546  20843131.7504                   20843127.4884
   4764554.36348   3699211.48046  21338036.2114                   21338031.9654
  -5150393.09846  -4006093.29743  23638548.7894                   23638547.4694
  -4368617.53946  -3397171.75043  23623781.8134                   23623779.9654
 11  8 15 17  8  0.0000000  0 11G03G06G07G08G10G13G16G19G23G11G28
   4172966.47747   3241483.00045  21856303.0634                   21856301.2624
   5326370.86746   4134817.66444  23818076.7034                   23818076.2304
  -4092170.96148  -3171709.31246  21232064.5394                   21232061.6564
  -5240295.27347  -4068274.01644  22946073.6254                   22946070.6684
   1952846.24246   1518423.93043  24206512.8204                   24206512.1524
   1031694.11348    806194.90246  20157454.2504                   20157451.0234
   5992539.16046   4649582.85543  24440007.4224                   24440005.4024
   -913352.12148   -701724.00846  20840327.6094                   20840322.8244
   4824858.53547   3746201.66046  21349511.5704                   21349507.9304
  -5256969.07446  -4089139.48044  23618268.0394                   23618267.2624
  -4454677.02347  -3464231.09044  23607405.3984                   23607403.4064
 11  8 15 17  8 30.0000000  0 11G03G06G07G08G10G13G16G19G23G11G28
   4225934.47747   3282756.71945  21866382.5164                   21866380.3874
   5389877.35246   4184303.17244  23830161.3444                   23830160.8554
  -4170280.67248  -3232574.02746  21217200.7274                   21217197.3094
  -5339583.85247  -4145641.73444  22927179.4774                   22927176.9924
   1969411.83346   1531332.12543  24209664.4224                   24209665.0084
   1044068.27748    815837.07446  20159808.4844                   20159805.8444
   6052073.82846   4695973.44543  24451337.1884                   24451334.7704
   -927488.56648   -712739.43446  20837637.5004                   20837633.1484
   4885530.65647   3793478.57446  21361057.3834                   21361053.2624
  -5363534.80946  -4172177.68743  23597989.9924                   23597987.6094
  -4540531.48047  -3531130.63744  23591068.1884                   23591066.3204
 11  8 15 17  9  0.0000000  0 11G03G06G07G08G10G13G16G19G23G11G28
   4279305.06347   3324344.13745  21876538.5084                   21876536.3874
   5453627.71146   4233978.69144  23842292.8134                   23842291.7624
  -4248286.45747  -3293357.76246  21202356.8754                   21202354.0204
  -5438920.03947  -4223046.51644  22908276.3674                   22908274.4694
   1986246.43046   1544449.88343  24212868.6254                   24212867.9144
   1057002.68848    825915.80146  20162270.1094                   20162267.0164
   6111511.85947   4742288.73443  24462647.8674                   24462645.1024
   -941021.08248   -723284.26246  20835061.9924                   20835057.6644
   4946570.83648   3841042.28546  21372672.9304                   21372668.7234
  -5470084.66846  -4255203.49643  23577713.6564                   23577711.8554
  -4626178.26247  -3597868.35244  23574769.6564                   23574767.5514
 11  8 15 17  9 30.0000000  0 11G03G06G07G08G10G13G16G19G23G11G28
   4333074.29747   3366242.18845  21886770.7114                   21886768.7464
   5517617.64546   4283840.89143  23854469.7734                   23854468.8874
  -4326189.08648  -3354061.10246  21187532.4534                   21187529.3984
  -5538304.89847  -4300489.23444  22889363.5944                   22889361.5084
   2003345.37546   1557773.65643  24216122.5634                   24216122.6484
   1070495.16048    836429.38346  20164837.6724                   20164834.5984
   6170850.33247   4788526.47743  24473939.3914                   24473937.4224
   -953951.82848   -733360.17246  20832601.7584                   20832596.8524
   5007974.76648   3888889.42245  21384357.4844                   21384353.2304
  -5576616.94146  -4338215.62143  23557441.1954                   23557439.7664
  -4711619.56647  -3664445.96943  23558510.3594                   23558509.0354
 11  8 15 17 10  0.0000000  0 11G03G06G07G08G10G13G16G19G23G11G28
   5962656.44547   4636046.41445  22196869.6094                   22196867.7544
   7157262.07846   5561485.83243  24166482.9144                   24166483.0394
  -2828564.89147  -2187081.21946  21472520.9694                   21472518.0124
  -4062314.96147  -3150367.18044  23170235.6174                   23170233.4734
   3596124.94546   2798900.53143  24519218.6254                   24519218.0784
   2659963.23048   2074975.88346  20467303.3834                   20467300.1524
   7805505.93446   6062283.98443  24785002.9774                   24785001.8324
    609138.19148    484632.04346  21130047.6564                   21130043.5044
   6645157.14148   5164615.88345  21695902.8594                   21695898.8874
  -4107706.09846  -3193609.73443  23836964.6724                   23836964.2114
  -3221433.39546  -2503261.88743  23842083.5634                   23842081.7034
 11  8 15 17 10 30.0000000  0 11G03G06G07G08G10G13G16G19G23G11G28
   6017214.63347   4678559.24245  22207251.7664                   22207249.7934
   7221724.39146   5611716.10243  24178750.2664                   24178748.9534
  -2906255.85948  -2247619.64546  21457736.6804                   21457733.1994
  -4161794.11747  -3227883.39545  23151305.3594                   23151303.3054
   3613745.73046   2812630.97743  24522571.1644                   24522571.1484
   2674569.16848   2086357.09846  20470082.7664                   20470079.8834
   7864643.60546   6108365.21943  24796257.2194                   24796255.7114
    597409.55548    475492.83246  21127815.6884                   21127811.6254
   6707281.46547   5213024.39145  21707724.6724                   21707720.2154
  -4214194.51246  -3276587.66443  23816701.5004                   23816699.8594
  -3306463.42247  -2569519.01244  23825902.9454                   23825901.1684
 11  8 15 17 11  0.0000000  0 11G03G06G07G08G10G13G16G19G23G11G28
   6072162.13747   4721375.42645  22217708.0084                   22217706.3634
   7286417.76646   5662126.48443  24191061.8914                   24191059.5634
  -2983839.67648  -2308074.55946  21442972.7814                   21442970.4494
  -4261319.96147  -3305435.98444  23132366.2974                   23132364.5634
   3631622.90246   2826561.15643  24525974.0004                   24525972.7894
   2689728.88348   2098169.82446  20472967.4454                   20472964.8484
   7923678.66446   6154366.48843  24807491.1174                   24807489.9344
    586280.19548    466820.60246  21125697.8754                   21125693.4494
   6769761.30547   5261709.89845  21719614.4614                   21719610.2774
  -4320657.76646  -3359546.01643  23796442.1484                   23796441.0474
  -3391289.30547  -2635617.03144  23809761.1254                   23809759.5434
 11  8 15 17 11 30.0000000  0 11G03G06G07G08G10G13G16G19G23G11G28
   6127498.79347   4764494.85244  22228238.7344                   22228235.6844
   7351342.28946   5712717.00443  24203416.0784                   24203414.9574
  -3061312.64148  -2368443.09846  21428230.3674                   21428227.4844
  -4360889.24247  -3383022.40644  23113419.0704                   23113416.8754
   3649756.19546   2840690.94943  24529424.6644                   24529423.8364
   2705443.87548   2110415.23446  20475957.9534                   20475955.2074
   7982612.68846   6200288.98443  24818706.3134                   24818704.8284
    575751.99648    458616.80146  21123694.3914                   21123690.0784
   6832596.57848   5310672.37945  21731571.6254                   21731567.7194
  -4427090.04746  -3442480.21944  23776188.8204                   23776187.6484
  -3475908.80947  -2701554.28544  23793658.1484                   23793656.6884
 11  8 15 17 12  0.0000000  0 11G03G06G07G08G10G13G16G19G23G11G28
   6183220.21547   4807914.09445  22238841.9924                   22238839.5314
   7416494.10946   5763484.59843  24215814.5164                   24215812.9884
  -3138674.52748  -2428725.08246  21413508.8524                   21413505.4884
  -4460502.74247  -3460643.29344  23094462.8524                   23094460.6134
   3668141.24646   2855016.89543  24532922.9454                   24532922.8714
   2721711.60248   2123091.34846  20479053.5474                   20479050.4694
   8041443.35946   6246131.03943  24829900.9844                   24829900.0514
    565822.78548    450879.74646  21121805.5084                   21121800.9024
   6895783.15647   5359908.60945  21743595.4614                   21743591.5234
  -4533490.57447  -3525389.67243  23755941.1094                   23755939.7704
  -3560323.48847  -2767331.91444  23777595.4844                   23777592.9224
 11  8 15 17 12 30.0000000  0 11G03G06G07G08G10G13G16G19G23G11G28
   6239324.56347   4851631.72345  22249518.3524                   22249516.7734
   7481871.63346   5814428.06643  24228255.1334                   24228254.0434
  -3215922.84848  -2488918.59046  21398808.8834                   21398806.0474
  -4560158.73447  -3538297.29345  23075499.0474                   23075496.3954
   3686776.36346   2869537.69943  24536468.9224                   24536468.5784
   2738531.75448   2136197.92246  20482254.5784                   20482251.6094
   8100170.88346   6291892.71143  24841076.5784                   24841074.9454
    556492.99648    443609.77346  21120029.4924                   21120025.6914
   6959319.28148   5409417.19945  21755686.6484                   21755682.5864
  -4639855.77046  -3608271.60944  23735700.7194                   23735699.9024
  -3644532.72347  -2832949.45344  23761570.9454                   23761568.9344
 11  8 15 17 13  0.0000000  0 11G03G06G07G08G10G13G16G19G23G11G28
   6295807.27047   4895644.18845  22260266.7814                   22260264.5004
   7547470.36746   5865543.91043  24240738.6334                   24240737.3634
  -3293058.14548  -2549024.01646  21384130.7344                   21384127.9024
  -4659858.30947  -3615985.27044  23056526.7894                   23056524.2304
   3705657.18446   2884249.94943  24540061.2274                   24540061.9184
   2755901.25848   2149732.55946  20485559.7504                   20485556.8444
   8158792.65646   6337571.95343  24852231.3984                   24852231.0434
    547759.86348    436804.72746  21118368.0234                   21118363.6024
   7023200.57048   5459194.75845  21767842.4384                   21767838.5824
  -4746183.43746  -3691124.28543  23715466.2504                   23715466.0314
  -3728538.72347  -2898408.64544  23745584.4224                   23745582.2664
 11  8 15 17 13 30.0000000  0 11G03G06G07G08G10G13G16G19G23G11G28
   6352669.03147   4939952.02345  22271087.2194                   22271085.0004
   7613291.14546   5916832.76244  24253264.2114                   24253263.1174
  -3370075.31648  -2609037.39146  21369474.7894                   21369471.3834
  -4759596.86347  -3693703.59045  23037547.2114                   23037545.3204
   3724784.57845   2899154.31643  24543701.7424                   24543701.6564
   2773822.24648   2163696.93046  20488970.0944                   20488967.0274
   8217311.11746   6383170.62143  24863367.7194                   24863365.8794
    539626.33248    430466.89846  21116819.8284                   21116815.6804
   7087427.83247   5509241.90645  21780064.6804                   21780060.6644
  -4852467.89847  -3773943.30143  23695241.7114                   23695239.9344
  -3812338.46147  -2963707.10544  23729637.9384                   23729636.3874
 11  8 15 17 14  0.0000000  0 11G03G06G07G08G10G13G16G19G23G11G28
   6409902.39547   4984549.40645  22281978.1954                   22281976.0664
   7679327.11346   5968289.27743  24265830.1174                   24265829.7194
  -3446977.61348  -2668961.27346  21354840.6724                   21354837.3484
  -4859377.82047  -3771454.96145  23018559.2974                   23018557.1764
   3744151.28946   2914245.21143  24547386.6804                   24547387.3794
   2792289.03548   2178086.59846  20492483.9924                   20492481.3754
   8275721.10246   6428684.87943  24874483.1254                   24874480.9144
    532087.17248    424592.20746  21115385.6334                   21115381.2384
   7151994.04348   5559553.16445  21792351.2114                   21792346.7734
  -4958710.66847  -3856729.80944  23675024.3364                   23675023.5044
  -3895936.53147  -3028848.44544  23713729.3524                   23713727.6804
 11  8 15 17 14 30.0000000  0 11G03G06G07G08G10G13G16G19G23G11G28
   6467506.58647   5029435.75845  22292939.8834                   22292938.1564
   7745577.41446   6019912.80143  24278437.6724                   24278436.3134
  -3523761.54748  -2728792.90246  21340229.0004                   21340226.8524
  -4959198.89847  -3849237.58245  22999564.1724                   22999561.9924
   3763756.51246   2929521.91843  24551117.8754                   24551117.6724
   2811302.12948   2192901.95746  20496102.2814                   20496099.3284
   8334023.55546   6474115.25843  24885577.7114                   24885576.2234
    525143.39548    419181.46146  21114064.1174                   21114060.1054
   7216898.09448   5610127.68045  21804702.0704                   21804697.9804
  -5064906.97746  -3939480.15643  23654815.9064                   23654814.5944
  -3979331.63747  -3093831.61744  23697860.3364                   23697858.7934
 11  8 15 17 15  0.0000000  0 11G03G06G07G08G10G13G16G19G23G11G28
   6525479.12947   5074609.13744  22303971.6644                   22303970.4534
   7812039.94146   6071701.69943  24291085.0634                   24291083.5234
  -3600425.55148  -2788531.07046  21325640.3754                   21325637.1914
  -5059059.03947  -3927050.66445  22980561.1804                   22980559.5634
   3783598.12146   2944982.84443  24554893.8754                   24554893.4104
   2830861.12948   2208142.68846  20499824.6334                   20499821.7504
   8392218.22346   6519461.65643  24896651.8204                   24896650.0044
    518794.39848    414234.17246  21112855.7504                   21112851.5944
   7282138.00448   5660963.88345  21817116.8674                   21817113.2464
  -5171053.30547  -4022191.53144  23634616.8364                   23634615.7814
  -4062523.68746  -3158656.56644  23682029.0784                   23682027.9574
 11  8 15 17 15 30.0000000  0 11G03G06G07G08G10G13G16G19G23G11G28
   6583818.78547   5120068.56344  22315072.9924                   22315071.8134
   7878713.73846   6123655.21543  24303771.6644                   24303771.1644
  -3676966.03148  -2848173.01246  21311075.4534                   21311072.2464
  -5158954.98847  -4004891.66044  22961551.6334                   22961549.3954
   3803674.97146   2960627.02343  24558714.2034                   24558713.8054
   2850965.37548   2223808.30546  20503649.9694                   20503647.0944
   8450305.69146   6564724.59443  24907705.4224                   24907704.1334
    513041.14148    409751.09846  21111761.2034                   21111756.6604
   7347712.64848   5712060.93045  21829595.5864                   21829591.8484
  -5277145.27347  -4104860.54744  23614427.6644                   23614426.7304
  -4145511.20347  -3223322.14144  23666237.1174                   23666235.0784
 11  8 15 17 16  0.0000000  0 11G03G06G07G08G10G13G16G19G23G11G28
   6642523.35547   5165812.32844  22326244.5944                   22326243.1254
   7945597.00846   6175771.96943  24316499.6254                   24316498.1524
  -3753380.96948  -2907717.10546  21296534.0554                   21296531.2664
  -5258885.59847  -4082759.64845  22942535.2974                   22942533.7584
   3823984.74246   2976452.78543  24562579.2894                   24562579.0234
   2871614.64148   2239898.60246  20507579.6804                   20507576.9414
   8508286.03946   6609904.06643  24918738.8834                   24918737.0664
    507883.52348    405732.15646  21110779.9384                   21110775.1214
   7413620.03948   5763417.25845  21842137.4384                   21842133.5824
  -5383179.45346  -4187484.55544  23594250.5784                   23594249.5124
  -4228294.12147  -3287828.28544  23650484.0554                   23650482.2544
 11  8 15 17 16 30.0000000  0 11G03G06G07G08G10G13G16G19G23G11G28
   6701588.54747   5211837.09844  22337484.0864                   22337482.5664
   8012685.57846   6228048.70343  24329266.1564                   24329265.1174
  -3829670.41848  -2967163.42646  21282016.7974                   21282013.4924
  -5358851.57447  -4160655.19145  22923512.3674                   22923510.3134
   3844523.27046   2992456.78143  24566487.2194                   24566487.4804
   2892806.05948   2256411.35946  20511612.4454                   20511609.1914
   8566156.98446   6654998.26643  24929751.7504                   24929750.4694
    503319.06648    402175.43046  21109910.9454                   21109906.7774
   7479855.97748   5815029.60245  21854741.6334                   21854737.7074
  -5489154.29747  -4270062.30544  23574084.2974                   23574082.8134
  -4310874.19547  -3352176.35244  23634769.4534                   23634767.8094
 11  8 15 17 17  0.0000000  0 11G03G06G07G08G10G13G16G19G23G11G28
   6761015.82847   5258144.02344  22348793.1414                   22348791.6054
   8079981.32847   6280486.87143  24342072.4774                   24342071.6914
  -3905828.60548  -3026507.46146  21267524.4304                   21267521.7424
  -5458847.56647  -4238574.12545  22904483.5164                   22904481.9264
   3865292.34045   3008640.40643  24570439.7194                   24570440.0164
   2914542.74248   2273348.99646  20515748.9384                   20515745.7544
   8623922.30546   6700010.14843  24940743.3914                   24940741.7584
    499351.25848    399083.61746  21109155.9844                   21109151.5234
   7546422.18448   5866899.29745  21867408.7814                   21867405.1804
  -5595062.39847  -4352588.04344  23553930.7114                   23553928.3674
  -4393247.20347  -3416363.06244  23619094.8284                   23619092.9964
 11  8 15 17 17 30.0000000  0 10G03G06G07G08G10G13G19G23G11G28
   6820799.55547   5304728.71944  22360169.4304                   22360168.1564
   8147479.08246   6333082.49243  24354917.0314                   24354915.9384
  -3981856.46548  -3085749.94146  21253056.4924                   21253053.7234
  -5558875.11347  -4316517.66844  22885449.2584                   22885447.1484
   3886286.89846   3024999.68843  24574435.5314                   24574435.7814
   2936820.32048   2290708.12146  20519988.1254                   20519985.0594
    495976.48448    396453.92246  21108514.1954                   21108509.8054
   7613313.25048   5919022.11745  21880137.6414                   21880133.8554
  -5700903.44947  -4435061.57044  23533789.7194                   23533788.7814
  -4475416.56247  -3480391.11344  23603457.9144                   23603456.4454
 11  8 15 17 18  0.0000000  0 10G03G06G07G08G10G13G19G23G11G28
   6880938.07847   5351589.85244  22371613.6954                   22371611.8244
   8215177.41446   6385834.37543  24367799.2814                   24367798.4534
  -4057750.99648  -3144888.53546  21238614.1094                   21238611.4264
  -5658932.15247  -4394484.16044  22866409.3914                   22866406.9024
   3907505.06646   3041533.25843  24578473.0314                   24578473.2424
   2959638.38748   2308488.40246  20524329.8914                   20524327.5234
    493194.80148    394286.36346  21107984.6954                   21107980.2154
   7680527.63348   5971396.86745  21892928.1254                   21892924.7154
  -5806673.46547  -4517479.70744  23513662.1414                   23513660.7814
  -4557381.41047  -3544259.76644  23587860.5164                   23587858.9804
 11  8 15 17 18 30.0000000  0 10G03G06G07G08G10G13G19G23G11G28
   6941437.15647   5398731.93444  22383125.6484                   22383124.5434
   8283082.14846   6438747.12544  24380721.1804                   24380721.2624
  -4133502.85248  -3203915.94546  21224199.0704                   21224196.3134
  -5759009.31647  -4472466.36745  22847365.2814                   22847363.2814
   3928952.43946   3058245.47343  24582554.2194                   24582554.9224
   2983004.32848   2326695.58646  20528776.3054                   20528773.4884
    491013.65248    392586.75846  21107569.8594                   21107565.2584
   7748070.85248   6024027.87945  21905781.2344                   21905777.2934
  -5912361.12947  -4599833.69543  23493550.5554                   23493549.6844
  -4639133.68746  -3607962.80544  23572304.0474                   23572302.1294
 11  8 15 17 19  0.0000000  0 10G03G06G07G08G10G13G19G23G11G28
   7002297.67247   5446155.65644  22394707.5634                   22394705.8364
   8351194.80546   6491821.85943  24393682.6334                   24393683.2854
  -4209106.18448  -3262827.63746  21209812.3204                   21209809.3794
  -5859101.65647  -4550460.38744  22828318.2424                   22828315.7934
   3950630.71946   3075137.49643  24586679.4924                   24586679.3714
   3006919.93848   2345331.09046  20533327.3834                   20533324.5594
    489436.06348    391357.46546  21107269.2974                   21107265.2074
   7815944.42248   6076916.29745  21918697.3444                   21918693.2974
  -6017959.44547  -4682118.05544  23473455.5784                   23473454.2384
  -4720669.63747  -3671497.25444  23556788.2424                   23556785.6484
 11  8 15 17 19 30.0000000  0 10G03G06G07G08G10G13G19G23G11G28
   7063517.68447   5493859.51244  22406357.0634                   22406355.8794
   8419513.44546   6545057.08243  24406682.9454                   24406683.5514
  -4284559.05948  -3321622.07446  21195454.0234                   21195451.4184
  -5959207.66447  -4628465.06245  22809268.6414                   22809266.5004
   3972537.67246   3092207.75043  24590848.5634                   24590849.3444
   3031384.60548   2364394.43046  20537983.1644                   20537980.2934
    488461.57448    390598.10946  21107083.7664                   21107079.5864
   7884146.08248   6130060.33645  21931676.0314                   21931672.4184
  -6123464.77346  -4764329.96143  23453378.3284                   23453377.5944
  -4801989.21947  -3734863.13744  23541312.8594                   23541311.7664
 11  8 15 17 20  0.0000000  0 10G03G06G07G08G10G13G19G23G11G28
   7125090.41847   5541838.21144  22418074.0234                   22418073.1094
   8488031.72346   6598447.87943  24419721.3754                   24419721.0864
  -4359863.34848  -3380300.73446  21181124.2814                   21181121.1374
  -6059330.04347  -4706482.46545  22790215.9224                   22790213.9304
   3994666.35946   3109450.80943  24595058.7584                   24595059.5234
   3056392.74648   2383881.25846  20542741.6644                   20542739.2074
    488085.21547    390304.83246  21107012.4534                   21107007.8594
   7952669.14148   6183454.84845  21944715.7584                   21944711.2194
  -6228878.07446  -4846470.13343  23433318.7194                   23433317.2034
  -4883096.85247  -3798063.86344  23525878.9534                   23525877.2704
 11  8 15 17 20 30.0000000  0 10G03G06G07G08G10G13G19G23G11G28
   7187010.63347   5590087.67644  22429857.2194                   22429855.5594
   8556744.94946   6651990.59043  24432797.8524                   24432797.0164
  -4435019.46948  -3438863.94546  21166822.7194                   21166819.2894
  -6159469.94947  -4784513.55145  22771159.8364                   22771157.0984
   4017011.96946   3126862.88743  24599311.5634                   24599311.9804
   3081941.15248   2403789.06646  20547603.2734                   20547601.1214
    488304.09048    390475.37146  21107054.0704                   21107049.5354
   8021508.96948   6237096.18845  21957814.8284                   21957811.1954
  -6334198.15247  -4928537.67644  23413277.0634                   23413274.9064
  -4963994.60547  -3861101.03544  23510485.3204                   23510482.2934
 11  8 15 17 21  0.0000000  0 10G03G06G07G08G10G13G19G23G11G28
   7249270.49647   5638601.80544  22441704.4694                   22441704.0594
   8625645.06346   6705678.91043  24445909.5004                   24445908.8594
  -4510031.58248  -3497314.93446  21152548.2894                   21152545.5394
  -6259632.03547  -4862561.92244  22752099.9614                   22752097.0594
   4039566.40246   3144437.66043  24603603.8674                   24603603.6454
   3108022.58648   2424112.22346  20552566.8914                   20552563.7194
    489111.37147    391104.40246  21107207.5944                   21107202.9734
   8090657.27748   6290977.89545  21970973.9384                   21970969.7304
  -6439427.95747  -5010534.89543  23393252.8594                   23393251.1454
  -5044688.62947  -3923979.48044  23495129.5944                   23495127.1454
 11  8 15 17 21 30.0000000  0 10G03G06G07G08G10G13G19G23G11G28
   7311864.25447   5687376.10244  22453616.4304                   22453615.3244
   8694727.46146   6759509.28943  24459055.4304                   24459054.3204
  -4584900.02348  -3555653.98446  21138301.1334                   21138298.6564
  -6359817.32847  -4940628.36345  22733034.7344                   22733032.8484
   4062325.19946   3162171.70743  24607935.2344                   24607934.6334
   3134633.07848   2444847.63346  20557630.6254                   20557628.1724
    490503.89148    392189.46546  21107472.9224                   21107468.1054
   8160108.75448   6345095.83645  21984190.0474                   21984186.0514
  -6544566.47746  -5092460.96144  23373244.8984                   23373243.9384
  -5125181.80947  -3986701.40244  23479811.6094                   23479810.4414
 11  8 15 17 22  0.0000000  0 10G03G06G07G08G10G13G19G23G11G28
   7374789.29747   5736408.53544  22465590.6174                   22465589.1764
   8763989.46946   6813479.59843  24472235.5394                   24472234.6174
  -4659623.53148  -3613880.08246  21124081.2894                   21124078.3914
  -6460024.87547  -5018712.14545  22713966.0474                   22713964.2464
   4085285.24646   3180062.56643  24612303.8834                   24612304.1174
   3161771.25848   2465994.22746  20562794.5864                   20562792.6844
    492480.16848    393729.40646  21107848.6414                   21107844.1764
   8229861.26648   6399448.35545  21997463.3834                   21997459.8714
  -6649610.75447  -5174313.59444  23353256.2034                   23353254.8364
  -5205474.39147  -4049267.03544  23464532.3524                   23464531.1374
 11  8 15 17 22 30.0000000  0 10G03G06G07G08G10G13G19G23G11G28
   7438043.63747   5785697.59044  22477627.8834                   22477626.3984
   8833429.32846   6867588.50043  24485449.2664                   24485448.9384
  -4734199.59848  -3671991.30946  21109890.4774                   21109887.3324
  -6560253.18047  -5096812.13345  22694893.7974                   22694890.9184
   4108444.15646   3198108.39843  24616710.6484                   24616710.3364
   3189435.82848   2487551.00046  20568059.4224                   20568056.3204
    495039.75047    395723.86746  21108335.6174                   21108331.4694
   8299912.43048   6454033.57845  22010793.8674                   22010790.5594
  -6754556.96547  -5256089.78144  23333285.7034                   23333284.4534
  -5285566.12547  -4111676.19544  23449291.3364                   23449289.8284
 11  8 15 17 23  0.0000000  0 10G03G06G07G08G10G13G19G23G11G28
   7501621.54747   5835238.76244  22489726.0084                   22489724.4414
   8903041.61746   6921831.80543  24498696.3674                   24498694.8984
  -4808629.53548  -3729988.66846  21095726.8834                   21095723.9804
  -6660503.36347  -5174929.13745  22675816.1644                   22675814.3674
   4131796.57446   3216304.94943  24621154.9224                   24621154.2704
   3217622.66048   2509514.72746  20573423.3444                   20573420.2624
    498178.66448    398169.76246  21108933.0634                   21108928.7344
   8370256.66848   6508847.19145  22024179.8444                   22024176.8634
  -6859405.30147  -5337789.74244  23313333.6484                   23313331.8524
  -5365460.51247  -4173931.53144  23434088.4144                   23434086.1294
 11  8 15 17 23 30.0000000  0 10G03G06G07G08G10G13G19G23G11G28
   7565517.45347   5885027.75444  22501885.2274                   22501883.3754
   8972821.44546   6976205.64143  24511974.9534                   24511973.7304
  -4882914.26648  -3787872.87546  21081591.0634                   21081588.1884
  -6760776.83647  -5253064.29745  22656734.8204                   22656732.4144
   4155337.24646   3234648.20743  24625635.1334                   24625634.8914
   3246327.03548   2531881.73846  20578885.5944                   20578882.5434
    501893.03947    401064.05146  21109639.7664                   21109635.3054
   8440888.51648   6563884.91045  22037620.5394                   22037617.9064
  -6964154.91447  -5419412.74644  23293400.9694                   23293399.2624
  -5445160.54747  -4236035.43744  23418922.0864                   23418919.6174
 11  8 15 17 24  0.0000000  0 10G03G06G07G08G10G13G19G23G11G28
   7629730.71547   5935064.00044  22514104.3754                   22514102.8324
   9042768.72346   7030709.96143  24525285.4454                   24525284.5704
  -4957049.73448  -3845640.77746  21067483.1804                   21067480.2894
  -6861070.61747  -5331215.28544  22637649.7974                   22637647.3094
   4179065.71946   3253137.87543  24630150.2974                   24630150.0274
   3275549.75848   2554652.64846  20584446.6724                   20584443.6374
    506184.29348    404407.85946  21110456.6644                   21110452.3244
   8511807.98047   6619146.71945  22051116.1094                   22051112.4414
  -7068800.48447  -5500954.67644  23273486.8834                   23273485.8794
  -5524663.85547  -4297986.02744  23403792.3444                   23403791.0004
 11  8 15 17 24 30.0000000  0 10G03G06G07G08G10G13G19G23G11G28
   7694258.52746   5985345.34044  22526384.2584                   22526382.4924
   9112880.29346   7085342.28943  24538627.2664                   24538626.4184
  -5031034.41848  -3903291.18446  21053404.6174                   21053401.3134
  -6961383.73847  -5409381.33645  22618560.6174                   22618559.2624
   4202979.07046   3271771.58243  24634700.4924                   24634701.0274
   3305288.95748   2577826.00846  20590105.3054                   20590102.9614
    511050.62548    408199.78946  21111382.6484                   21111378.3554
   8583011.51648   6674629.89845  22064665.9534                   22064661.9494
  -7173339.78147  -5582413.78944  23253593.8524                   23253592.0634
  -5603971.68447  -4359784.30544  23388700.9304                   23388699.3364
 11  8 15 17 25  0.0000000  0 10G03G06G07G08G10G13G19G23G11G28
   7759098.83647   6035870.18844  22538723.0084                   22538721.7704
   9183154.93446   7140101.64843  24552000.2274                   24551998.5434
  -5104865.69148  -3960822.04746  21039355.0704                   21039351.7664
  -7061713.82847  -5487560.60545  22599468.4454                   22599466.4264
   4227075.72746   3290548.10543  24639286.4774                   24639286.1804
   3335543.79348   2601401.16846  20595862.8284                   20595860.3364
    516491.68848    412439.55546  21112418.0944                   21112413.5984
   8654497.52747   6730333.18445  22078269.6954                   22078265.9654
  -7277768.12547  -5663786.44944  23233721.7664                   23233719.8554
  -5683083.37947  -4421429.80944  23373646.7974                   23373644.2734
 11  8 15 17 25 30.0000000  0 10G03G06G07G08G10G13G19G23G11G28
   7824247.26646   6086635.13344  22551119.9774                   22551118.6804
   9253588.82846   7194985.16042  24565403.5704                   24565402.0634
  -5178543.35948  -4018233.23046  21025334.5004                   21025331.5944
  -7162061.52047  -5565753.60545  22580372.8914                   22580370.8714
   4251351.16846   3309463.95343  24643905.2974                   24643905.7154
   3366311.03548   2625375.61346  20601717.5004                   20601715.0354
    522504.68848    417124.98046  21113562.4924                   21113557.9734
   8726261.53947   6786253.10945  22091926.1174                   22091922.7114
  -7382084.20347  -5745071.60944  23213870.4534                   23213869.7814
  -5762000.65647  -4482923.76644  23358629.1884                   23358627.3794
 11  8 15 17 26  0.0000000  0 10G03G06G07G08G10G13G19G23G11G28
   7889703.19547   6137639.66044  22563576.0234                   22563574.5904
   9324181.52046   7249992.34842  24578836.3284                   24578835.2464
  -5252063.53548  -4075521.68046  21011344.0704                   21011341.0784
  -7262423.43447  -5643957.68045  22561274.6024                   22561273.0514
   4275804.73046   3328518.58243  24648558.7504                   24648560.0474
   3397591.05948   2649749.60946  20607670.0864                   20607667.5274
    529090.67648    422256.89846  21114815.4694                   21114810.9264
   8798303.13747   6842389.32845  22105634.7114                   22105630.9494
  -7486282.89547  -5826265.30944  23194042.0164                   23194040.7194
  -5840722.12147  -4544265.14544  23343648.7344                   23343647.0394
 11  8 15 17 26 30.0000000  0 10G03G06G07G08G10G13G19G23G11G28
   7955462.43447   6188880.56644  22576089.4224                   22576088.3204
   9394929.17646   7305120.33642  24592299.7734                   24592298.2894
  -5325426.14548  -4132687.35246  20997383.8284                   20997380.6564
  -7362799.66047  -5722172.89845  22542173.6024                   22542172.2734
   4300432.87946   3347709.26643  24653245.3754                   24653246.7814
   3429380.67648   2674520.69946  20613719.5474                   20613716.9494
    536246.88348    427833.14546  21116177.6334                   21116173.1684
   8870618.27748   6898738.70745  22119396.6804                   22119392.7464
  -7590362.45946  -5907366.16444  23174236.6414                   23174234.7974
  -5919249.41447  -4605455.21144  23328705.7504                   23328703.1604
 11  8 15 17 27  0.0000000  0 10G03G06G07G08G10G13G19G23G11G28
   8021520.82847   6240354.59044  22588659.8754                   22588658.4614
   9465827.79346   7360365.96943  24605791.4774                   24605790.2304
  -5398630.72348  -4189729.87946  20983453.4924                   20983450.4454
  -7463190.42647  -5800399.46145  22523069.7504                   22523067.6644
   4325230.76246   3367032.22743  24657964.3984                   24657964.8554
   3461676.59048   2699686.31346  20619865.2194                   20619862.4614
    543970.37148    433851.42646  21117646.9534                   21117642.9654
   8943202.52047   6955297.75845  22133208.1174                   22133205.0124
  -7694321.17647  -5988372.93744  23154453.8134                   23154451.9774
  -5997584.59847  -4666495.62144  23313798.4534                   23313796.8134
 11  8 15 17 27 30.0000000  0 10G03G06G07G08G10G13G19G23G11G28
   8087878.50047   6292061.81644  22601287.3524                   22601285.9774
   9536878.24246   7415729.89843  24619311.3444                   24619311.3204
  -5471672.29748  -4246645.38346  20969553.6954                   20969551.0164
  -7563591.32447  -5878633.93745  22503964.2034                   22503962.5984
   4350199.22747   3386488.06643  24662716.7114                   24662715.7034
   3494480.52348   2725247.77346  20626107.6414                   20626105.3364
    552263.05548    440313.24246  21119225.2344                   21119220.5354
   9016056.52347   7012066.99245  22147072.7114                   22147069.5634
  -7798152.75447  -6069280.59044  23134695.5634                   23134692.9454
  -6075724.86747  -4727384.12144  23298928.9844                   23298926.8324
 11  8 15 17 28  0.0000000  0 10G03G06G07G08G10G13G19G23G11G28
   8154530.60247   6343998.47344  22613971.1954                   22613969.1884
   9608076.31646   7471208.81343  24632860.3834                   24632859.9734
  -5544550.96148  -4303433.97346  20955685.7504                   20955682.5514
  -7664002.96147  -5956876.75445  22484856.5084                   22484855.1134
   4375333.57846   3406073.17643  24667498.4224                   24667499.5634
   3527788.48848   2751201.99646  20632445.9144                   20632443.3054
    561121.58248    447215.96146  21120910.8444                   21120906.4024
   9089175.36747   7069042.62545  22160986.3594                   22160983.1564
  -7901856.19146  -6150088.43044  23114960.7034                   23114958.0474
  -6153672.54347  -4788122.56244  23284096.3524                   23284094.1884
 11  8 15 17 28 30.0000000  0 10G03G06G07G08G10G13G19G23G11G28
   8221476.31647   6396163.91044  22626710.6334                   22626708.8594
   9679421.30546   7526802.25443  24646436.8054                   24646436.7894
  -5617263.12147  -4360092.80546  20941849.3284                   20941846.1414
  -7764422.17647  -6035125.49645  22465747.8444                   22465745.2544
   4400632.95746   3425786.89143  24672313.3134                   24672313.7624
   3561600.33248   2777548.84446  20638880.1024                   20638877.7274
    570546.27048    454559.85546  21122704.4224                   21122700.2074
   9162558.35547   7126224.07445  22174950.7974                   22174947.5864
  -8005426.62946  -6230792.62944  23095252.5084                   23095249.8404
  -6231426.49247  -4848710.04344  23269300.5004                   23269298.0124
 11  8 15 17 29  0.0000000  0 10G03G06G07G08G10G13G19G23G11G28
   8288712.35947   6448555.57844  22639505.1174                   22639502.6684
   9750910.35946   7582507.92643  24660041.2114                   24660040.9104
  -5689807.36748  -4416620.80146  20928044.3674                   20928041.5274
  -7864848.22347  -6113379.55145  22446636.9224                   22446634.7814
   4426094.24646   3445626.80543  24677158.3984                   24677159.5634
   3595913.96148   2804286.69146  20645409.9614                   20645407.1684
    580535.46548    462343.62146  21124605.2344                   21124600.9104
   9236202.32847   7183608.87945  22188964.6954                   22188961.0784
  -8108861.05947  -6311390.86344  23075569.5474                   23075567.3754
  -6308987.51247  -4909147.19944  23254541.5704                   23254538.9384
 11  8 15 17 29 30.0000000  0 10G03G06G07G08G10G13G19G23G11G28
   8356234.77347   6501170.38744  22652354.3524                   22652352.4264
   9822540.03146   7638323.22743  24673672.0474                   24673671.0514
  -5762183.16848  -4473017.53546  20914271.7734                   20914268.7664
  -7965281.03547  -6191638.88345  22427525.2894                   22427523.5554
   4451713.46946   3465589.75843  24682033.8984                   24682034.5354
   3630726.39848   2831413.23046  20652034.3054                   20652032.1454
    591086.32848    470565.04746  21126612.8524                   21126608.7154
   9310103.18447   7241193.87545  22203027.5944                   22203024.3324
  -8212157.56647  -6391881.60244  23055913.3284                   23055910.5554
  -6386356.99647  -4969435.09044  23239817.5394                   23239816.1484
 11  8 15 17 30  0.0000000  0 10G03G06G07G08G10G13G19G23G11G28
   8424043.68446   6554008.42644  22665257.5004                   22665256.3914
   9894310.71946   7694248.39843  24687328.5314                   24687328.5084
  -5834385.51648  -4529279.11746  20900531.9694                   20900529.0664
  -8065716.35947  -6269900.15245  22408413.1804                   22408411.5554
   4477490.98846   3485676.08243  24686938.9064                   24686939.1764
   3666038.51248   2858929.12546  20658754.4304                   20658751.5554
    602200.41448    479225.35946  21128728.0474                   21128723.7734
   9384260.73847   7298978.87145  22217139.9614                   22217136.2544
  -8315310.18747  -6472260.26244  23036283.6254                   23036281.5044
  -6463532.86347  -5029572.12144  23225132.0004                   23225130.4454
 11  8 15 17 30 30.0000000  0 10G03G06G07G08G10G13G19G23G11G28
   8492135.64547   6607067.00844  22678215.0634                   22678213.8954
   9966219.67246   7750281.27743  24701012.8674                   24701012.5234
  -5906413.56648  -4585404.87946  20886825.5234                   20886822.6914
  -8166152.97347  -6348162.45345  22389300.4774                   22389298.4454
   4503423.52746   3505883.18043  24691874.2664                   24691874.2074
   3701848.28548   2886832.79746  20665568.7664                   20665566.0084
    613875.84848    488323.08246  21130949.5474                   21130945.3794
   9458672.28147   7356961.80945  22231300.1174                   22231296.4224
  -8418316.27047  -6552524.71544  23016682.0864                   23016680.2934
  -6540515.90247  -5089558.89844  23210482.9304                   23210481.1334
 11  8 15 17 31  0.0000000  0 10G03G06G07G08G10G13G19G23G11G28
   8560506.34046   6660342.78144  22691226.2814                   22691225.1334
  10038262.53546   7806418.47343  24714721.6884                   24714722.2344
  -5978266.98848  -4641394.55946  20873152.1954                   20873149.5204
  -8266591.52747  -6426426.24245  22370187.4064                   22370185.8134
   4529506.53946   3526207.52043  24696837.6024                   24696837.7734
   3738151.54348   2915121.00446  20672477.1024                   20672474.8444
    626108.94148    497855.34846  21133277.6334                   21133273.6094
   9533332.99647   7415138.87545  22245507.4924                   22245503.8634
  -8521174.55147  -6632674.00444  22997108.4384                   22997107.4694
  -6617308.46547  -5149397.25044  23195869.3984                   23195867.4964
 11  8 15 17 31 30.0000000  0 10G03G06G07G08G10G13G19G23G11G28
   8629154.21546   6713834.57044  22704288.9144                   22704288.1214
  10110438.78146   7862659.67242  24728456.7894                   24728456.2734
  -6049942.50848  -4697245.60946  20859512.9844                   20859510.1914
  -8367029.30947  -6504689.44145  22351074.8444                   22351073.0784
   4555738.88746   3546648.23443  24701829.2734                   24701829.9494
   3774947.95348   2943793.50046  20679478.7974                   20679476.5084
    638900.09848    507822.46946  21135711.5394                   21135707.7034
   9608241.64147   7473509.15645  22259762.2274                   22259759.3134
  -8623880.30547  -6712704.44944  22977564.6174                   22977562.9844
  -6693909.48047  -5209086.36744  23181292.6954                   23181290.9304
 11  8 15 17 32  0.0000000  0 10G03G06G07G08G10G13G19G23G11G28
   8698078.64846   6767541.84444  22717405.3204                   22717404.1454
  10182747.49246   7919004.04342  24742216.5634                   24742215.7934
  -6121436.52048  -4752955.22746  20845908.0004                   20845905.2894
  -8467463.08647  -6582949.52345  22331963.5234                   22331961.0124
   4582119.83646   3567204.73043  24706849.3834                   24706850.2304
   3812237.14148   2972849.96546  20686575.2274                   20686572.5084
    652249.51248    518224.60546  21138252.1644                   21138247.7854
   9683397.41447   7532071.98445  22274063.9064                   22274060.5864
  -8726428.61747  -6792612.19144  22958050.0084                   22958048.5204
  -6770317.62947  -5268625.15644  23166752.9844                   23166750.7464
 11  8 15 17 32 30.0000000  0 10G03G06G07G08G10G13G19G23G11G28
   8767273.98847   6821460.23044  22730572.7034                   22730571.3874
  10255183.88746   7975447.97742  24756001.9454                   24755998.6844
  -6192749.62948  -4808523.89546  20832337.7734                   20832334.6484
  -8567894.12947  -6661207.46545  22312851.6094                   22312849.5004
   4608643.98446   3587872.81343  24711896.9384                   24711897.4344
   3850014.96548   3002287.19546  20693763.7194                   20693761.2304
    666152.98848    529058.46546  21140897.7504                   21140893.6054
   9758794.67647   7590822.99245  22288411.5314                   22288408.5984
  -8828818.98447  -6872396.85544  22938565.2814                   22938564.1914
  -6846536.19547  -5328016.25444  23152249.1024                   23152246.9384
 11  8 15 17 33  0.0000000  0 10G03G06G07G08G10G13G19G23G11G28
   8836739.12147   6875588.83244  22743791.5944                   22743789.8714
  10327747.23446   8031990.84843  24769809.4924                   24769808.5274
  -6263878.58248  -4863949.05146  20818802.2814                   20818799.0204
  -8668319.32847  -6739460.85245  22293741.2114                   22293739.0554
   4635310.28146   3608651.64843  24716972.2734                   24716971.8404
   3888280.80948   3032104.70346  20701045.8204                   20701043.5044
    680610.48447    540324.04346  21143648.9844                   21143644.7074
   9834432.57447   7649761.50845  22302804.8674                   22302802.5984
  -8931046.56647  -6952054.68044  22919111.7194                   22919111.3284
  -6922563.74647  -5387258.48044  23137781.1334                   23137779.4384
 11  8 15 17 33 30.0000000  0  9G03G07G08G10G13G19G23G11G28
   8906469.75047   6929924.31344  22757060.7034                   22757059.2814
  -6334822.77048  -4919230.23846  20805302.0314                   20805299.4454
  -8768738.79347  -6817709.77345  22274631.9844                   22274629.7504
   4662114.16446   3629537.75443  24722071.8984                   24722073.0234
   3927031.32048   3062299.87146  20708419.6174                   20708416.9064
    695619.05148    552019.03146  21146505.0394                   21146500.8554
   9910306.74247   7708884.12545  22317243.1414                   22317240.5234
  -9033109.87146  -7031584.49244  22899690.7114                   22899689.4534
  -6998402.43747  -5446353.52744  23123349.2504                   23123346.8284
 11  8 15 17 34  0.0000000  0  9G03G07G08G10G13G19G23G11G28
   8976464.75046   6984465.82044  22770379.7274                   22770378.5864
  -6405578.81248  -4974364.81646  20791837.3524                   20791834.7774
  -8869149.32047  -6895951.74245  22255524.6884                   22255522.7894
   4689054.97346   3650530.52343  24727198.0394                   24727198.7344
   3966266.21948   3092872.48446  20715886.1644                   20715883.5474
    711178.72747    564143.43846  21149465.7424                   21149461.5124
   9986415.90647   7768189.85945  22331726.7194                   22331723.0394
  -9135003.75846  -7110982.30944  22880300.8834                   22880299.5824
  -7074051.09047  -5505300.52344  23108953.9384                   23108952.3094
 11  8 15 17 34 30.0000000  0  9G03G07G08G10G13G19G23G11G28
   9046730.89146   7039218.58644  22783750.9924                   22783750.1994
  -6476135.46548  -5029344.01646  20778410.9224                   20778408.0434
  -8969540.04747  -6974178.27045  22236420.8984                   22236418.6914
   4716139.14146   3671634.99243  24732353.1954                   24732353.0594
   4005992.53948   3123828.02046  20723445.7344                   20723443.0044
    727296.89848    576703.05146  21152533.1884                   21152528.6454
  10062766.75447   7827683.92645  22346255.8364                   22346252.6484
  -9236715.89146  -7190238.48844  22860945.7894                   22860944.4804
  -7149501.05547  -5564092.66844  23094596.5004                   23094594.9494
 11  8 15 17 35  0.0000000  0  9G03G07G08G10G13G19G23G11G28
   9117270.39147   7094184.34844  22797174.9924                   22797173.8594
  -6546485.20748  -5084162.00046  20765023.8054                   20765020.9144
  -9069904.16847  -7052384.04745  22217322.2424                   22217320.8204
   4743369.72746   3692853.52343  24737534.6644                   24737535.2544
   4046213.92648   3155169.32446  20731099.4534                   20731096.6214
    743977.55147    589700.94546  21155707.1484                   21155703.4494
  10139361.87947   7887368.30945  22360831.4694                   22360828.1024
  -9338237.67247  -7269346.33244  22841626.6174                   22841624.6334
  -7224747.19947  -5622725.99244  23080277.5474                   23080275.7114
 11  8 15 17 35 30.0000000  0  9G03G07G08G10G13G19G23G11G28
   9188077.81347   7149358.85944  22810648.9844                   22810647.5944
  -6616629.54348  -5138819.92246  20751676.0474                   20751672.5314
  -9170243.19147  -7130570.28545  22198228.9614                   22198226.3984
   4770740.75046   3714181.51243  24742743.2114                   24742743.9774
   4086925.11748   3186892.28546  20738846.4144                   20738844.2304
    761216.03947    603133.52346  21158987.6724                   21158983.4304
  10216195.55947   7947238.62145  22375452.3284                   22375449.4104
  -9439568.93046  -7348305.74244  22822344.0784                   22822341.7704
  -7299793.10247  -5681203.27344  23065996.9924                   23065995.7344
 11  8 15 17 36  0.0000000  0  9G03G07G08G10G13G19G23G11G28
   9259143.85547   7204734.90244  22824173.0084                   22824171.5124
  -6686572.79747  -5193321.16846  20738365.8754                   20738363.3404
  -9270562.00047  -7208740.78145  22179138.3914                   22179136.3954
   4798243.25046   3735611.95343  24747977.2734                   24747977.5044
   4128117.60948   3218990.29346  20746685.1024                   20746682.6764
    779004.09047    616994.32846  21162372.7504                   21162368.4024
  10293258.63347   8007287.64545  22390116.8594                   22390114.3164
  -9540712.98847  -7427119.26644  22803097.1414                   22803094.4064
  -7374645.82447  -5739530.03144  23051753.0314                   23051750.0594
 11  8 15 17 36 30.0000000  0  9G03G07G08G10G13G19G23G11G28
   9330463.69947   7260308.72344  22837744.8984                   22837743.6644
  -6756315.11348  -5247665.82446  20725094.4614                   20725091.2704
  -9370861.12547  -7286895.91845  22160052.2114                   22160050.4184
   4825872.49246   3757141.17243  24753234.7114                   24753236.0354
   4169787.62148   3251460.38346  20754614.6094                   20754612.3134
    797338.19547    631280.62546  21165861.6094                   21165857.0984
  10370546.20747   8067511.60945  22404824.7114                   22404821.2774
  -9641668.63747  -7505785.98444  22783885.9384                   22783883.5594
  -7449307.68047  -5797708.05544  23037545.1334                   23037543.3874
 11  8 15 17 37  0.0000000  0  9G03G07G08G10G13G19G23G11G28
   9402032.79747   7316076.76244  22851363.7424                   22851362.6254
  -6825856.15248  -5301853.66446  20711861.3524                   20711858.6804
  -9471140.73847  -7365035.86345  22140969.9384                   22140967.4064
   4853623.79346   3778765.52743  24758515.2814                   24758515.9654
   4211931.10248   3284299.41846  20762634.4064                   20762632.2854
    816214.53947    645989.43446  21169453.3984                   21169448.4104
  10448053.58647   8127906.86344  22419573.7504                   22419571.1414
  -9742434.62947  -7584304.91844  22764710.8834                   22764707.9344
  -7523781.10947  -5855739.25444  23023373.3524                   23023370.4454
 11  8 15 17 37 30.0000000  0  9G03G07G08G10G13G19G23G11G28
   9473847.44547   7372036.14544  22865029.9304                   22865029.0124
  -6895194.99647  -5355883.94146  20698666.6334                   20698663.8914
  -9571400.60247  -7443160.44545  22121890.9774                   22121888.3634
   4881493.94546   3800482.43042  24763819.1884                   24763819.4614
   4254545.04748   3317505.04346  20770743.8754                   20770741.3954
    835630.76647    661118.93846  21173148.4694                   21173144.1254
  10525777.44947   8188470.80545  22434364.3364                   22434361.4184
  -9843008.39847  -7662674.07044  22745572.5314                   22745570.0554
  -7598067.61347  -5913624.78944  23009236.9774                   23009234.1684
 11  8 15 17 38  0.0000000  0  9G03G07G08G10G13G19G23G11G28
  11121320.02047   8655780.95344  23178533.5554                   23178532.1414
  -5388910.06247  -4182155.42646  20985302.9614                   20985300.6024
  -8096218.77747  -6293668.10545  22402608.2814                   22402605.5514
   6484896.39546   5049886.81343  25068937.3834                   25068936.6884
   5873042.79748   4578672.08246  21078733.6644                   21078731.3164
   2431001.23447   1904264.73446  21476737.5164                   21476733.2704
  12179129.19147   9476796.70745  22748987.0634                   22748983.9534
  -8367966.48447  -6513290.71944  23026263.0474                   23026261.2504
  -6096748.31247  -4743765.55544  23294928.6334                   23294926.6564
 11  8 15 17 38 30.0000000  0  9G03G24G07G08G13G19G23G11G28
  11193609.95347   8712110.70343  23192289.7194                   23192288.6914
   4596939.27756   3593989.15653  24510064.0784                   24510067.8984
  -5457847.39548  -4235872.83646  20972184.8984                   20972181.6024
  -8196442.36347  -6371764.39845  22383536.1174                   22383533.7774
   5916582.76248   4612599.27346  21087018.8364                   21087016.5044
   2451483.37547   1920224.81346  21480634.7194                   21480630.5904
  12257269.02747   9537684.78145  22763856.3134                   22763853.4384
  -8468154.91447  -6591359.59444  23007197.6954                   23007195.6724
  -6170670.95347  -4801367.58244  23280861.8914                   23280859.3284
 11  8 15 17 39  0.0000000  0  9G03G24G07G08G13G19G23G11G28
  11266124.56646   8768615.52743  23206088.1024                   23206087.2154
   4495430.11746   3514891.14143  24490747.6564                   24490751.0274
  -5526589.56648  -4289438.18046  20959103.9924                   20959100.7504
  -8296654.13747  -6449851.49245  22364467.1334                   22364465.2304
   5960573.52348   4646877.74246  21095390.3834                   21095388.0354
   2472487.06647   1936591.30946  21484631.7194                   21484627.2974
  12335603.71547   9598724.66845  22778763.2194                   22778760.2234
  -8568154.61746  -6669281.41844  22988168.3134                   22988167.3714
  -6244421.39847  -4858835.41444  23266826.9924                   23266825.0704
 11  8 15 17 39 30.0000000  0  9G03G24G07G08G13G19G23G11G28
  11338862.18846   8825294.11343  23219929.7584                   23219927.6294
   4393836.86746   3435727.66443  24471415.0234                   24471418.5554
  -5595133.59447  -4342849.13346  20946060.2034                   20946057.0784
  -8396851.44147  -6527927.29745  22345399.6724                   22345398.0084
   6005014.21548   4681506.80146  21103847.0234                   21103844.9774
   2494011.59047   1953363.65646  21488727.5234                   21488723.9844
  12414131.94947   9659915.37945  22793706.7194                   22793704.0704
  -8667961.19146  -6747052.73844  22969175.5004                   22969174.0984
  -6317998.75447  -4916168.39544  23252825.2584                   23252823.5124
 11  8 15 17 40  0.0000000  0  9G03G24G07G08G13G19G23G11G28
  11411830.16046   8882152.25843  23233814.9534                   23233813.6524
   4292172.88746   3356509.06343  24452068.7814                   24452073.1644
  -5663467.02748  -4396095.96146  20933056.8054                   20933053.9924
  -8497022.56647  -6605982.71945  22326337.7584                   22326335.8714
   6049912.89848   4716492.75446  21112391.1644                   21112388.5204
   2516065.37948   1970548.40646  21492924.4224                   21492920.4104
  12492861.18847   9721262.71544  22808688.0864                   22808685.0474
  -8767561.29747  -6824663.14144  22950222.3594                   22950221.0744
  -6391393.28547  -4973358.91044  23238859.2814                   23238857.3754
 11  8 15 17 40 30.0000000  0  9G03G24G07G08G13G19G23G11G28
  11485031.19146   8939191.92643  23247745.2424                   23247743.9304
   4190445.90646   3277241.38743  24432710.5394                   24432714.3324
  -5731583.04347  -4449173.39146  20920094.7034                   20920092.3594
  -8597160.70747  -6684012.43445  22307282.4694                   22307279.5514
   6095272.37948   4751837.76246  21121022.3834                   21121020.7734
   2538651.38747   1988147.88746  21497222.5394                   21497218.4924
  12571793.39847   9782768.20344  22823708.9694                   22823705.5084
  -8866946.79746  -6902106.30944  22931309.1884                   22931308.3834
  -6464600.64147  -5030403.56644  23224928.2974                   23224926.4574
 11  8 15 17 41  0.0000000  0  9G03G24G07G08G13G19G23G11G28
  11558458.99247   8996408.34444  23261718.2344                   23261716.8914
   4088655.34046   3197924.14143  24413339.7034                   24413344.1804
  -5799483.40247  -4502082.77046  20907173.6644                   20907170.6954
  -8697267.61347  -6762017.81245  22288232.5394                   22288230.4494
   6141087.02048   4787537.43046  21129740.9064                   21129738.5434
   2561764.45347   2006158.05546  21501620.8834                   21501616.8594
  12650922.54747   9844427.17645  22838766.1484                   22838763.9924
  -8966118.00446  -6979382.53544  22912438.5314                   22912437.0434
  -6537624.88747  -5087305.54744  23211031.9844                   23211030.7074
 11  8 15 17 41 30.0000000  0  9G03G24G07G08G13G19G23G11G28
  11632109.53947   9053798.34044  23275733.8594                   23275733.0664
   3986803.13746   3118558.86743  24393958.9064                   24393961.9534
  -5867167.05547  -4554823.27046  20894293.7734                   20894290.6884
  -8797342.63347  -6839998.34045  22269189.2424                   22269187.1054
   6187353.56648   4823589.23846  21138545.3444                   21138542.7814
   2585401.65247   2024576.64846  21506119.1334                   21506114.6884
  12730244.62947   9906236.43445  22853860.9924                   22853857.8914
  -9065072.60946  -7056489.94944  22893607.7424                   22893606.9384
  -6610467.64847  -5144066.10544  23197170.6254                   23197169.0164
 11  8 15 17 42  0.0000000  0  9G03G24G07G08G13G19G23G11G28
  11705980.06347   9111359.72344  23289790.8444                   23289790.1214
   3884891.96546   3039147.66043  24374565.4384                   24374569.5234
  -5934631.99248  -4607393.36346  20881455.9844                   20881452.9184
  -8897384.55147  -6917953.07845  22250151.4774                   22250150.3634
   6234069.30948   4859991.05946  21147435.2424                   21147432.7234
   2609560.80547   2043401.94946  21510716.0084                   21510711.7154
  12809756.60947   9968193.68844  22868991.6804                   22868989.1174
  -9163807.62947  -7133426.27044  22874818.9224                   22874817.3364
  -6683129.76647  -5200685.89844  23183343.1644                   23183341.8054
 11  8 15 17 42 30.0000000  0  9G03G24G07G08G13G19G23G11G28
  11780065.39147   9169088.48044  23303889.1024                   23303888.3094
   3782922.68846   2959691.18843  24355161.9534                   24355164.5354
  -6001878.54348  -4659793.27746  20868659.1954                   20868656.6954
  -8997393.73847  -6995882.30145  22231120.6484                   22231118.9144
   6281229.99248   4896739.59046  21156409.3204                   21156407.0664
   2634237.91447   2062630.84846  21515411.7584                   21515407.8594
  12889453.85947  10030295.29744  22884157.2034                   22884155.2424
  -9262322.14147  -7210190.79344  22856072.4534                   22856070.9104
  -6755613.77047  -5257166.90644  23169550.3364                   23169548.6174
 11  8 15 17 43  0.0000000  0  9G03G24G07G08G13G19G23G11G28
  11854366.30947   9226985.23044  23318028.6254                   23318027.5474
   3680901.62146   2880194.31343  24335747.1174                   24335751.6294
  -6068901.42248  -4712018.91046  20855905.2114                   20855902.7424
  -9097364.81247  -7073781.84845  22212096.7034                   22212093.9384
   6328836.82048   4933835.77046  21165468.4924                   21165466.2544
   2659434.56348   2082264.58646  21520207.0394                   21520202.8134
  12969336.93447  10092541.72344  22899359.1804                   22899356.2584
  -9360609.48047  -7286778.25045  22837368.8834                   22837367.8484
  -6827917.00447  -5313507.06645  23155791.3594                   23155789.5354
 11  8 15 17 43 30.0000000  0  9G03G24G07G08G13G19G23G11G28
  11928880.14847   9285047.89144  23332207.2504                   23332207.0744
   3578831.03946   2800658.88343  24316323.3754                   24316327.8754
  -6135698.87948  -4764068.87946  20843194.0784                   20843191.1254
  -9197296.61747  -7151650.77745  22193080.1414                   22193078.4534
   6376887.14147   4971277.53146  21174612.2034                   21174609.9494
   2685148.17648   2102301.14846  21525100.2114                   21525095.8444
  13049402.64547  10154930.43444  22914595.6954                   22914592.9224
  -9458667.05947  -7363186.73044  22818709.2814                   22818707.1644
  -6900040.38347  -5369707.07445  23142067.0704                   23142065.4224
 11  8 15 17 44  0.0000000  0  9G03G24G07G08G13G19G23G11G28
  12003601.84846   9343272.52744  23346426.3054                   23346425.9614
   3476712.26246   2721085.91043  24296891.6724                   24296893.8404
  -6202270.87148  -4815943.16046  20830526.0474                   20830522.4534
  -9297189.80147  -7229489.59845  22174071.1884                   22174069.2464
   6425376.37948   5009061.30146  21183839.4844                   21183837.1334
   2711374.78548   2122737.45346  21530090.6804                   21530087.0594
  13129646.25847  10217457.80944  22929865.3834                   22929861.3524
  -9556493.48047  -7439415.06244  22800093.4534                   22800091.5744
  -6971986.53947  -5425769.01644  23128375.8054                   23128373.0204
 11  8 15 17 44 30.0000000  0  9G03G24G07G08G13G19G23G11G28
  12078530.50846   9401658.41043  23360684.3134                   23360684.3594
   3374549.81346   2641478.88743  24277450.7894                   24277453.6174
  -6268613.87148  -4867639.01646  20817901.0704                   20817898.4064
  -9397040.60547  -7307295.41845  22155070.4694                   22155068.3874
   6474304.07847   5047186.73846  21193150.1174                   21193148.1564
   2738114.28948   2143573.41046  21535178.9924                   21535174.7544
  13210066.39147  10280122.71544  22945169.2274                   22945166.4454
  -9654083.96947  -7515459.57444  22781522.6804                   22781519.9224
  -7043754.57847  -5481692.12945  23114718.6954                   23114717.3094
 11  8 15 17 45  0.0000000  0  9G03G24G07G08G13G19G23G11G28
  12153664.06646   9460203.92243  23374982.4534                   23374981.4774
   3272346.96946   2561840.35243  24258001.5634                   24258004.7234
  -6334725.35948  -4919154.45746  20805320.5864                   20805317.7114
  -9496847.44547  -7385066.95745  22136077.4384                   22136075.7734
   6523668.66448   5085652.59046  21202544.0314                   21202541.7854
   2765364.92648   2164807.65246  21540364.5314                   21540360.3284
  13290660.91047  10342923.50844  22960505.2814                   22960503.1454
  -9751435.07047  -7591317.54344  22762997.6484                   22762995.1024
  -7115344.28547  -5537476.31644  23101095.6334                   23101093.7624
 11  8 15 17 45 30.0000000  0  9G03G24G07G08G13G19G23G11G28
  12229000.40646   9518907.48843  23389318.0474                   23389317.5124
   3170107.38746   2482173.23043  24238545.6484                   24238549.0394
  -6400602.73448  -4970487.48446  20792784.3754                   20792781.3364
  -9596607.43447  -7462802.01245  22117093.9924                   22117091.8714
   6573467.73048   5124457.00446  21212020.4304                   21212017.8914
   2793125.30948   2186439.10246  21545647.5234                   21545643.0474
  13371427.69147  10405858.51644  22975874.9694                   22975872.0234
  -9848542.34847  -7666985.52344  22744517.8204                   22744515.9654
  -7186755.74247  -5593121.59445  23087506.8364                   23087504.6524
 11  8 15 17 46  0.0000000  0  9G03G24G07G08G13G19G23G11G28
  12304534.35947   9577765.09443  23403692.1484                   23403690.9694
   3067831.16446   2402477.59443  24219082.8674                   24219087.3324
  -6466246.79348  -5021638.70346  20780292.8204                   20780290.3444
  -9696322.02747  -7540501.68445  22098118.5084                   22098116.5084
   6623696.41048   5163596.18046  21221579.0944                   21221576.7074
   2821390.74647   2208464.09846  21551025.8594                   21551021.6024
  13452361.10947  10468923.36744  22991276.0314                   22991274.0234
  -9945405.98447  -7742463.65644  22726085.2194                   22726082.9144
  -7257992.49247  -5648630.70745  23073950.5554                   23073948.1524
 11  8 15 17 46 30.0000000  0  9G03G24G07G08G13G19G23G11G28
  12380264.97347   9636775.93043  23418103.7814                   23418102.1024
   2965523.44545   2322757.37942  24199614.5084                   24199617.5664
  -6531653.36748  -5072604.86346  20767846.4454                   20767843.5864
  -9795986.56647  -7618162.34445  22079153.0704                   22079151.4694
   6674354.40648   5203069.90246  21231218.6254                   21231216.3054
   2850161.12947   2230882.55946  21556501.0634                   21556496.7464
  13533460.53147  10532117.58644  23006709.3284                   23006706.7384
 -10042020.75847  -7817747.86744  22707700.5944                   22707697.2894
  -7329052.92647  -5704002.43045  23060428.1484                   23060426.7424
 11  8 15 17 47  0.0000000  0  9G03G24G07G08G13G19G23G11G28
  12456190.49647   9695938.62543  23432551.2114                   23432550.6454
   2863188.26246   2243015.83643  24180141.0394                   24180144.2504
  -6596819.58248  -5123383.73046  20755445.7344                   20755442.9654
  -9895598.94947  -7695782.37145  22060197.4144                   22060195.8954
   6725440.31648   5242877.04746  21240940.0554                   21240937.7424
   2879435.14847   2253693.46546  21562071.7274                   21562067.3204
  13614724.00047  10595439.60944  23022173.3054                   23022170.7584
 -10138382.57847  -7892834.99244  22689362.6724                   22689360.9614
  -7399936.79347  -5759236.57045  23046938.9774                   23046937.2814
 11  8 15 17 47 30.0000000  0  9G03G24G07G08G13G19G23G11G28
  12532308.39147   9755251.22343  23447036.1024                   23447036.3324
   2760828.65246   2163255.20743  24160663.1724                   24160665.9304
  -6661743.42248  -5173973.73046  20743090.8754                   20743088.1094
  -9995157.56647  -7773360.52045  22041252.4144                   22041250.7894
   6776951.83647   5283015.83646  21250742.8914                   21250740.2194
   2909211.16447   2276895.52746  21567738.5394                   21567734.0004
  13696148.90647  10658887.42244  23037667.9844                   23037665.9654
 -10234488.18047  -7967722.43044  22671074.2974                   22671072.3164
  -7470644.80947  -5814333.69545  23033484.1644                   23033482.5044
 11  8 15 17 48  0.0000000  0  9G03G24G07G08G13G19G23G11G28
  12608615.19547   9814711.00044  23461556.9384                   23461557.1094
   2658446.49646   2083477.04343  24141179.2974                   24141182.2384
  -6726423.77748  -5224374.01246  20730783.0004                   20730779.7734
 -10094661.33647  -7850895.91845  22022317.2424                   22022315.3164
   6828885.57048   5323483.62146  21260625.2584                   21260623.0164
   2939485.85547   2300486.17246  21573499.0784                   21573494.9654
  13777731.39847  10722458.03944  23053192.7274                   23053190.4264
 -10330335.27047  -8042408.45744  22652835.5394                   22652833.4344
  -7541178.32447  -5869294.83644  23020061.7974                   23020059.8794
 11  8 15 17 48 30.0000000  0  9G03G24G07G08G13G19G23G11G28
  12685108.61747   9874316.18844  23476113.6804                   23476112.9494
   2556045.43446   2003684.17243  24121693.3594                   24121696.6024
  -6790857.87148  -5274582.40246  20718521.3444                   20718518.6454
 -10194107.71147  -7928386.58245  22003393.3524                   22003391.4414
   6881239.80548   5364279.08246  21270587.8834                   21270585.4734
   2970257.75848   2324464.25446  21579354.6254                   21579350.9024
  13859469.37547  10786149.83244  23068746.3754                   23068745.0274
 -10425919.96147  -8116890.00444  22634646.2584                   22634645.0634
  -7611537.47747  -5924120.12144  23006673.1094                   23006670.0514
 11  8 15 17 49  0.0000000  0  9G03G24G07G08G13G19G23G11G28
  12761784.22747   9934063.34844  23490704.8284                   23490703.6884
   2453626.67646   1923877.48443  24102203.9384                   24102207.0354
  -6855045.76648  -5324598.94146  20706306.8364                   20706303.9494
 -10293496.83647  -8005832.63745  21984479.9224                   21984478.3754
   6934010.00448   5405398.64546  21280630.0784                   21280627.9454
   3001522.94547   2348826.71146  21585304.2584                   21585300.2544
  13941358.17247  10849959.13744  23084330.2034                   23084327.8484
 -10521241.09447  -8191166.17644  22616507.9924                   22616506.1054
  -7681724.70747  -5978811.44944  22993316.9534                   22993314.5124
 11  8 15 17 49 30.0000000  0  9G03G24G07G08G13G19G23G11G28
  12838642.01647   9993952.45744  23505330.6804                   23505329.0704
   2351195.59846   1844061.18443  24082711.7194                   24082714.1024
  -6918983.08648  -5374420.23846  20694140.0634                   20694137.1844
 -10392824.52047  -8083230.82845  21965578.9454                   21965576.7894
   6987195.60247   5446841.91846  21290750.8054                   21290748.4184
   3033281.37548   2373573.50446  21591347.8284                   21591343.1764
  14023397.31346  10913885.55944  23099941.1954                   23099939.0664
 -10616293.15247  -8265232.68045  22598419.8284                   22598418.2384
  -7751738.47747  -6033367.59444  22979993.2424                   22979991.0314
 11  8 15 17 50  0.0000000  0  9G03G24G07G08G13G19G23G11G28
  12915677.69147  10053980.21544  23519989.1024                   23519988.1914
   2248754.05546   1764236.81643  24063217.4454                   24063220.3984
  -6982668.84848  -5424045.50846  20682020.9694                   20682018.0124
 -10492090.16047  -8160580.68445  21946689.0944                   21946687.0004
   7040793.44547   5488606.41846  21300949.6254                   21300947.7894
   3065529.90247   2398702.19946  21597484.3444                   21597480.5394
  14105582.81347  10977926.03944  23115581.9064                   23115578.8164
 -10711074.32447  -8339088.10945  22580383.7974                   22580382.2304
  -7821580.37547  -6087789.80945  22966703.0004                   22966701.0984
 11  8 15 17 50 30.0000000  0  9G03G24G07G08G13G19G23G11G28
  12992891.34847  10114146.58643  23534682.8984                   23534682.1994
   2146307.63747   1684408.60543  24043722.4384                   24043725.2424
  -7046098.56248  -5473471.25846  20669950.5554                   20669948.0474
 -10591289.31648  -8237878.70745  21927812.3914                   21927810.5554
   7094803.58647   5530692.18446  21311228.1884                   21311225.8524
   3098268.81348   2424213.01246  21603714.3984                   21603710.5984
  14187914.63747  11042080.54344  23131248.9534                   23131246.5394
 -10805578.26247  -8412727.51245  22562400.0394                   22562398.6054
  -7891248.76247  -6142076.80545  22953445.6334                   22953443.9534
 11  8 15 17 51  0.0000000  0  9G03G24G07G08G13G19G23G11G28
  13070278.81647  10174448.49644  23549409.1564                   23549407.8834
   2043857.71546   1604577.67243  24024226.8594                   24024229.8164
  -7109271.83648  -5522697.18446  20657929.2734                   20657926.4344
 -10690421.72347  -8315124.73045  21908948.0314                   21908945.9064
   7149222.06647   5573096.13746  21321583.4774                   21321581.2194
   3131494.23848   2450102.91846  21610036.9534                   21610032.8134
  14270388.27047  11106345.55144  23146943.2504                   23146940.2424
 -10899804.23047  -8486150.30545  22544469.6644                   22544467.8404
  -7960745.81247  -6196230.31245  22940220.3834                   22940218.7304
 11  8 15 17 51 30.0000000  0  9G03G24G07G08G13G19G23G11G28
  13147838.79347  10234884.73443  23564168.1564                   23564166.8984
   1941408.43047   1524747.25043  24004731.2584                   24004733.7814
  -7172185.64847  -5571720.93746  20645957.0474                   20645954.0824
 -10789484.57447  -8392316.54745  21890096.8984                   21890094.3594
   7204047.35547   5615817.08646  21332016.6954                   21332014.1294
   3165205.18047   2476371.15246  21616452.1024                   21616448.1094
  14353002.21547  11170719.86744  23162663.9844                   23162661.3284
 -10993748.09447  -8559353.27745  22526592.4534                   22526591.0554
  -8030071.19947  -6250250.07045  22927028.1254                   22927026.3244
 11  8 15 17 52  0.0000000  0  9G03G24G07G08G13G19G23G11G28
  13225567.47347  10295452.54343  23578960.0164                   23578957.5204
   1838962.18846   1444919.18043  23985235.9064                   23985239.6644
  -7234838.55147  -5620541.38746  20634034.8444                   20634032.0784
 -10888476.31248  -8469452.95745  21871259.3524                   21871257.1254
   7259275.73848   5658852.13346  21342526.0554                   21342524.1804
   3199398.53948   2503015.29346  21622958.8204                   21622954.3094
  14435752.40647  11235200.36344  23178410.6724                   23178409.3484
 -11087407.15247  -8632334.34045  22508769.8524                   22508768.3554
  -8099226.21547  -6304137.06244  22913868.7114                   22913866.6524
 11  8 15 17 52 30.0000000  0  9G03G24G07G08G13G19G23G11G28
  13303461.69946  10356149.29343  23593781.8674                   23593781.0354
   1736521.06346   1365095.07843  23965741.8674                   23965745.0904
  -7297229.03547  -5669157.34046  20622162.3054                   20622159.5164
 -10987396.05147  -8546533.26245  21852435.4384                   21852433.4224
   7314904.52747   5702199.17646  21353111.7194                   21353110.2624
   3234071.49647   2530033.14146  21629557.0084                   21629552.8484
  14518635.62547  11299784.48844  23194183.5474                   23194182.0434
 -11180778.82047  -8705091.44945  22491001.9844                   22491000.3204
  -8168212.11747  -6357892.29345  22900741.2034                   22900739.0354
 11  8 15 17 53  0.0000000  0  9G03G24G07G08G13G19G23G11G28
  13381520.63347  10416974.37943  23608636.7114                   23608635.0664
   1634090.09046   1285278.95743  23946250.2424                   23946252.5234
  -7359353.40648  -5717565.95346  20610340.6174                   20610337.9184
 -11086239.99247  -8623554.50045  21833625.9844                   21833624.1724
   7370932.69947   5745857.43446  21363773.9064                   21363772.1764
   3269223.67648   2557424.42646  21636245.9224                   21636242.0704
  14601651.01247  11364471.64144  23209980.8284                   23209978.7234
 -11273858.34047  -8777620.91445  22473289.7664                   22473287.9414
  -8237028.00047  -6411515.03145  22887645.9144                   22887643.7504
 11  8 15 17 53 30.0000000  0  9G03G24G07G08G13G19G23G11G28
  13459739.31346  10477923.91043  23623520.8444                   23623519.7664
   1531669.62147   1205471.00043  23926759.9774                   23926763.3324
  -7421212.85547  -5765768.12146  20598568.8914                   20598566.2344
 -11185009.45348  -8700517.69545  21814830.7814                   21814829.3834
   7427354.87147   5789822.70746  21374510.4384                   21374508.7854
   3304849.77048   2585184.98446  21643025.6334                   21643021.3794
  14684792.84047  11429257.30144  23225802.5634                   23225800.3794
 -11366645.34047  -8849922.44145  22455632.2344                   22455630.5864
  -8305677.27347  -6465007.93045  22874582.2034                   22874580.0744
 11  8 15 17 54  0.0000000  0  9G03G24G07G08G13G19G23G11G28
  13538116.30946  10538996.82443  23638435.6254                   23638434.6684
   1429264.35946   1125674.87944  23907272.7114                   23907275.3204
  -7482803.03148  -5813760.47746  20586848.6254                   20586845.8984
 -11283700.54348  -8777419.83245  21796050.4144                   21796048.2424
   7484169.99647   5834094.16446  21385322.1484                   21385320.1054
   3340949.27048   2613314.42646  21649895.3204                   21649891.3524
  14768060.18447  11494140.74644  23241647.3754                   23241646.1294
 -11459135.27347  -8921992.50045  22438032.9144                   22438030.9384
  -8374159.05147  -6518370.32045  22861550.4614                   22861548.1954
 11  8 15 17 54 30.0000000  0  9G03G24G07G08G13G19G23G11G28
  13616649.12146  10600191.18443  23653379.5634                   23653379.5664
   1326877.19946   1045892.89143  23887789.0234                   23887791.0554
  -7544122.71148  -5861542.04746  20575179.9534                   20575177.0554
 -11382311.33648  -8854259.39845  21777285.5634                   21777283.3054
   7541375.70747   5878669.97345  21396208.2974                   21396205.8164
   3377519.64848   2641810.80946  21656854.5474                   21656849.9024
  14851450.14847  11559119.75444  23257515.4844                   23257514.3284
 -11551325.06247  -8993828.64544  22420489.0554                   22420486.9964
  -8442474.21147  -6571602.91045  22848550.8984                   22848548.7114
 11  8 15 17 55  0.0000000  0  9G03G24G07G08G13G19G23G11G28
  13695334.59046  10661504.43843  23668353.2734                   23668352.7274
   1224510.74646    966127.00443  23868308.7664                   23868312.2774
  -7605170.05547  -5909111.40646  20563563.5004                   20563560.3134
 -11480840.73047  -8931035.53545  21758535.8674                   21758533.9654
   7598968.50047   5923547.42645  21407167.7344                   21407165.7544
   3414558.01248   2670671.83646  21663902.5314                   21663898.4804
  14934959.29746  11624191.62943  23273407.3914                   23273405.3134
 -11643212.35947  -9065429.10544  22403002.8284                   22403001.3714
  -8510623.92247  -6624706.55145  22835582.4534                   22835580.0084
 11  8 15 17 55 30.0000000  0  9G03G24G07G08G13G19G23G11G28
  13774170.55146  10722934.98443  23683355.7504                   23683355.7114
   1122168.54746    886380.00843  23848833.4614                   23848835.5434
  -7665942.68747  -5956466.71146  20551998.2734                   20551995.4774
 -11579285.97748  -9007746.12545  21739802.9064                   21739800.5474
   7656946.41047   5968724.95746  21418200.7114                   21418198.4264
   3452062.78148   2699896.30546  21671039.4304                   21671035.4884
  15018585.41047  11689354.63744  23289321.2974                   23289319.9024
 -11734793.23447  -9136790.77344  22385576.2114                   22385573.5744
  -8578608.27047  -6677681.35945  22822645.3594                   22822643.1804
 11  8 15 17 56  0.0000000  0  9G03G24G07G08G13G19G23G11G28
  13853150.57847  10784477.75443  23698385.2424                   23698384.4454
   1019849.66846    806651.19143  23829362.9694                   23829365.3054
  -7726442.15647  -6003609.16446  20540485.4304                   20540482.9614
 -11677649.20348  -9084392.78945  21721084.3674                   21721082.5394
   7715303.13347   6014197.67246  21429305.3834                   21429303.2934
   3490027.37948   2729479.07846  21678264.1024                   21678260.0204
  15102321.65647  11754603.46944  23305256.0944                   23305253.8444
 -11826068.79747  -9207914.55144  22368206.7344                   22368204.0594
  -8646431.85547  -6730530.87545  22809738.9224                   22809737.1564
 11  8 15 17 56 30.0000000  0  9G03G24G07G08G13G19G23G11G28
  13932274.71546  10846132.90243  23713441.5164                   23713441.3484
    917560.19546    726945.25043  23809897.8594                   23809901.2304
  -7786664.00448  -6050535.27746  20529025.9384                   20529023.2344
 -11775925.78947  -9160971.94545  21702383.0474                   21702380.6724
   7774038.44147   6059965.38345  21440482.6024                   21440480.6134
   3528452.44948   2759420.66446  21685576.3674                   21685571.8674
  15186168.15647  11819938.20344  23321211.5394                   23321209.7584
 -11917033.04747  -9278795.72744  22350896.4614                   22350894.4734
  -8714092.84447  -6783253.69145  22796863.5634                   22796861.1094
 11  8 15 17 57  0.0000000  0  9G03G24G07G08G13G19G23G11G28
  14011540.55546  10907898.46943  23728524.9224                   23728524.9384
    815302.84446    647264.31343  23790439.1564                   23790441.5084
  -7846606.35247  -6097243.60546  20517619.4774                   20517616.1954
 -11874113.85248  -9237482.12545  21683698.8204                   21683696.9264
   7833149.84047   6106026.14545  21451731.0474                   21451729.0164
   3567335.34848   2789718.98846  21692975.2194                   21692971.3284
  15270121.59847  11885356.29344  23337187.7814                   23337186.0594
 -12007683.17647  -9349432.16444  22333646.3204                   22333644.8794
  -8781591.85247  -6835850.29745  22784018.5704                   22784016.7894
 11  8 15 17 57 30.0000000  0  9G03G24G07G08G13G19G23G11G28
  14090944.32846  10969771.47343  23743635.5864                   23743634.6764
    713079.74246    567610.10243  23770986.1024                   23770988.2424
  -7906268.00447  -6143733.21146  20506265.9384                   20506263.0314
 -11972212.61747  -9313922.70745  21665030.8364                   21665028.8794
   7892633.19947   6152376.75445  21463050.0634                   21463048.1334
   3606672.55948   2820371.32046  21700461.0234                   21700456.6524
  15354178.40247  11950854.87944  23353183.4694                   23353182.1374
 -12098017.14547  -9419822.23445  22316456.6804                   22316454.6214
  -8848930.75847  -6888322.12545  22771204.0704                   22771202.3244
 11  8 15 17 58  0.0000000  0  9G03G24G07G08G13G19G23G11G28
  14170482.03946  11031748.83243  23758770.7584                   23758770.5514
    610892.78946    487984.00443  23751540.8674                   23751542.4734
  -7965648.43448  -6190003.68046  20494966.5164                   20494963.8954
 -12070221.14548  -9390292.97745  21646380.7814                   21646378.4964
   7952484.95347   6199014.41445  21474439.9774                   21474438.2154
   3646460.36347   2851374.77746  21708032.1254                   21708027.8954
  15438334.63747  12016430.96544  23369197.3054                   23369196.1134
 -12188033.68747  -9489964.95744  22299326.8054                   22299324.8794
  -8916111.53947  -6940670.77345  22758420.3054                   22758418.0084
 11  8 15 17 58 30.0000000  0  9G03G24G07G08G13G19G23G11G28
  14250154.63746  11093831.32843  23773932.3284                   23773931.7034
    508748.40647    408391.11743  23732103.2894                   23732105.5744
  -8024742.09848  -6236050.68746  20483721.2894                   20483718.0314
 -12168133.98848  -9466588.71146  21627748.3754                   21627746.7504
   8012705.54347   6245939.48845  21485899.4384                   21485898.0664
   3686700.08648   2882730.36346  21715689.4614                   21715685.6414
  15522591.20746  12082085.23044  23385231.2974                   23385229.8054
 -12277725.86747  -9559854.91845  22282258.6414                   22282256.7304
  -8983131.67247  -6992894.21945  22745666.8284                   22745664.7034
 11  8 15 17 59  0.0000000  0  9G03G24G07G08G13G19G23G11G28
  14329958.55546  11156016.12142  23789118.5394                   23789118.0704
    406648.51647    328832.88743  23712674.1334                   23712676.1454
  -8083548.38748  -6281873.77746  20472530.8754                   20472528.0234
 -12265950.36347  -9542809.23045  21609134.4614                   21609132.7424
   8073290.94147   6293148.82445  21497428.8674                   21497426.9494
   3727387.97348   2914435.16846  21723432.6174                   21723428.1994
  15606943.78546  12147814.32444  23401283.3524                   23401282.0004
 -12367091.71147  -9629490.60245  22265253.5474                   22265251.6254
  -9049992.86747  -7044993.82445  22732943.7734                   22732941.1294
 11  8 15 17 59 30.0000000  0  9G03G24G07G08G13G19G23G11G28
  14409891.02746  11218301.07843  23804329.7814                   23804328.4104
    304596.07847    249311.63743  23693254.3284                   23693256.8284
  -8142065.27047  -6327471.35546  20461395.0944                   20461392.4694
 -12363668.53148  -9618953.25046  21590539.2274                   21590537.5434
   8134238.68448   6340640.48845  21509026.7274                   21509024.6094
   3768520.92248   2946486.77746  21731260.1254                   21731255.1454
  15691389.55147  12213616.00044  23417353.1094                   23417351.8874
 -12456128.43047  -9698869.82845  22248310.3054                   22248308.0474
  -9116696.46147  -7096970.64845  22720250.3754                   22720248.1954
 11  8 15 18  0  0.0000000  0  9G03G24G07G08G13G19G23G11G28
  14489949.84846  11280684.55943  23819564.9144                   23819564.1174
    202594.23847    169829.77343  23673843.3524                   23673846.2234
  -8200290.71947  -6372841.84046  20450315.2344                   20450312.3874
 -12461286.39847  -9695019.10246  21571963.4924                   21571961.3014
   8195546.35947   6388412.62945  21520693.5084                   21520691.5164
   3810097.41848   2978884.02046  21739171.2504                   21739167.1884
  15775925.57846  12279488.01244  23433439.7894                   23433439.2114
 -12544833.48447  -9767990.60245  22231429.8204                   22231428.3484
  -9183242.84047  -7148824.92245  22707587.2344                   22707585.0944
 11  8 15 18  0 30.0000000  0  9G03G24G07G08G13G19G23G11G28
  14570129.95346  11343162.49644  23834821.8284                   23834822.3054
    100643.96147     90388.10544  23654443.2974                   23654445.2234
  -8258225.14548  -6417985.56246  20439290.9534                   20439287.9734
 -12558804.15648  -9771006.95746  21553406.2814                   21553403.6724
   8257208.21147   6436460.75045  21532426.6804                   21532425.0354
   3852112.21148   3011622.78146  21747166.8204                   21747162.6134
  15860546.96546  12345426.53544  23449542.4534                   23449542.3834
 -12633205.74247  -9836852.07045  22214613.7424                   22214611.8954
  -9249634.93447  -7200558.99645  22694952.7424                   22694950.9414
 11  8 15 18  1  0.0000000  0  9G03G24G07G08G13G19G23G11G28
  14650428.78147  11405732.93844  23850102.6024                   23850102.6054
     -1251.69147     10988.99643  23635053.0164                   23635055.3874
  -8315866.19547  -6462900.67646  20428322.1254                   20428319.0594
 -12656220.00048  -9846915.39546  21534868.7734                   21534866.6844
   8319221.84047   6484782.98845  21544228.2274                   21544226.1374
   3894563.09848   3044701.35946  21755244.5234                   21755240.5664
  15945251.09846  12411429.51244  23465661.4384                   23465661.2814
 -12721242.35947  -9905451.99245  22197860.5784                   22197859.2934
  -9315873.36747  -7252173.33245  22682348.2424                   22682346.4064
 11  8 15 18  1 30.0000000  0  9G03G24G07G08G13G19G23G11G28
  14730842.10547  11468392.60943  23865405.0784                   23865404.9384
   -103091.17247    -68366.37544  23615673.6094                   23615676.1254
  -8373213.44947  -6507586.85946  20417409.2584                   20417406.8014
 -12753533.18448  -9922743.83246  21516350.7974                   21516348.4414
   8381582.94947   6533375.99645  21556094.7734                   21556093.1414
   3937445.78548   3078116.40646  21763405.2894                   21763401.1884
  16030033.40646  12477493.41444  23481795.4614                   23481794.9414
 -12808941.67647  -9973789.09045  22181172.0864                   22181169.9654
  -9381960.75047  -7303669.94945  22669772.3204                   22669769.9384
 11  8 15 18  2  0.0000000  0  9G03G24G07G08G13G19G23G11G28
  14811367.67246  11531139.78143  23880727.5864                   23880727.5124
   -204871.54747   -147675.60543  23596305.2194                   23596307.3364
  -8430265.60948  -6552043.09046  20406552.4144                   20406549.9224
 -12850741.69548  -9998490.70746  21497852.3364                   21497851.0234
   8444288.47347   6582237.35545  21568027.9384                   21568025.6954
   3980757.61348   3111865.85246  21771647.1564                   21771643.2464
  16114891.12146  12543616.03943  23497943.6484                   23497942.4884
 -12896300.98847 -10041861.23045  22164548.1644                   22164546.6764
  -9447897.90647  -7355049.54345  22657224.6644                   22657222.4884
 11  8 15 18  2 30.0000000  0  9G03G24G07G08G13G19G23G11G28
  14892006.21546  11593974.96143  23896073.5084                   23896073.1644
   -306586.35547   -226933.85943  23576949.5474                   23576951.2234
  -8487017.06648  -6596265.02046  20395753.2664                   20395750.1764
 -12947840.29748 -10074151.94146  21479375.3984                   21479373.0554
   8507338.93447   6631367.50845  21580025.4064                   21580024.4734
   4024499.28548   3145950.22746  21779970.7664                   21779967.3834
  16199824.59047  12609797.77043  23514106.0554                   23514104.7974
 -12983314.18747 -10109663.68045  22147989.5394                   22147988.2934
  -9513682.60247  -7406310.30945  22644706.3284                   22644704.3834
 11  8 15 18  3  0.0000000  0  9G03G24G07G08G13G19G23G11G28
  14972753.00446  11656894.45743  23911439.3834                   23911438.7934
   -408234.35946   -306140.00843  23557605.9844                   23557609.3164
  -8543467.56648  -6640252.43446  20385010.9774                   20385008.2424
 -13044828.81248 -10149727.39146  21460918.7894                   21460917.0164
   8570730.16847   6680763.19145  21592088.3674                   21592086.7704
   4068666.52748   3180366.22346  21788375.8364                   21788371.6214
  16284829.38346  12676035.05943  23530282.3594                   23530280.3244
 -13069980.21947 -10177195.61745  22131497.6564                   22131496.3794
  -9579317.03147  -7457453.98045  22632216.8204                   22632213.5784
 11  8 15 18  3 30.0000000  0  9G03G24G07G08G13G19G23G11G28
  15053605.99246  11719896.72343  23926824.3364                   23926824.6254
   -509812.18746   -385291.50043  23538276.9064                   23538278.2274
  -8599615.23848  -6684003.88347  20374326.5084                   20374323.9064
 -13141705.03548 -10225215.35546  21442484.0234                   21442482.1454
   8634458.93848   6730421.89545  21604216.1414                   21604213.7114
   4113257.25048   3215112.20746  21796860.7504                   21796857.0514
  16369902.60247  12742325.68443  23546471.5314                   23546469.0704
 -13156296.15647 -10244454.75045  22115071.9614                   22115070.7934
  -9644802.11747  -7508481.29745  22619754.7664                   22619752.9304
 11  8 15 18  4  0.0000000  0  9G03G24G07G08G13G19G23G11G28
  15134562.46146  11782979.56342  23942230.2974                   23942229.6644
   -611316.87147   -464385.96543  23518961.1174                   23518962.9574
  -8655458.00048  -6727517.73046  20363700.0234                   20363696.7704
 -13238467.15247 -10300614.38746  21424070.9064                   21424068.2384
   8698522.48048   6780341.46145  21616407.1094                   21616404.7034
   4158268.51648   3250185.88346  21805426.1414                   21805422.4144
  16455041.50847  12808667.53144  23562672.8914                   23562671.0084
 -13242259.00047 -10311438.75845  22098714.7034                   22098712.6374
  -9710138.61347  -7559392.82445  22607321.7974                   22607319.3134
 11  8 15 18  4 30.0000000  0  9G03G24G07G08G13G19G23G11G28
  15215614.60946  11846137.05142  23957653.4614                   23957653.3204
   -712750.69547   -543425.22743  23499658.4224                   23499661.1094
  -8710999.18048  -6770796.58646  20353130.9224                   20353128.1844
 -13335118.27747 -10375926.94946  21405678.2584                   21405676.4964
   8762912.46547   6830515.41845  21628659.6094                   21628658.2034
   4203692.42248   3285581.08645  21814070.8914                   21814065.9414
  16540238.14547  12875054.28144  23578885.4304                   23578884.7464
 -13327870.90647 -10378149.29745  22082423.1564                   22082421.1134
  -9775332.52047  -7610193.23045  22594915.5004                   22594913.5204
 11  8 15 18  5  0.0000000  0  9G03G24G07G08G13G19G23G11G28
  15296764.13346  11909370.41442  23973096.6174                   23973095.2234
   -814106.02347   -622403.34043  23480371.5784                   23480373.5124
  -8766232.66448  -6813835.66847  20342620.1564                   20342617.8014
 -13431651.78148 -10451147.84846  21387308.8914                   21387306.9774
   8827630.97348   6880945.32845  21640975.2584                   21640974.4024
   4249530.83248   3321299.29746  21822793.2114                   21822789.3134
  16625493.95347  12941487.14544  23595108.7894                   23595108.5824
 -13413125.13347 -10444581.13745  22066200.0474                   22066197.1454
  -9840380.47347  -7660879.92645  22582537.5864                   22582535.2074
 11  8 15 18  5 30.0000000  0  9G03G24G07G08G13G19G23G11G28
  16953424.91446  13200274.89843  24288348.9384                   24288347.2234
    660042.37547    526283.78943  23760892.4144                   23760894.5124
  -7245735.75448  -5629032.89146  20631961.2504                   20631958.3404
 -11952643.55548  -9298673.90646  21668754.7344                   21668752.4104
  10468091.46947   8159226.15245  21953144.6024                   21953143.1564
   5871198.10548   4584936.09845  22131386.1954                   22131382.2734
  18286222.11746  14235560.77344  23911135.0474                   23911135.4614
 -11922596.90647  -9283130.55145  22349837.1564                   22349835.7344
  -8329862.41847  -6483852.85245  22869979.7974                   22869977.6054
 11  8 15 18  6  0.0000000  0  9G03G24G07G08G13G19G23G11G28
  17034761.94546  13263654.42243  24303826.5394                   24303824.7854
    558852.88347    447434.92243  23741636.9614                   23741638.5204
  -7300348.27748  -5671588.10946  20621568.6644                   20621565.6954
 -12048936.11748  -9373707.05146  21650430.8284                   21650428.6994
  10533457.55547   8210160.68845  21965583.7504                   21965582.2034
   5917856.98848   4621293.62945  22140265.1334                   22140261.5744
  18371587.91046  14302079.28143  23927378.6334                   23927380.1914
 -12007127.20747  -9348998.29345  22333751.8364                   22333749.8794
  -8394621.33647  -6534314.31245  22857656.5784                   22857654.0124
 11  8 15 18  6 30.0000000  0  8G24G07G08G13G19G23G11G28
    457751.54747    368654.73043  23722397.9304                   23722400.0824
  -7354647.03548  -5713898.83646  20611236.1644                   20611233.3094
 -12145104.52748  -9448643.46946  21632130.7034                   21632128.5864
  10599143.62147   8261344.54745  21978082.8364                   21978082.2304
   5964922.99648   4657968.39845  22149221.1024                   22149217.4304
  18457004.79746  14368637.60243  23943633.8834                   23943634.8524
 -12091290.55147  -9414580.08645  22317735.9384                   22317734.2114
  -8459236.60247  -6584663.84845  22845360.1094                   22845358.4534
 11  8 15 18  7  0.0000000  0  8G24G07G08G13G19G23G11G28
    356742.26246    289946.29343  23703175.3754                   23703177.7274
  -7408629.16448  -5755962.84846  20600963.6094                   20600960.9924
 -12241146.02748  -9523480.98446  21613854.8054                   21613852.5864
  10665147.02747   8312775.68845  21990643.5164                   21990641.8484
   6012393.91047   4694958.69146  22158254.9384                   22158251.1054
  18542470.63346  14435234.02743  23959898.4774                   23959898.1134
 -12175083.91847  -9479873.60945  22301791.1644                   22301789.1134
  -8523708.09047  -6634901.34045  22833091.8834                   22833090.4844
 11  8 15 18  7 30.0000000  0  8G24G07G08G13G19G23G11G28
    255836.96146    211318.85543  23683974.2034                   23683976.1994
  -7462283.54348  -5797771.46947  20590753.3914                   20590750.7814
 -12337049.63348  -9598211.07846  21595604.8834                   21595602.7034
  10731474.39847   8364459.27345  22003265.1804                   22003263.6684
   6060276.07447   4732269.43445  22167366.1724                   22167362.7034
  18627991.79346  14501873.63344  23976172.3444                   23976172.8874
 -12258495.18047  -9544869.37945  22285918.3364                   22285916.2974
  -8588027.63747  -6685020.44545  22820852.0704                   22820849.0704
 11  8 15 18  8  0.0000000  0  8G24G07G08G13G19G23G11G28
    155046.26646    132780.71143  23664794.5474                   23664796.0354
  -7515601.11748  -5839317.63346  20580607.5084                   20580605.0514
 -12432805.68447  -9672826.17646  21577383.1024                   21577381.5474
  10798130.14847   8416398.73445  22015949.3674                   22015947.7544
   6108574.48447   4769904.51245  22176557.7114                   22176554.0784
  18713572.88346  14568559.97344  23992458.2034                   23992458.4654
 -12341513.94547  -9609559.29745  22270120.6954                   22270118.6724
  -8652188.96947  -6735016.28545  22808642.8524                   22808640.5984
 11  8 15 18  8 30.0000000  0  8G24G07G08G13G19G23G11G28
     54372.85247     54333.98443  23645637.0704                   23645638.9264
  -7568580.42248  -5880600.22747  20570525.8754                   20570523.3134
 -12528412.27047  -9747324.80146  21559189.9064                   21559187.5274
  10865111.02747   8468591.53545  22028695.5944                   22028694.1054
   6157285.83247   4807861.38345  22185826.9924                   22185823.1724
  18799210.82446  14635290.59843  24008755.0314                   24008754.6884
 -12424137.96947  -9673941.64145  22254397.4064                   22254395.2704
  -8716193.16847  -6784889.67645  22796463.2114                   22796460.7704
 11  8 15 18  9  0.0000000  0  8G24G07G08G13G19G23G11G28
    -46184.13347    -24022.03944  23626502.0084                   23626503.5164
  -7621223.98448  -5921621.18747  20560508.0474                   20560505.4224
 -12623872.23048  -9821709.18446  21541024.0784                   21541022.1254
  10932409.76247   8521032.02045  22041502.6094                   22041500.5084
   6206403.35947   4846134.73045  22195173.8444                   22195170.3794
  18884898.77346  14702060.23843  24025060.7034                   24025060.8954
 -12506368.97747  -9738017.72745  22238749.3364                   22238747.3444
  -8780045.10547  -6834644.44145  22784312.4924                   22784310.1374
 11  8 15 18  9 30.0000000  0  8G24G07G08G13G19G23G11G28
   -146624.90647   -102287.48444  23607388.3754                   23607390.2384
  -7673532.83248  -5962381.34446  20550553.9224                   20550551.1564
 -12719185.87148  -9895979.53946  21522886.4534                   21522884.3874
  11000020.40247   8573715.54745  22054368.0704                   22054366.5274
   6255921.45748   4884720.23445  22204596.7894                   22204592.6334
  18970630.80946  14768864.19143  24041375.0554                   24041375.0664
 -12588207.12147  -9801787.69145  22223176.2814                   22223173.9654
  -8843748.79747  -6884283.67245  22772190.1024                   22772188.3094
 11  8 15 18 10  0.0000000  0  8G24G07G08G13G19G23G11G28
   -246949.29747   -180462.27344  23588297.1484                   23588299.1844
  -7725507.89848  -6002881.41447  20540663.5474                   20540660.6764
 -12814354.06648  -9970136.57046  21504776.6334                   21504774.9144
  11067936.91847   8626637.43045  22067292.1414                   22067290.6524
   6305834.15647   4923613.19945  22214094.8204                   22214090.9924
  19056400.69946  14835697.58243  24057696.6884                   24057697.0514
 -12669652.71147  -9865251.75045  22207677.8284                   22207675.5514
  -8907308.23447  -6933810.50045  22760094.8674                   22760092.9534
 11  8 15 18 10 30.0000000  0  8G24G07G08G13G19G23G11G28
   -347158.03147   -258546.90644  23569228.3524                   23569229.6334
  -7777151.25448  -6043123.00047  20530836.2034                   20530833.4184
 -12909378.64548 -10044181.68746  21486694.4694                   21486691.6604
  11136152.53547   8679792.37545  22080273.5164                   22080272.0594
   6356134.80547   4962808.46545  22223667.1804                   22223662.9654
  19142202.19546  14902555.60243  24074024.4144                   24074024.7974
 -12750706.96547  -9928410.89545  22192253.7034                   22192251.5044
  -8970728.07847  -6983228.53945  22748027.0784                   22748024.6094
 11  8 15 18 11  0.0000000  0  8G24G07G08G13G19G23G11G28
   -447249.25846   -336539.95344  23550181.5944                   23550183.0514
  -7828462.29348  -6083105.65246  20521072.2584                   20521069.3014
 -13004258.69948 -10118114.21146  21468638.4064                   21468636.6764
  11204663.03147   8733177.08645  22093310.2584                   22093308.9654
   6406819.58648   5002303.06645  22233312.0474                   22233308.2194
  19228031.16046  14969435.00043  24090357.7814                   24090357.6884
 -12831368.17247  -9991263.75845  22176904.1724                   22176902.4454
  -9034010.66047  -7032539.62145  22735984.6254                   22735982.2074
 11  8 15 18 11 30.0000000  0  8G24G07G08G13G19G23G11G28
   -547218.91447   -414438.28144  23531157.2114                   23531159.1844
  -7879438.14848  -6122827.10547  20511371.5634                   20511368.9344
 -13098991.31248 -10191931.80946  21450611.5944                   21450610.3914
  11273466.66447   8786790.21545  22106403.5314                   22106401.8954
   6457887.02748   5042095.83645  22243029.9064                   22243025.7344
  19313885.89846  15036334.48843  24106695.5554                   24106695.2894
 -12911632.81247 -10053807.60245  22161630.3754                   22161628.3524
  -9097155.49247  -7081743.37945  22723968.2034                   22723966.0784
 11  8 15 18 12  0.0000000  0  9G17G24G07G08G13G19G23G11G28
   6132066.57856   4790467.26253  24707261.8754                   24707264.5354
   -647066.35246   -492241.36743  23512157.2814                   23512158.4884
  -7930079.54748  -6162287.94547  20501735.2114                   20501732.3954
 -13193576.33648 -10265634.42246  21432613.1644                   21432611.1174
  11342557.80947   8840627.37545  22119550.8834                   22119549.6994
   6509331.64547   5082182.52045  22252819.4454                   22252815.3054
  19399761.13346  15103250.00443  24123037.3984                   24123036.6914
 -12991500.77347 -10116042.34045  22146431.3754                   22146429.3244
  -9160166.30547  -7130842.70745  22711977.5944                   22711975.3134
 11  8 15 18 12 30.0000000  0  9G17G24G07G08G13G19G23G11G28
   5998538.07045   4686419.33243  24681852.3134                   24681854.3054
   -746797.67647   -569953.98844  23493178.6094                   23493180.8404
  -7980393.75848  -6201493.82846  20492160.5864                   20492157.7624
 -13288021.57848 -10339228.12146  21414640.7664                   21414638.7384
  11411923.98047   8894678.85245  22132751.4844                   22132749.3364
   6561141.34447   5122553.67245  22262678.3284                   22262674.4574
  19485644.77746  15170172.02343  24139381.1174                   24139380.4964
 -13070978.69147 -10177973.14845  22131307.6884                   22131305.6294
  -9223052.95747  -7179845.28145  22700011.0474                   22700008.8404
 11  8 15 18 13  0.0000000  0  9G17G24G07G08G13G19G23G11G28
   5865089.33245   4582433.52742  24656456.9534                   24656459.2304
   -846418.64847   -647580.59844  23474221.7974                   23474222.8954
  -8030387.28948  -6240449.83646  20482647.2034                   20482644.4494
 -13382332.86348 -10412717.42246  21396693.7344                   21396692.1254
  11481553.66847   8948935.64845  22146001.4304                   22146000.3874
   6613305.08247   5163200.69546  22272604.8524                   22272601.0704
  19571525.52746  15237091.79343  24155723.0394                   24155723.4024
 -13150072.53947 -10239604.68445  22116256.5314                   22116254.7734
  -9285825.06647  -7228758.58245  22688065.6254                   22688063.3674
 11  8 15 18 13 30.0000000  0  9G17G24G07G08G13G19G23G11G28
   5731724.77746   4478513.35943  24631078.5864                   24631081.6054
   -945923.37547   -725116.64543  23455285.7424                   23455287.4414
  -8080056.28948  -6279152.96146  20473195.5164                   20473192.4534
 -13476505.39548 -10486098.60946  21378773.4454                   21378771.2504
  11551446.50447   9003397.52045  22159301.5634                   22159300.2344
   6665822.31347   5204123.17645  22282598.3284                   22282594.5434
  19657403.10946  15304009.12143  24172065.1174                   24172065.2704
 -13228776.96947 -10300932.77045  22101279.5004                   22101277.7504
  -9348481.07047  -7277581.43045  22676142.4224                   22676140.1994
 11  8 15 18 14  0.0000000  0  9G17G24G07G08G13G19G23G11G28
   5598453.76246   4374666.04342  24605717.9224                   24605720.6174
  -1045302.01247   -802554.43444  23436375.1564                   23436376.8164
  -8129392.13348  -6317596.49646  20463807.2894                   20463804.0664
 -13570530.51648 -10559364.94546  21360880.7504                   21360878.3984
  11621606.44547   9058067.51245  22172652.6174                   22172651.2344
   6718697.45747   5245324.55545  22292660.3914                   22292656.3444
  19743281.53946  15370927.12143  24188407.8594                   24188407.0234
 -13307082.66447 -10361950.15645  22086378.4774                   22086376.1764
  -9411014.78947  -7326308.99245  22664243.3134                   22664241.1094
 11  8 15 18 14 30.0000000  0  9G17G24G07G08G13G19G23G11G28
   5465279.51646   4270894.12543  24580375.7814                   24580377.4304
  -1144550.41847   -879890.76644  23417488.8364                   23417490.2734
  -8178391.78148  -6355778.05547  20454483.0864                   20454479.9494
 -13664405.01648 -10632513.89146  21343017.3284                   21343015.1564
  11692031.39547   9112943.99645  22186053.8754                   22186052.5234
   6771928.43847   5286803.19145  22302789.6884                   22302785.7934
  19829159.34046  15437844.58643  24204749.9534                   24204749.5704
 -13384985.76247 -10422653.83245  22071553.7504                   22071551.9924
  -9473426.21547  -7374941.24645  22652366.4304                   22652363.7154
 11  8 15 18 15  0.0000000  0  9G17G24G07G08G13G19G23G11G28
   5332207.98046   4167202.25443  24555053.1024                   24555054.7934
  -1243661.40247   -957119.99244  23398628.5394                   23398630.8134
  -8227049.38348  -6393693.08647  20445223.7034                   20445220.6644
 -13758122.31247 -10705540.36346  21325183.3914                   21325181.3134
  11762722.20347   9168027.66045  22199506.0474                   22199504.8674
   6825516.56347   5328560.12145  22312987.6484                   22312983.7774
  19915037.49246  15504762.35243  24221092.5394                   24221091.9844
 -13462479.98447 -10483038.91445  22056807.4694                   22056805.1414
  -9535712.31647  -7423475.84045  22640514.0784                   22640511.5474
 11  8 15 18 15 30.0000000  0  9G17G24G07G08G13G19G23G11G28
   5199240.75846   4063591.61743  24529749.4144                   24529752.1214
  -1342632.16047  -1034239.96144  23379794.4064                   23379797.1844
  -8275363.54348  -6431340.51247  20436029.7734                   20436027.0634
 -13851680.78548 -10778443.04346  21307379.8674                   21307378.2544
  11833675.75447   9223316.04745  22213008.5164                   22213006.9144
   6879458.75447   5370592.95345  22323252.1094                   22323248.4414
  20000912.96146  15571678.02043  24237434.3834                   24237434.3984
 -13539563.07047 -10543103.62145  22042138.7584                   22042137.0234
  -9597874.20747  -7471913.67645  22628684.7194                   22628682.6054
 11  8 15 18 16  0.0000000  0  9G17G24G07G08G13G19G23G11G28
   5066382.98046   3960066.21942  24504467.3984                   24504469.6174
  -1441456.71147  -1111246.00444  23360989.0394                   23360990.7774
  -8323329.41448  -6468716.52747  20426902.1644                   20426899.7034
 -13945075.50847 -10851218.14846  21289607.4534                   21289605.1844
  11904891.68847   9278808.87145  22226560.3364                   22226559.6844
   6933754.95747   5412901.66045  22333584.6334                   22333580.9844
  20086785.94546  15638591.75843  24253775.7734                   24253775.9304
 -13616229.77747 -10602843.87945  22027549.5394                   22027547.9064
  -9659910.10947  -7520253.32845  22616879.9694                   22616877.7424
 11  8 15 18 16 30.0000000  0  9G17G24G07G08G13G19G23G11G28
   4933631.38746   3856623.65642  24479205.4614                   24479207.0984
  -1540137.49247  -1188139.98844  23342210.8834                   23342212.2384
  -8370950.63348  -6505823.98047  20417840.1174                   20417837.4574
 -14038309.24647 -10923867.82846  21271865.8834                   21271863.1374
  11976361.79347   9334499.77345  22240160.6334                   22240159.6294
   6988397.33247   5455480.07045  22343982.7504                   22343979.6214
  20172648.36346  15705497.25043  24270115.0784                   24270115.1684
 -13692482.32847 -10662261.41445  22013039.2734                   22013037.2774
  -9721826.05547  -7568499.49245  22605097.6484                   22605094.7464
 11  8 15 18 17  0.0000000  0  9G17G24G07G08G13G19G23G11G28
   4800992.48446   3753268.86343  24453965.9144                   24453966.3834
  -1638666.71147  -1264915.89844  23323461.0474                   23323462.6484
  -8418220.96548  -6542658.03947  20408844.8834                   20408842.0164
 -14131375.47748 -10996386.95346  21254155.6804                   21254154.0434
  12048087.20347   9390389.62145  22253809.8204                   22253807.6374
   7043387.24647   5498329.32845  22354447.0394                   22354443.1024
  20258501.87946  15772395.80943  24286452.6254                   24286452.5594
 -13768314.11347 -10721351.07445  21998608.9534                   21998606.6214
  -9783618.48847  -7616649.44145  22593338.4774                   22593336.3554
 11  8 15 18 17 30.0000000  0  9G17G24G07G08G13G19G23G11G28
   4668466.12146   3650001.72743  24428747.0474                   24428745.9924
  -1737043.48047  -1341573.04744  23304740.8054                   23304742.1724
  -8465140.71948  -6579218.89547  20399916.5864                   20399913.8284
 -14224274.10247 -11068775.48446  21236477.3984                   21236475.1484
  12120062.83647   9446474.41845  22267506.2114                   22267504.3794
   7098720.00047   5541445.71545  22364976.4454                   22364972.7734
  20344341.45746  15839283.50043  24302787.4844                   24302787.2384
 -13843724.80547 -10780112.63345  21984258.8444                   21984256.4454
  -9845290.93447  -7664705.87945  22581602.8134                   22581600.5514
 11  8 15 18 18  0.0000000  0  9G17G24G07G08G13G19G23G11G28
   4536055.68046   3546824.96542  24403549.0784                   24403548.7624
  -1835263.64847  -1418108.14844  23286049.4924                   23286050.9574
  -8511707.12948  -6615504.43446  20391054.9614                   20391052.0904
 -14317001.75447 -11141030.80546  21218832.1334                   21218829.6954
  12192287.06647   9502752.93845  22281250.3204                   22281249.0394
   7154393.82047   5584827.87545  22375570.7734                   22375567.3324
  20430166.10546  15906159.56643  24319118.7504                   24319120.1844
 -13918710.60947 -10838543.10545  21969989.1174                   21969986.7814
  -9906842.62147  -7712668.23045  22569889.8134                   22569887.7814
 11  8 15 18 18 30.0000000  0  9G17G24G07G08G13G19G23G11G28
   4403762.60946   3443739.57443  24378373.8524                   24378375.4734
  -1933324.93747  -1494519.44544  23267389.3834                   23267390.8914
  -8557918.95748  -6651513.66447  20382261.0314                   20382258.6604
 -14409556.99648 -11213151.77046  21201219.5234                   21201217.2194
  12264755.91447   9559222.05945  22295040.5864                   22295039.4694
   7210405.01647   5628472.92645  22386229.6484                   22386225.6484
  20515972.07446  15973021.09043  24335447.7734                   24335449.1334
 -13993269.75047 -10896641.09045  21955801.2894                   21955799.1524
  -9968275.02047  -7760537.61345  22558200.0704                   22558197.4694
 11  8 15 18 19  0.0000000  0  9G17G24G07G08G13G19G23G11G28
   4271589.15246   3340747.45343  24353222.6564                   24353224.1094
  -2031223.78947  -1570804.19143  23248759.6644                   23248760.6954
  -8603774.17248  -6687245.01647  20373534.9144                   20373532.2854
 -14501937.20748 -11285136.34846  21183639.9534                   21183638.3524
  12337466.87547   9615879.84045  22308877.4224                   22308875.6764
   7266751.41447   5672379.16445  22396951.7734                   22396948.8244
  20601756.67246  16039865.96943  24351772.3914                   24351773.6374
 -14067399.60247 -10954404.57845  21941694.6804                   21941692.5664
 -10029589.12547  -7808314.82045  22546531.9224                   22546529.7234
 11  8 15 18 19 30.0000000  0  9G17G24G07G08G13G19G23G11G28
   4139536.63346   3237849.54343  24328093.1024                   24328095.5824
  -2128958.02047  -1646960.62143  23230161.6564                   23230162.4534
  -8649272.00048  -6722697.88346  20364877.6564                   20364874.5124
 -14594141.27347 -11356983.66446  21166094.6484                   21166092.0234
  12410415.77747   9672723.03145  22322758.8914                   22322757.6684
   7323429.39147   5716543.76245  22407737.3524                   22407734.0274
  20687516.59846  16106691.61343  24368092.2194                   24368093.7704
 -14141098.48447 -11011832.25445  21927670.2344                   21927667.8914
 -10090786.44147  -7856001.03545  22534886.1724                   22534884.4184
 11  8 15 18 20  0.0000000  0  9G17G24G07G08G13G19G23G11G28
   4007605.10546   3135045.93043  24302987.0784                   24302989.7504
  -2226525.99647  -1722987.50843  23211594.6174                   23211596.1134
  -8694412.41448  -6757872.25046  20356287.5234                   20356284.5634
 -14686168.32848 -11428693.06646  21148582.1954                   21148580.5744
  12483597.94147   9729747.98444  22336684.7424                   22336683.3714
   7380434.13347   5760963.00045  22418585.0864                   22418581.4414
  20773247.31646  16173494.52043  24384406.0164                   24384408.6844
 -14214365.71547 -11068923.57445  21913727.9454                   21913726.0744
 -10151869.80947  -7903598.44545  22523262.7344                   22523260.8954
 11  8 15 18 20 30.0000000  0  9G17G24G07G08G13G19G23G11G28
   3875801.25046   3032341.80143  24277904.7664                   24277907.7504
  -2323920.45347  -1798879.21944  23193061.8054                   23193061.9924
  -8739189.13347  -6792763.21947  20347766.8134                   20347764.1214
 -14778011.64848 -11500259.27746  21131105.1254                   21131103.1954
  12557014.55947   9786955.64545  22350656.1414                   22350655.0554
   7437767.13747   5805638.02045  22429495.5314                   22429491.7734
  20858950.62146  16240276.05143  24400715.2734                   24400716.6724
 -14287194.69147 -11125673.39545  21899868.8674                   21899866.9734
 -10212835.72747  -7951104.34845  22511661.5164                   22511658.8164
 11  8 15 18 21  0.0000000  0  9G17G24G07G08G13G19G23G11G28
   3744123.33246   2929735.81643  24252847.7034                   24252850.1024
  -2421142.04347  -1874636.21544  23174560.6954                   23174561.2814
  -8783603.95348  -6827372.18047  20339314.5234                   20339312.0904
 -14869673.00048 -11571683.69946  21113662.5944                   21113659.8444
  12630658.90247   9844340.71545  22364670.0234                   22364669.0984
   7495422.00847   5850563.85245  22440466.6884                   22440463.4104
  20944619.90646  16307031.09443  24417018.0084                   24417019.2154
 -14359586.59447 -11182082.62945  21886093.2504                   21886091.4414
 -10273688.64147  -7998522.18445  22500081.4454                   22500079.0204
 11  8 15 18 21 30.0000000  0  8G17G24G07G08G13G19G11G28
   3612575.35246   2827231.05143  24227815.1254                   24227817.1334
  -2518185.98847  -1950254.77044  23156092.8524                   23156094.9964
  -8827653.64848  -6861696.63347  20330932.7504                   20330930.0274
 -14961147.61748 -11642962.62146  21096255.5944                   21096253.2384
  12704529.87147   9901902.40244  22378726.7344                   22378725.5394
   7553397.88347   5895739.80145  22451499.0704                   22451495.7624
 -14431537.01248 -11238147.84845  21872401.8054                   21872399.5204
 -10334427.78547  -8045851.36345  22488523.0234                   22488520.9924
 11  8 15 18 22  0.0000000  0  8G17G24G07G08G13G19G11G28
   3481158.53546   2724828.50443  24202806.6954                   24202808.6844
  -2615049.40647  -2025732.68744  23137661.1024                   23137661.5744
  -8871337.23848  -6895735.80547  20322620.1564                   20322617.3484
 -15052434.21148 -11714095.03546  21078883.9774                   21078882.1844
  12778623.57447   9959637.65245  22392826.8204                   22392826.2114
   7611691.00447   5941162.96145  22462591.9454                   22462588.8484
 -14503044.42247 -11293867.88745  21858794.1644                   21858791.8134
 -10395054.76647  -8093093.14545  22476986.0554                   22476983.6174
 11  8 15 18 22 30.0000000  0  8G17G24G07G08G13G19G11G28
   3349886.16046   2622538.52743  24177826.2114                   24177828.2814
  -2711718.05947  -2101058.83644  23119265.5394                   23119266.9964
  -8914641.67648  -6929479.53947  20314379.2664                   20314376.7894
 -15143519.71547 -11785070.73446  21061551.1174                   21061549.2274
  12852948.32447  10017552.91845  22406970.4774                   22406969.9964
   7670309.60247   5986839.75445  22473746.5084                   22473743.6254
 -14574095.11348 -11349232.03145  21845274.1174                   21845271.1374
 -10455559.28947  -8140239.51245  22465472.7424                   22465469.9344
 11  8 15 18 23  0.0000000  0  8G17G24G07G08G13G19G11G28
   3218765.45346   2520366.73843  24152875.7814                   24152877.2504
  -2808183.75047  -2176226.81644  23100908.7814                   23100910.0514
  -8957560.20348  -6962922.56247  20306212.5004                   20306209.5904
 -15234396.27348 -11855883.63746  21044257.6174                   21044255.4924
  12927505.85947  10075649.56644  22421158.2114                   22421157.2664
   7729256.54747   6032772.38345  22484964.3054                   22484960.1994
 -14644681.82448 -11404234.64145  21831841.5554                   21831839.1414
 -10515936.82847  -8187286.91845  22453983.0084                   22453981.0354
 11  8 15 18 23 30.0000000  0  8G17G24G07G08G13G19G11G28
   3087799.06646   2418315.21144  24127953.1804                   24127955.4804
  -2904443.02747  -2251233.97344  23082590.8834                   23082592.5434
  -9000090.50048  -6996063.07447  20298118.9844                   20298115.8054
 -15325061.28147 -11926531.69546  21027004.9614                   21027002.6644
  13002294.02047  10133925.92644  22435390.3914                   22435388.9694
   7788529.49247   6078959.04745  22496243.7974                   22496239.6414
 -14714801.54348 -11458873.35545  21818498.0004                   21818495.5864
 -10576187.93047  -8234235.79345  22442517.6804                   22442515.9064
 11  8 15 18 24  0.0000000  0  8G17G24G07G08G13G19G11G28
   2956986.12546   2316383.25443  24103060.3834                   24103061.6094
  -3000495.58247  -2326080.04344  23064312.9774                   23064314.1024
  -9042233.75448  -7028901.98847  20290099.1884                   20290097.0394
 -15415515.26647 -11997015.30946  21009791.8364                   21009790.2154
  13077306.71947  10192377.28144  22449664.3834                   22449663.4304
   7848122.42647   6125395.05945  22507583.5474                   22507580.1724
 -14784454.95748 -11513148.71945  21805243.7274                   21805241.0664
 -10636316.41047  -8281089.14545  22431075.8524                   22431073.0554
 11  8 15 18 24 30.0000000  0  9G17G24G07G08G26G13G19G11G28
   2826325.42646   2214569.93444  24078196.1334                   24078197.8714
  -3096341.38747  -2400765.00844  23046074.4534                   23046075.1914
  -9083991.26248  -7061440.32047  20282153.2734                   20282150.6334
 -15505758.53548 -12067334.74646  20992619.2664                   20992617.4344
   6151211.07056   4806775.89553  24174358.3594                   24174358.3014
  13152537.72747  10250998.72745  22463980.4774                   22463979.5394
   7908029.38347   6172075.76645  22518982.6804                   22518979.3954
 -14853642.85947 -11567061.35245  21792077.1094                   21792075.3984
 -10696326.33247  -8327850.08645  22419656.3674                   22419654.5984
 11  8 15 18 25  0.0000000  0  9G17G24G07G08G26G13G19G11G28
   2695809.09446   2112869.06644  24053359.4614                   24053360.6684
  -3191987.35947  -2475294.26644  23027873.0394                   23027875.0554
  -9125371.61748  -7093684.75847  20274278.9614                   20274275.8954
 -15595798.91448 -12137496.06246  20975485.2734                   20975483.0044
   6033936.12146   4715392.83243  24152041.9304                   24152041.7814
  13227973.96547  10309780.07444  22478336.2344                   22478334.7814
   7968237.54347   6218991.15245  22530441.0554                   22530437.7074
 -14922372.86748 -11620617.19545  21778998.5394                   21778996.5864
 -10756228.60547  -8374527.17245  22408256.9694                   22408254.4534
 11  8 15 18 25 30.0000000  0  9G17G24G07G08G26G13G19G11G28
   2565431.84846   2011276.60944  24028549.7194                   24028550.2854
  -3287437.48847  -2549670.92644  23009709.5474                   23009709.7194
  -9166380.34848  -7125639.62947  20266474.9614                   20266472.4494
 -15685641.62148 -12207503.36346  20958389.0314                   20958387.0044
   5917026.60946   4624294.57443  24129794.6884                   24129793.4224
  13303605.15647  10368713.34044  22492728.1094                   22492727.8324
   8028736.95747   6266133.52045  22541953.0554                   22541949.7074
 -14990650.32047 -11673820.38345  21766005.8364                   21766003.5234
 -10816031.53547  -8421126.84045  22396876.4844                   22396874.3094
 11  8 15 18 26  0.0000000  0  9G17G24G07G08G26G13G19G11G28
   2435197.98446   1909795.89844  24003766.7274                   24003768.2854
  -3382686.65247  -2623890.97344  22991583.9774                   22991584.8634
  -9207013.59448  -7157301.91047  20258742.7584                   20258739.9924
 -15775282.06648 -12277353.06646  20941330.3834                   20941328.6644
   5800487.80946   4533485.16443  24107617.9694                   24107617.5004
  13379430.51247  10427797.90244  22507157.5944                   22507156.1844
   8089527.18047   6313502.48045  22553520.8284                   22553517.8094
 -15058470.58247 -11726667.30945  21753099.9064                   21753097.7664
 -10875733.02047  -8467647.46145  22385515.9614                   22385513.8244
 11  8 15 18 26 30.0000000  0  9G17G24G07G08G26G13G19G11G28
   2305116.09847   1808433.59444  23979012.3364                   23979014.2624
  -3477725.24647  -2697946.94144  22973498.5474                   22973499.8364
  -9247262.96148  -7188665.06646  20251083.6024                   20251081.1334
 -15864710.88748 -12347037.85246  20924312.8134                   20924311.1484
   5684328.96146   4442971.84043  24085513.6804                   24085513.6094
  13455453.51247  10487036.47744  22521624.4454                   22521623.2034
   8150611.62147   6361100.69145  22565145.5164                   22565142.1454
 -15125824.64847 -11779151.00445  21740282.5704                   21740280.2774
 -10935327.97347  -8514085.07045  22374175.7734                   22374172.7584
 11  8 15 18 27  0.0000000  0  9G17G24G07G08G26G13G19G11G28
   2175191.47347   1707193.82444  23954288.5704                   23954290.6334
  -3572547.03947  -2771833.96144  22955454.7034                   22955455.7194
  -9287123.69148  -7219725.39847  20243498.4844                   20243495.5704
 -15953922.81247 -12416553.64546  20907336.6804                   20907333.7664
   5568556.21546   4352759.37143  24063483.4144                   24063482.2504
  13531674.00447  10546428.94144  22536128.4534                   22536127.7074
   8211990.64847   6408928.46145  22576825.4614                   22576822.0434
 -15192706.92248 -11831267.04745  21727555.1884                   21727553.0314
 -10994814.19947  -8560437.95745  22362855.7974                   22362852.7274
 11  8 15 18 27 30.0000000  0  9G17G24G07G08G26G13G19G11G28
   2045430.21146   1606081.32044  23929595.7424                   23929597.2974
  -3667144.52347  -2845546.19144  22937452.7274                   22937454.3954
  -9326589.85248  -7250478.27347  20235988.2814                   20235985.6374
 -16042911.25848 -12485895.29346  20890401.9774                   20890400.6174
   5453176.35946   4262853.03543  24041527.1564                   24041526.6174
  13608093.31347  10605976.31344  22550670.6254                   22550670.5594
   8273665.55147   6456986.77345  22588562.0394                   22588558.5784
 -15259111.69947 -11883011.02045  21714919.2974                   21714917.1994
 -11054188.03147  -8606703.28945  22351557.4534                   22351555.1954
 11  8 15 18 28  0.0000000  0  9G17G24G07G08G26G13G19G11G28
   1915836.24646   1505099.17244  23904934.5084                   23904935.9924
  -3761512.67246  -2919079.73044  22919495.4224                   22919495.9344
  -9365657.81648  -7280920.85547  20228553.6644                   20228551.1524
 -16131671.94548 -12555059.46146  20873511.9614                   20873510.1844
   5338194.03546   4173256.46143  24019646.5554                   24019646.6024
  13684710.51247  10665677.88344  22565250.6024                   22565249.0514
   8335635.89147   6505275.30945  22600354.4144                   22600351.1024
 -15325034.36748 -11934379.32045  21702374.2734                   21702372.5434
 -11113448.38747  -8652880.18445  22340280.8054                   22340278.1764
 11  8 15 18 28 30.0000000  0  9G17G24G07G08G26G13G19G11G28
   1786412.44146   1404249.64144  23880305.5394                   23880307.3164
  -3855647.46947  -2992431.43744  22901581.5554                   22901582.8874
  -9404325.15648  -7311051.27747  20221195.8524                   20221193.0234
 -16220201.53547 -12624043.54746  20856665.5084                   20856662.8984
   5223613.16046   4083972.69143  23997842.3834                   23997842.0314
  13761523.05147  10725531.69544  22579867.3834                   22579866.6254
   8397899.58247   6553792.42645  22612203.0004                   22612199.1644
 -15390471.92647 -11985369.62945  21689921.9694                   21689920.4414
 -11172595.43747  -8698968.78545  22329024.9304                   22329021.7974
 11  8 15 18 29  0.0000000  0  9G17G24G07G08G26G13G19G11G28
   1657160.31646   1303533.86744  23855709.7504                   23855711.8674
  -3949546.64546  -3065599.51243  22883712.6094                   22883714.9454
  -9442591.00048  -7340868.84047  20213914.0784                   20213911.2934
 -16308498.33647 -12692846.25046  20839862.6254                   20839860.7544
   5109435.62146   3995003.24243  23976115.4454                   23976114.3204
  13838527.67247  10785535.14544  22594521.2894                   22594520.7894
   8460452.96547   6602535.29345  22624106.9534                   22624103.3014
 -15455422.89547 -12035980.78145  21677561.9224                   21677559.8914
 -11231630.75047  -8744970.32845  22317790.5704                   22317788.3634
 11  8 15 18 29 30.0000000  0  9G17G24G07G08G26G13G19G11G28
   1528082.18446   1202953.65644  23831147.3284                   23831148.5044
  -4043206.52747  -3138581.16844  22865890.1334                   22865892.0594
  -9480453.02048  -7370371.73847  20206709.2814                   20206706.6454
 -16396559.25847 -12761465.14846  20823105.5084                   20823103.5554
   4995664.96946   3906350.81343  23954466.1954                   23954465.2074
  13915721.73047  10845686.22744  22609210.7894                   22609209.9774
   8523293.86747   6651502.16045  22636064.4924                   22636061.8754
 -15519884.60547 -12086210.66445  21665295.4774                   21665293.5394
 -11290554.55147  -8790884.95745  22306578.1094                   22306576.1994
 11  8 15 18 30  0.0000000  0  9G17G24G07G08G26G13G19G11G28
   1399180.48447   1102510.94144  23806618.4844                   23806619.4024
  -4136623.66447  -3211373.64544  22848114.2504                   22848114.6954
  -9517909.48848  -7399558.60947  20199581.8834                   20199578.9304
 -16484381.66048 -12829898.18446  20806393.2974                   20806391.5824
   4882304.07446   3818017.71943  23932892.9304                   23932893.4384
  13993102.38347  10905982.67644  22623936.1724                   22623935.6564
   8586420.19547   6700691.47345  22648077.1884                   22648074.0554
 -15583854.65248 -12136057.43745  21653122.6334                   21653120.3634
 -11349367.15247  -8836712.96945  22295386.4064                   22295383.7704
 11  8 15 18 30 30.0000000  0  9G17G24G07G08G26G13G19G11G28
   1270455.49247   1002205.89544  23782123.0004                   23782123.2544
  -4229796.93047  -3283976.10244  22830383.4384                   22830384.3054
  -9554960.59448  -7428429.62147  20192531.1024                   20192528.3634
 -16571965.05148 -12898144.98846  20789726.8204                   20789724.7034
   4769353.72346   3730004.49243  23911399.3674                   23911399.4304
  14070664.57447  10966420.60944  22638695.5084                   22638695.3914
   8649826.82047   6750099.19145  22660143.0314                   22660140.0474
 -15647332.90248 -12185521.01245  21641043.4144                   21641040.9064
 -11408071.61747  -8882456.67645  22284215.4614                   22284212.8984
 11  8 15 18 31  0.0000000  0  9G17G24G07G08G26G13G19G11G28
   1141909.90647    902040.65644  23757660.9224                   23757661.8554
  -4322722.40247  -3356385.50444  22812700.0314                   22812701.5004
  -9591603.86348  -7456982.83247  20185557.9774                   20185555.1884
 -16659305.97748 -12966202.84846  20773106.4304                   20773104.2774
   4656817.82046   3642314.24243  23889984.9304                   23889984.3164
  14148406.39847  11026998.51644  22653489.4454                   22653489.3594
   8713511.90647   6799723.90645  22672262.3914                   22672258.1174
 -15710316.19148 -12234598.89145  21629057.7344                   21629055.5314
 -11466667.71147  -8928115.97345  22273065.0634                   22273061.9384
 11  8 15 18 31 30.0000000  0  9G17G24G07G08G26G13G19G11G28
   1013543.84447    802015.30544  23733233.3204                   23733235.0204
  -4415398.69547  -3428600.69544  22795064.3444                   22795065.3714
  -9627839.89148  -7485218.71947  20178662.7034                   20178659.5904
 -16746404.01248 -13034071.44546  20756532.6094                   20756530.4064
   4544696.88746   3554947.30543  23868648.1334                   23868648.0634
  14226322.68047  11087712.35244  22668317.2814                   22668316.2114
   8777470.43847   6849561.66045  22684433.2504                   22684429.4884
 -15772804.73448 -12283291.24645  21617166.3914                   21617164.3594
 -11525158.46147  -8973693.16045  22261934.1094                   22261931.7734
 11  8 15 18 32  0.0000000  0  9G17G24G07G08G26G13G19G11G28
    885358.00046    702130.38744  23708839.7664                   23708841.4144
  -4507823.82047  -3500620.19544  22777476.4844                   22777477.5004
  -9663667.96148  -7513136.70347  20171844.6564                   20171842.1414
 -16833257.84848 -13101749.77346  20740004.3754                   20740002.4804
   4432992.63746   3467905.08643  23847391.3284                   23847391.5984
  14304409.14847  11148558.82844  22683176.2584                   22683175.6134
   8841698.69147   6899609.62145  22696655.4924                   22696651.6024
 -15834797.44547 -12331597.25045  21605369.7584                   21605367.7544
 -11583545.46947  -9019189.52045  22250824.0394                   22250821.7344
 11  8 15 18 32 30.0000000  0  9G17G24G07G08G26G13G19G11G28
   2332778.17247   1829990.39844  23984275.1644                   23984275.4614
  -3024572.58247  -2344839.91444  23059730.4694                   23059731.4064
  -8123665.85548  -6313135.08247  20464897.4064                   20464894.8524
 -15344443.09448 -11941634.37546  21023316.3984                   21023314.5664
   5897130.63746   4608791.89843  24126008.3524                   24126007.5824
  15958079.54747  12437133.01244  22997859.1414                   22997859.1604
  10481611.17647   8177463.46945  23008720.3914                   23008717.1884
 -14320870.68047 -11151914.03545  21893460.2664                   21893458.6764
 -10066408.69547  -7837004.99645  22539525.3204                   22539522.7114
 11  8 15 18 33  0.0000000  0  9G17G24G07G08G26G13G19G11G28
   2204958.04747   1730390.43844  23959951.7194                   23959952.5514
  -3116487.66447  -2416461.96944  23042238.8444                   23042239.8594
  -8158674.47748  -6340414.54747  20458235.5084                   20458232.7384
 -15430802.67248 -12008927.56246  21006882.7504                   21006880.6884
   5786266.76646   4522404.51643  24104911.9924                   24104910.5514
  16036496.41847  12498236.90644  23012782.0704                   23012781.0314
  10546369.58247   8227924.53545  23021043.4694                   23021040.1374
 -14381866.43747 -11199443.19545  21881853.4694                   21881851.5634
 -10124592.44147  -7882342.95345  22528453.5554                   22528450.7234
 11  8 15 18 33 30.0000000  0  9G17G24G07G08G26G13G19G11G28
   2077322.14847   1630934.02344  23935663.2974                   23935663.8444
  -3208144.57447  -2487882.83244  23024797.2974                   23024798.4534
  -8193272.68048  -6367374.19147  20451651.6414                   20451648.8794
 -15516912.78148 -12076026.35546  20990496.8444                   20990494.6884
   5675825.54746   4436346.43843  24083895.2894                   24083894.9024
  16115072.39147  12559464.76644  23027734.1254                   23027734.0274
  10611387.09447   8278587.49245  23033416.3984                   23033412.5474
 -14442362.72347 -11246583.15245  21870341.4144                   21870339.0124
 -10182677.52047  -7927604.04745  22517399.8674                   22517397.4304
 11  8 15 18 34  0.0000000  0  9G17G24G07G08G26G13G19G11G28
   1949869.46947   1531620.36744  23911409.8674                   23911410.7154
  -3299543.10246  -2559102.37944  23007404.9224                   23007406.0044
  -8227461.87948  -6394015.14847  20445145.6724                   20445142.8914
 -15602773.85948 -12142931.08246  20974157.7814                   20974155.8594
   5565806.61347   4350617.43043  24062960.0084                   24062958.6174
  16193801.46147  12620811.96944  23042716.0474                   23042715.5044
  10676658.09847   8329447.96145  23045836.6724                   23045833.4064
 -14502360.09047 -11293334.34845  21858923.8524                   21858922.4574
 -10240667.32847  -7972790.88345  22506364.6024                   22506362.1764
 11  8 15 18 34 30.0000000  0  9G17G24G07G08G26G13G19G11G28
   1822604.10947   1432452.65644  23887192.0474                   23887192.4614
  -3390677.82846  -2630116.34044  22990061.5084                   22990062.4534
  -8261237.91448  -6420334.15247  20438718.1724                   20438715.6604
 -15688381.10548 -12209638.02046  20957867.1484                   20957864.9264
   5456214.89547   4265221.25843  24042104.9144                   24042103.4384
  16272682.80147  12682277.77044  23057726.5634                   23057726.3094
  10742181.86747   8380505.39145  23058305.3984                   23058302.5084
 -14561854.41047 -11339693.56245  21847602.5944                   21847600.1844
 -10298560.45747  -8017902.40245  22495348.1254                   22495345.2814
 11  8 15 18 35  0.0000000  0  9G17G24G07G08G26G13G19G11G28
   1695525.30547   1333430.34844  23863009.4384                   23863010.3404
  -3481548.74246  -2700924.77044  22972769.7664                   22972770.7234
  -8294602.55548  -6446332.58647  20432369.1884                   20432366.2234
 -15773735.15248 -12276147.66846  20941624.9774                   20941622.6334
   5347050.54747   4180158.15643  24021331.1954                   24021330.4454
  16351710.77347  12743857.86744  23072765.1884                   23072765.3094
  10807953.46147   8431755.96145  23070821.2504                   23070817.9734
 -14620846.68047 -11385661.57045  21836376.5704                   21836374.9304
 -10356360.69947  -8062941.53945  22484348.9224                   22484347.2464
 11  8 15 18 35 30.0000000  0  9G17G24G07G08G26G13G19G11G28
   1568636.26247   1234555.90644  23838863.3594                   23838864.4734
  -3572151.38746  -2771524.15244  22955528.3834                   22955528.8364
  -8327552.94148  -6472008.23047  20426098.9924                   20426096.2734
 -15858832.07848 -12342456.96146  20925431.5944                   20925429.2194
   5238317.12547   4095430.85943  24000640.0164                   24000639.5434
  16430883.76647  12805550.94944  23087832.0554                   23087831.3754
  10873971.16047   8483198.27045  23083384.8134                   23083381.0864
 -14679333.41047 -11431235.64145  21825246.8134                   21825245.1484
 -10414067.30547  -8107907.68445  22473367.5314                   22473365.9844
 11  8 15 18 36  0.0000000  0  9G17G24G07G08G26G13G19G11G28
   1441937.02347   1135829.35944  23814752.7734                   23814753.7934
  -3662485.08247  -2841913.98444  22938338.9304                   22938339.2544
  -8360089.77748  -6497361.62547  20419907.2274                   20419904.5784
 -15943671.72348 -12408565.76646  20909287.1484                   20909285.3984
   5130015.30147   4011039.84443  23980030.6724                   23980029.6374
  16510195.93847  12867352.49244  23102924.4534                   23102923.7814
  10940229.55147   8534828.14845  23095993.1024                   23095989.2304
 -14737315.17247 -11476416.25445  21814213.6024                   21814211.5044
 -10471683.74647  -8152803.60945  22462403.7344                   22462401.5824
 11  8 15 18 36 30.0000000  0  9G17G24G07G08G26G13G19G11G28
   1315429.33247   1037252.05144  23790679.6024                   23790680.8634
  -3752546.66846  -2912091.75444  22921200.3134                   22921200.8794
  -8392211.46548  -6522391.52747  20413794.8594                   20413792.1604
 -16028251.56248 -12474472.13346  20893191.9064                   20893190.5124
   5022147.62946   3926987.11343  23959504.8834                   23959504.1254
  16589644.62547  12929260.40644  23118043.1954                   23118042.9224
  11006726.07847   8586643.60545  23108647.1094                   23108642.9384
 -14794789.99247 -11521201.82845  21803276.7034                   21803274.6414
 -10529210.57447  -8197629.68045  22451457.3594                   22451454.4614
 11  8 15 18 37  0.0000000  0  9G17G24G07G08G26G13G19G11G28
   1189113.59447    938824.30544  23766642.0234                   23766643.0394
  -3842334.73047  -2982056.39144  22904114.2814                   22904114.6994
  -8423918.13748  -6547098.04347  20407761.2734                   20407759.1484
 -16112570.70748 -12540175.35546  20877146.5084                   20877144.6094
   4914715.16846   3843273.56343  23939060.2974                   23939060.6844
  16669225.07047  12991270.97744  23133186.5784                   23133186.5514
  11073456.57447   8638641.36345  23121345.1024                   23121341.2774
 -14851757.61347 -11565592.18745  21792436.0474                   21792434.1134
 -10586650.07047  -8242387.73045  22440526.6414                   22440523.8444
 11  8 15 18 37 30.0000000  0  9G17G24G07G08G26G13G19G11G28
   1062990.93847    840547.02044  23742641.5784                   23742642.2344
  -3931846.68047  -3051805.90244  22887080.1254                   22887081.8204
  -8455208.96947  -6571480.52047  20401807.1414                   20401803.9224
 -16196627.00848 -12605673.78146  20861151.4454                   20861148.9264
   4807720.00046   3759900.73843  23918699.8674                   23918700.0124
  16748933.78547  13053381.50844  23148355.0784                   23148355.0784
  11140417.48047   8690818.63745  23134087.1954                   23134084.1684
 -14908216.65647 -11609586.25045  21781692.2814                   21781689.7384
 -10644003.85947  -8287078.97345  22429612.3284                   22429609.9024
 11  8 15 18 38  0.0000000  0  9G17G24G07G08G26G13G19G11G28
    937064.33647    742422.49644  23718678.5084                   23718678.7384
  -4021078.51646  -3121337.10244  22870099.9224                   22870100.7424
  -8486081.57848  -6595537.11747  20395931.8134                   20395929.3444
 -16280417.54748 -12670965.12146  20845206.5164                   20845204.0744
   4701165.69946   3676871.46143  23898423.4224                   23898422.8714
  16828768.75847  13115590.40644  23163547.0784                   23163548.2194
  11207607.21147   8743174.21545  23146873.2194                   23146869.6884
 -14964164.42648 -11653181.92245  21771045.7114                   21771043.9494
 -10701271.66447  -8331703.22345  22418714.8674                   22418711.8324
 11  8 15 18 38 30.0000000  0  9G17G24G07G08G26G13G19G11G28
    811335.84047    644452.36744  23694753.1094                   23694753.0394
  -4110027.20746  -3190647.68444  22853173.7424                   22853174.6844
  -8516534.32448  -6619266.54347  20390137.1024                   20390134.3094
 -16363939.17248 -12736046.91046  20829312.8284                   20829311.6334
   4595054.48446   3594187.46943  23878230.6094                   23878229.9534
  16908727.39547  13177895.67244  23178762.3284                   23178763.4264
  11275022.92647   8795705.90245  23159702.1094                   23159697.9184
 -15019599.09447 -11696377.75445  21760496.6804                   21760494.4024
 -10758454.30547  -8376261.11345  22407833.2034                   22407830.4454
 11  8 15 18 39  0.0000000  0  9G17G24G07G08G26G13G19G11G28
    685806.22347    546637.18844  23670865.4304                   23670866.2464
  -4198690.70747  -3259736.06244  22836301.9534                   22836302.5984
  -8546566.63348  -6642668.35947  20384421.7814                   20384419.5784
 -16447190.41048 -12800918.00046  20813470.9694                   20813469.3444
   4489388.37547   3511850.29343  23858123.3284                   23858122.9304
  16988805.12947  13240293.74244  23194001.5784                   23194002.0234
  11342660.93847   8848410.82045  23172573.3134                   23172569.1954
 -15074520.07047 -11739173.32045  21750046.1414                   21750043.2194
 -10815553.35547  -8420753.87945  22396967.8284                   22396965.3164
 11  8 15 18 39 30.0000000  0  9G17G24G07G08G26G13G19G11G28
    560479.44947    448980.05944  23647016.8444                   23647017.0274
  -4287064.45746  -3328598.63344  22819484.9454                   22819485.4574
  -8576175.79348  -6665740.44947  20378788.0784                   20378785.1884
 -16530167.39148 -12865575.39846  20797681.0704                   20797678.4734
   4384171.47746   3429863.14144  23838101.2734                   23838101.0784
  17069000.80547  13302783.71944  23209262.4534                   23209262.6484
  11410520.10247   8901288.05945  23185485.9384                   23185482.9534
 -15128923.63347 -11781565.69545  21739692.8594                   21739690.8914
 -10872568.29347  -8465181.07045  22386117.6724                   22386115.2624
 11  8 15 18 40  0.0000000  0  9G17G24G07G08G26G13G19G11G28
    435354.18847    351479.96144  23623206.2504                   23623206.3984
  -4375148.42246  -3397235.41444  22802723.4384                   22802723.4774
  -8605363.25048  -6688483.94547  20373233.4454                   20373231.1524
 -16612870.57447 -12930019.44546  20781942.6804                   20781941.0084
   4279403.40247   3348225.71144  23818164.7734                   23818164.6994
  17149308.34447  13365360.84044  23224544.2734                   23224544.9264
  11478594.44547   8954332.95745  23198440.2274                   23198437.2704
 -15182811.23847 -11823556.03545  21729438.4144                   21729436.8134
 -10929502.53547  -8509545.39545  22375283.7274                   22375281.5044
 11  8 15 18 40 30.0000000  0  9G17G24G07G08G26G13G19G11G28
    310433.80547    254139.50444  23599434.3444                   23599434.3634
  -4462937.73046  -3465642.58244  22786017.3834                   22786017.7504
  -8634125.80948  -6710896.34447  20367760.1334                   20367757.4454
 -16695295.68048 -12994246.79746  20766257.8204                   20766255.7584
   4175088.37547   3266941.32044  23798314.0864                   23798314.1844
  17229726.50847  13428024.17244  23239847.7814                   23239848.2544
  11546883.38746   9007545.04745  23211434.7274                   23211432.4454
 -15236179.23047 -11865141.46945  21719283.0164                   21719280.8634
 -10986355.26647  -8553846.21145  22364464.9304                   22364462.6804
 11  8 15 18 41  0.0000000  0  9G17G24G07G08G26G13G19G11G28
    185716.89147    156957.59444  23575701.3754                   23575701.4804
  -4550432.98846  -3533820.64544  22769367.1564                   22769367.6914
  -8662465.85248  -6732979.52047  20362367.2114                   20362364.6844
 -16777443.41848 -13058258.03146  20750625.5164                   20750624.0864
   4071225.27047   3186009.05144  23778549.5704                   23778548.8244
  17310249.07847  13490768.84044  23255169.8914                   23255171.4414
  11615380.32447   9060919.23445  23224470.2034                   23224466.8364
 -15289029.75847 -11906323.69945  21709225.6174                   21709223.6954
 -11043130.82847  -8598086.89845  22353661.0164                   22353658.4414
 11  8 15 18 41 30.0000000  0  9G17G24G07G08G26G13G19G11G28
     61207.05947     59937.04744  23552007.6024                   23552008.2774
  -4637629.39847  -3601765.82444  22752774.2274                   22752775.5044
  -8690380.04748  -6754730.86747  20357055.1644                   20357052.7894
 -16859310.15648 -13122050.29746  20735047.0704                   20735044.7464
   3967818.17647   3105432.09044  23758871.5164                   23758871.2194
  17390874.28147  13553593.47744  23270513.6954                   23270513.8834
  11684084.38747   9114454.82845  23237543.8524                   23237540.7074
 -15341359.52347 -11947100.12145  21699267.4534                   21699265.5084
 -11099828.09847  -8642266.58645  22342871.9064                   22342869.0744
 11  8 15 18 42  0.0000000  0  9G17G24G07G08G26G13G19G11G28
    -63091.06647    -36918.53544  23528354.5474                   23528355.1884
  -4724521.23847  -3669473.66444  22736239.7664                   22736240.2814
  -8717864.70348  -6776147.51247  20351825.1724                   20351822.8164
 -16940890.18048 -13185619.14546  20719522.8984                   20719520.6914
   3864872.59447   3025214.77744  23739282.1094                   23739281.9144
  17471602.06347  13616498.05144  23285875.3204                   23285875.6564
  11752995.74646   9168151.95345  23250657.1644                   23250654.3674
 -15393163.82048 -11987467.10945  21689409.3524                   21689407.4494
 -11156445.16847  -8686383.77345  22332097.6094                   22332095.6994
 11  8 15 18 42 30.0000000  0  9G17G24G07G08G26G13G19G11G28
   -187178.79347   -133610.19144  23504741.8444                   23504742.0984
  -4811108.96147  -3736944.54744  22719762.2814                   22719762.9924
  -8744921.43747  -6797230.69547  20346676.4304                   20346674.0904
 -17022184.46548 -13248965.34446  20704052.9534                   20704051.1884
   3762387.52747   2945356.32843  23719779.8674                   23719779.5234
  17552425.96147  13679477.55144  23301256.3364                   23301256.0124
  11822108.18447   9222005.74245  23263809.2894                   23263806.1644
 -15444444.48448 -12027426.05145  21679651.3984                   21679649.3754
 -11212986.06647  -8730441.59845  22321338.7194                   22321336.0944
 11  8 15 18 43  0.0000000  0  9G17G24G07G08G26G13G19G11G28
   -311053.27747   -230135.66044  23481168.8984                   23481169.5664
  -4897388.46547  -3804175.26244  22703343.1094                   22703344.4184
  -8771547.58248  -6817978.36747  20341609.8834                   20341607.2114
 -17103189.39148 -13312086.06646  20688638.1414                   20688636.1254
   3660366.42647   2865859.37944  23700365.8674                   23700364.7584
  17633344.20747  13742530.56644  23316654.3444                   23316655.1604
  11891420.17647   9276015.03945  23276998.7974                   23276995.3954
 -15495198.80148 -12066974.87545  21669993.2504                   21669991.1644
 -11269450.69547  -8774440.00045  22310593.8834                   22310591.5124
 11  8 15 18 43 30.0000000  0  9G17G24G07G08G26G13G19G11G28
   -434710.25047   -326491.68045  23457638.0394                   23457637.9104
  -4983354.38346  -3871161.63344  22686984.6254                   22686985.3364
  -8797739.71948  -6838387.84847  20336625.6254                   20336623.0824
 -17183900.11748 -13374977.54346  20673279.6254                   20673277.7074
   3558814.44147   2786727.98443  23681040.5394                   23681040.5904
  17714356.24647  13805656.65644  23332070.5634                   23332070.9144
  11960931.28947   9330179.49644  23290226.0084                   23290223.4024
 -15545422.40647 -12106110.14145  21660435.7034                   21660433.9804
 -11325837.34047  -8818377.63745  22299863.4304                   22299861.6644
 11  8 15 18 44  0.0000000  0  9G17G24G07G08G26G13G19G11G28
   -558150.37947   -422678.72345  23434147.6564                   23434148.2274
  -5069006.59847  -3937903.58245  22670685.4844                   22670686.8554
  -8823499.46148  -6858460.39847  20331723.9144                   20331721.2774
 -17264316.93048 -13437639.99646  20657976.5704                   20657974.7074
   3457731.01247   2707961.66843  23661805.5784                   23661805.0634
  17795456.10547  13868851.15244  23347503.3364                   23347504.4144
  12030636.18046   9384494.94944  23303490.4534                   23303488.0824
 -15595116.71147 -12144832.97345  21650979.4454                   21650977.4804
 -11382149.35547  -8862257.12545  22289147.8834                   22289145.4804
 11  8 15 18 44 30.0000000  0  9G17G24G07G08G26G13G19G11G28
   -681370.98847   -518694.70745  23410699.4774                   23410700.5084
  -5154340.75046  -4004397.66044  22654447.2194                   22654447.5314
  -8848824.08647  -6878193.90647  20326904.4144                   20326902.1764
 -17344435.51248 -13500070.05546  20642730.5704                   20642728.4224
   3357119.96546   2629563.48043  23642659.4924                   23642658.8284
  17876642.62947  13932113.18443  23362952.6254                   23362953.8484
  12100533.50847   9438960.34044  23316791.1644                   23316788.7504
 -15644279.18047 -12183141.38345  21641623.7814                   21641621.8794
 -11438386.41047  -8906078.18745  22278446.1254                   22278444.1884
 11  8 15 18 45  0.0000000  0  9G17G24G07G08G26G13G19G11G28
   -804368.28947   -614536.67244  23387294.3284                   23387294.7504
  -5239352.01647  -4070640.15244  22638269.9844                   22638270.4614
  -8873710.38348  -6897585.85247  20322169.0634                   20322166.4184
 -17424251.87548 -13562264.64146  20627542.2034                   20627540.2664
   3256985.41047   2551536.58243  23623605.1024                   23623603.6954
  17957914.52347  13995441.73843  23378418.6804                   23378418.6684
  12170622.19346   9493574.89544  23330128.5704                   23330126.1214
 -15692906.59847 -12221032.88745  21632370.6954                   21632369.3014
 -11494547.36747  -8949839.97345  22267759.4924                   22267756.6884
 11  8 15 18 45 30.0000000  0  9G17G24G07G08G26G13G19G11G28
   -927143.09847   -710205.27044  23363930.2734                   23363931.3524
  -5324040.05947  -4136630.80144  22622154.5784                   22622154.6994
  -8898159.71548  -6916637.31647  20317516.6954                   20317513.7464
 -17503766.16448 -13624223.82446  20612411.3284                   20612409.1724
   3157327.37547   2473880.98843  23604641.1254                   23604640.5164
  18039266.06347  14058832.34843  23393899.0394                   23393899.4384
  12240897.16846   9548334.52344  23343501.8134                   23343498.9614
 -15740999.72348 -12258508.02745  21623219.0234                   21623216.3364
 -11550635.17647  -8993544.74645  22257086.0784                   22257083.9844
 11  8 15 18 46  0.0000000  0  9G17G24G07G08G26G13G19G11G28
  -1049692.55947   -805698.28945  23340610.0474                   23340610.9924
  -5408401.04747  -4202366.60244  22606101.4144                   22606101.1564
  -8922169.90248  -6935346.56647  20312947.2664                   20312944.5514
 -17582974.81648 -13685944.84846  20597338.3914                   20597336.3524
   3058148.98846   2396599.16443  23585767.0554                   23585766.4454
  18120695.41847  14122283.60543  23409394.4534                   23409394.7664
  12311356.27746   9603237.66044  23356910.7194                   23356906.7894
 -15788556.14547 -12295564.96945  21614168.5784                   21614167.0514
 -11606649.98847  -9037192.63345  22246426.9694                   22246424.1644
 11  8 15 18 46 30.0000000  0  9G17G24G07G08G26G13G19G11G28
  -1172015.60247   -901014.88345  23317332.5234                   23317333.6524
  -5492432.92247  -4267845.94544  22590110.3134                   22590110.3914
  -8945740.94948  -6953713.64147  20308461.8754                   20308459.4964
 -17661876.33248 -13747426.54346  20582323.6094                   20582321.4844
   2959451.68446   2319692.20743  23566986.1254                   23566985.3874
  18202198.48847  14185792.28943  23424904.6884                   23424904.8164
  12381996.30546   9658281.79344  23370352.7504                   23370349.2934
 -15835575.57848 -12332203.47745  21605221.4924                   21605218.8874
 -11662593.37948  -9080784.87545  22235781.4064                   22235778.4454
 11  8 15 18 47  0.0000000  0  9G17G24G07G08G26G13G19G11G28
  -1294111.57047   -996154.52344  23294098.3834                   23294098.6294
  -5576133.78147  -4333067.34844  22574182.5864                   22574182.8954
  -8968872.41048  -6971738.15247  20304060.4924                   20304057.8714
 -17740468.85948 -13808667.48446  20567367.8674                   20567366.1174
   2861236.89546   2243161.23443  23548295.5634                   23548295.1414
  18283771.59047  14249355.55143  23440427.6254                   23440427.7384
  12452813.59047   9713464.02044  23383828.6724                   23383825.1214
 -15882057.23448 -12368422.93445  21596376.3444                   21596374.3674
 -11718466.95747  -9124322.70345  22225148.6414                   22225146.1374
 11  8 15 18 47 30.0000000  0  9G17G24G07G08G26G13G19G11G28
  -1415977.35947  -1091114.78144  23270907.9844                   23270907.9384
  -5659499.54747  -4398027.66044  22558318.8364                   22558318.9304
  -8991561.65248  -6989418.09847  20299742.5944                   20299740.2894
 -17818748.77748 -13869664.82446  20552471.7894                   20552470.1564
   2763508.09846   2167008.95743  23529698.6644                   23529697.9224
  18365412.87947  14312971.91444  23455963.9224                   23455964.3714
  12523806.76247   9768783.32444  23397338.2814                   23397334.6484
 -15927998.74648 -12404221.51245  21587634.0634                   21587631.7234
 -11774270.36747  -9167805.87145  22214529.4534                   22214527.0234
 11  8 15 18 48  0.0000000  0  9G17G24G07G08G26G13G19G11G28
  -1537613.62547  -1185896.21944  23247761.5234                   23247761.7424
  -5742529.83647  -4462726.57044  22542518.5864                   22542517.9144
  -9013809.93448  -7006754.44547  20295509.0234                   20295506.2154
 -17896716.16448 -13930418.64146  20537635.2114                   20537633.1684
   2666265.38747   2091235.41844  23511194.5864                   23511193.6254
  18447116.90647  14376637.23043  23471511.3754                   23471512.0984
  12594970.29346   9824235.35244  23410880.6094                   23410877.2704
 -15973400.92248 -12439599.80145  21578993.9304                   21578992.3204
 -11830006.71147  -9211236.77045  22203923.4924                   22203920.9304
 11  8 15 18 48 30.0000000  0  9G17G24G07G08G26G13G19G11G28
  -1659019.35947  -1280497.98844  23224659.0704                   23224658.9384
  -5825222.12947  -4527162.08244  22526782.4614                   22526782.9144
  -9035616.84048  -7023746.86347  20291359.0784                   20291357.0204
 -17974368.80148 -13990927.20346  20522858.4534                   20522856.6374
   2569510.12146   2015841.72743  23492782.2974                   23492781.3754
  18528880.35247  14440348.81343  23487070.4774                   23487071.6054
  12666301.33647   9879817.89544  23424454.3754                   23424451.1214
 -16018263.27748 -12474557.47745  21570457.2504                   21570454.7234
 -11885677.07047  -9254616.26645  22193329.3054                   22193326.9774
 11  8 15 18 49  0.0000000  0  9G17G24G07G08G26G13G19G11G28
  -1780193.06247  -1374918.96144  23201600.0944                   23201599.8954
  -5907574.16047  -4591332.48044  22511111.5394                   22511111.7034
  -9056981.72748  -7040394.85247  20287293.7114                   20287291.0164
 -18051704.73448 -14051188.95346  20508141.9304                   20508140.0004
   2473244.03947   1940829.20744  23474463.5164                   23474463.0704
  18610699.53147  14504103.81643  23502640.3524                   23502641.1844
  12737796.35947   9935528.25044  23438059.1884                   23438056.2934
 -16062584.94948 -12509093.82445  21562023.0234                   21562020.7774
 -11941283.03548  -9297945.59445  22182748.1564                   22182745.6294
 11  8 15 18 49 30.0000000  0  9G17G24G07G08G26G13G19G11G28
  -1901131.91847  -1469156.96544  23178586.0704                   23178585.9184
  -5989582.16447  -4655234.80144  22495505.3754                   22495506.3954
  -9077902.20748  -7056696.55147  20283312.7974                   20283310.5664
 -18128720.45748 -14111201.21546  20493486.5634                   20493483.9654
   2377470.62947   1866200.60244  23456238.2344                   23456238.1884
  18692572.68847  14567900.85243  23518220.8594                   23518220.5274
  12809454.28147   9991365.53144  23451695.6724                   23451692.1884
 -16106363.73448 -12543207.15645  21553692.0704                   21553689.7234
 -11996824.18447  -9341224.39845  22172179.2664                   22172177.0084
 11  8 15 18 50  0.0000000  0  9G17G24G07G08G26G13G19G11G28
  -2021835.02747  -1563211.24245  23155617.2504                   23155617.6294
  -6071243.85247  -4718867.24244  22479965.8284                   22479966.1214
  -9098377.85948  -7072651.62547  20279416.1954                   20279413.7664
 -18205413.94148 -14170962.36746  20478892.0784                   20478890.0554
   2282191.46547   1791957.10244  23438107.5084                   23438107.8244
  18774496.03947  14631737.03144  23533810.8594                   23533811.9264
  12881271.69547  10047327.10944  23465362.2034                   23465358.4144
 -16149598.81648 -12576896.82045  21545465.1804                   21545462.5314
 -12052301.64847  -9384453.57845  22161621.8204                   22161619.5314
 11  8 15 18 50 30.0000000  0  9G17G24G07G08G26G13G19G11G28
  -2142301.84847  -1657081.39545  23132693.2504                   23132693.7344
  -6152557.70347  -4782228.64844  22464491.9924                   22464493.1294
  -9118409.10248  -7088260.40247  20275604.6644                   20275602.1484
 -18281784.35548 -14230471.77346  20464359.0474                   20464357.0744
   2187407.31647   1718099.37144  23420070.5634                   23420070.8324
  18856465.44147  14695609.08243  23549408.7344                   23549409.1564
  12953244.35947  10103409.67644  23479058.6564                   23479054.3444
 -16192290.24248 -12610162.85545  21537340.9534                   21537338.6644
 -12107717.96948  -9427635.10945  22151076.8204                   22151074.1994
 11  8 15 18 51  0.0000000  0  9G17G24G07G08G26G13G19G11G28
  -2262530.84047  -1750766.21945  23109813.8834                   23109814.6174
  -6233521.19547  -4845317.07444  22449085.1484                   22449086.2424
  -9137994.95348  -7103522.12147  20271877.5394                   20271874.8874
 -18357828.99648 -14289727.34446  20449888.1804                   20449886.4734
   2093120.22747   1644628.93444  23402128.5164                   23402127.8404
  18938477.76247  14759514.57843  23565015.2894                   23565016.1564
  13025369.47346  10159611.01244  23492782.9224                   23492779.9264
 -16234436.91048 -12643004.40645  21529320.8444                   21529318.3094
 -12163073.33647  -9470769.14145  22140542.6254                   22140540.2974
 11  8 15 18 51 30.0000000  0  9G17G24G07G08G26G13G19G11G28
  -2382516.25047  -1844261.25045  23086981.7974                   23086982.1414
  -6314127.28546  -4908126.98445  22433746.3364                   22433747.7384
  -9157130.28148  -7118432.78546  20268236.0704                   20268233.7664
 -18433541.23048 -14348723.90246  20435480.7734                   20435478.5434
   1999336.37947   1571550.63344  23384281.9844                   23384280.7504
  19020534.30547  14823454.53543  23580629.9844                   23580631.8984
  13097648.54746  10215932.30544  23506537.1954                   23506533.8834
 -16276033.83648 -12675417.57845  21521404.9694                   21521402.8484
 -12218364.50448  -9513853.14545  22130020.9224                   22130018.6024
 11  8 15 18 52  0.0000000  0  9G17G24G07G08G26G13G19G11G28
  -2502257.70747  -1937566.20745  23064195.6884                   23064195.8524
  -6394374.36747  -4970657.14845  22418476.5394                   22418476.7774
  -9175815.32448  -7132992.57447  20264680.2974                   20264678.0984
 -18508920.08648 -14407460.68446  20421136.7344                   20421134.8914
   1906056.95747   1498865.39544  23366531.7114                   23366531.3364
  19102630.80547  14887425.60943  23596253.2814                   23596254.2234
  13170077.70346  10272370.54344  23520320.2504                   23520316.5124
 -16317080.86748 -12707402.26645  21513594.0164                   21513592.0944
 -12273593.49248  -9556888.71945  22119511.6724                   22119508.7074
 11  8 15 18 52 30.0000000  0  9G17G24G07G08G26G13G19G11G28
  -2621751.34047  -2030678.02345  23041456.5004                   23041456.5274
  -6474257.97747  -5032904.09045  22403274.6414                   22403275.6174
  -9194046.79748  -7147198.93747  20261211.3284                   20261208.7814
 -18583961.34448 -14465934.37946  20406856.9224                   20406854.4774
   1813285.53947   1426575.98044  23348878.0554                   23348877.3634
  19184766.35946  14951427.12943  23611882.5314                   23611884.5944
  13242656.02346  10328925.02344  23534130.5084                   23534128.3324
 -16357574.89848 -12738956.05545  21505888.5234                   21505886.2424
 -12328759.16847  -9599874.94945  22109014.0474                   22109011.4344
 11  8 15 18 53  0.0000000  0  9G17G24G07G08G26G13G19G11G28
  -2740995.20747  -2123595.23845  23018764.9924                   23018764.6644
  -6553775.16047  -5094865.52045  22388143.2194                   22388144.3834
  -9211823.74248  -7161051.11747  20257828.0864                   20257825.8954
 -18658661.67248 -14524142.43446  20392641.9064                   20392639.5204
   1721024.75847   1354684.50844  23331320.9844                   23331320.3404
  19266938.12546  15015456.86343  23627519.5314                   23627521.6844
  13315381.64846  10385594.26644  23547970.2114                   23547967.8984
 -16397514.74248 -12770078.00445  21498288.0394                   21498285.7734
 -12383862.10248  -9642812.28545  22098528.0394                   22098525.3484
 11  8 15 18 53 30.0000000  0  9G17G24G07G08G26G13G19G11G28
  -2859985.38347  -2216314.77745  22996122.2584                   22996121.8204
  -6632920.48047  -5156537.19145  22373082.2274                   22373082.6884
  -9229142.83248  -7174546.53546  20254532.3674                   20254530.2854
 -18733016.50448 -14582081.27746  20378492.7894                   20378490.9104
   1629279.32447   1283194.57844  23313862.8284                   23313862.4614
  19349145.76646  15079514.54343  23643163.0394                   23643165.0084
  13388254.24246  10442378.03544  23561837.7274                   23561835.5004
 -16436896.99248 -12800765.45745  21490793.5164                   21490791.4384
 -12438900.38748  -9685699.27345  22088054.4454                   22088052.5004
 11  8 15 18 54  0.0000000  0  9G17G24G07G08G26G13G19G11G28
  -2978714.37947  -2308830.78545  22973528.9454                   22973528.2974
  -6711685.09047  -5217912.18445  22358093.7664                   22358095.0824
  -9245996.75848  -7187679.48046  20251325.2424                   20251322.9694
 -18807017.23848 -14639744.18746  20364410.7584                   20364408.8054
   1538057.11346   1212112.34044  23296503.0234                   23296503.0234
  19431392.35246  15143602.60943  23658814.8204                   23658816.1684
  13461276.96947  10499278.80144  23575733.4224                   23575730.8404
 -16475714.32048 -12831012.71945  21483406.9304                   21483405.0044
 -12493868.46548  -9728531.54345  22077594.5634                   22077592.1054
 11  8 15 18 54 30.0000000  0  9G17G24G07G08G26G13G19G11G28
  -3097182.03947  -2401143.18745  22950984.9384                   22950984.1844
  -6790068.43447  -5278990.10245  22343178.0784                   22343178.8364
  -9262386.46148  -7200450.69546  20248206.7274                   20248203.8364
 -18880662.87948 -14697130.41046  20350396.4774                   20350394.1024
   1447358.25846   1141437.89143  23279243.7734                   23279243.2774
  19513672.96146  15207717.14143  23674472.0314                   23674474.6174
  13534445.50046  10556293.17244  23589657.1644                   23589654.4924
 -16513967.81648 -12860820.62545  21476127.9844                   21476125.3794
 -12548768.91448  -9771311.10945  22067147.6024                   22067144.9774
 11  8 15 18 55  0.0000000  0  9G17G24G07G08G26G13G19G11G28
  -3215380.82447  -2493246.07445  22928492.3594                   22928491.8594
  -6868061.77747  -5339764.12145  22328336.5634                   22328336.6094
  -9278305.21148  -7212854.93446  20245177.5004                   20245174.8164
 -18953945.52048 -14754233.76646  20336451.1484                   20336449.0704
   1357190.62546   1071177.43443  23262085.5864                   23262084.8444
  19595990.67646  15271860.62943  23690137.3444                   23690139.3794
  13607763.08646  10613423.71144  23603608.5634                   23603606.4264
 -16551650.45747 -12890183.71545  21468956.7734                   21468954.3634
 -12603596.78148  -9814034.12545  22056713.6414                   22056711.7344
 11  8 15 18 55 30.0000000  0  9G17G24G07G08G26G13G19G11G28
  -3333309.05547  -2585138.12545  22906051.3054                   22906050.6024
  -6945662.20747  -5400231.95744  22313569.4534                   22313570.1954
  -9293751.94948  -7224891.37147  20242238.1094                   20242235.3754
 -19026862.55148 -14811052.23846  20322575.5944                   20322573.7734
   1267556.49647   1001332.68044  23245027.8834                   23245027.5084
  19678342.94546  15336030.99643  23705808.4694                   23705810.3674
  13681227.25446  10670668.44944  23617588.4144                   23617586.1684
 -16588761.07048 -12919101.06245  21461895.0084                   21461892.2774
 -12658352.46148  -9856700.88345  22046294.3054                   22046291.7854
 11  8 15 18 56  0.0000000  0  9G17G24G07G08G26G13G19G11G28
  -3450961.25047  -2676815.09845  22883662.3524                   22883662.5044
  -7022863.18747  -5460388.53144  22298878.6804                   22298878.4574
  -9308721.97748  -7236556.34847  20239389.7114                   20239387.0234
 -19099407.94548 -14867581.12546  20308770.4384                   20308768.4224
   1178461.52346    931908.05144  23228074.0084                   23228074.1134
  19760730.52746  15400228.89844  23721487.1804                   23721489.0204
  13754839.41446  10728028.51244  23631596.5084                   23631593.5004
 -16625294.90248 -12947568.96945  21454943.0314                   21454940.8594
 -12713032.75848  -9899308.91445  22035888.8444                   22035886.1374
 11  8 15 18 56 30.0000000  0  9G17G24G07G08G26G13G19G11G28
  -3568338.14547  -2768277.53145  22861326.6484                   22861326.6994
  -7099664.32847  -5520233.56245  22284263.9844                   22284264.3054
  -9323216.65648  -7247850.92647  20236631.0784                   20236628.6724
 -19171581.33248 -14923820.13746  20295036.7974                   20295034.6764
   1089905.62946    862903.46944  23211221.9144                   23211221.8794
  19843148.09047  15464450.14143  23737170.4614                   23737172.5634
  13828594.71546  10785500.10543  23645631.5164                   23645629.0394
 -16661253.36748 -12975588.53945  21448099.9844                   21448097.7704
 -12767640.51648  -9941860.41045  22025497.2194                   22025494.8484
 11  8 15 18 57  0.0000000  0  9G17G24G07G08G26G13G19G11G28
  -3685438.14847  -2859524.19945  22839043.4534                   22839042.7194
  -7176063.19947  -5579765.11344  22269725.1724                   22269725.5664
  -9337235.15248  -7258774.45747  20233963.4454                   20233961.0274
 -19243380.35248 -14979767.43446  20281373.3914                   20281371.9884
   1001890.46946    794320.25044  23194474.0864                   23194473.4494
  19925593.15247  15528692.84044  23752859.0474                   23752860.9884
  13902490.34446  10843081.05144  23659693.6644                   23659690.9224
 -16696635.51248 -13003159.02045  21441367.2034                   21441364.7624
 -12822176.76248  -9984356.19145  22015119.4454                   22015117.1644
 11  8 15 18 57 30.0000000  0  9G17G24G07G08G26G13G19G11G28
  -3802258.92647  -2950553.33645  22816812.5394                   22816812.4344
  -7252056.25047  -5638980.44544  22255264.3134                   22255264.8284
  -9350775.80948  -7269325.63746  20231387.2114                   20231384.4534
 -19314801.57048 -15035420.32846  20267782.6724                   20267780.6414
    914418.84047    726160.53944  23177829.1564                   23177828.2344
  20008063.12547  15592954.92243  23768552.3054                   23768554.7234
  13976524.17647  10900769.69944  23673782.4694                   23673779.2114
 -16731439.68047 -13030279.14145  21434743.8914                   21434742.2154
 -12876641.00448 -10026795.85546  22004755.6954                   22004753.0274
 11  8 15 18 58  0.0000000  0  9G17G24G07G08G26G13G19G11G28
  -3918803.75447  -3041367.41045  22794635.1254                   22794635.1454
  -7327645.62947  -5697881.21944  22240879.9454                   22240881.3204
  -9363842.46548  -7279507.46947  20228900.2114                   20228897.8324
 -19385847.14548 -15090780.52746  20254263.0634                   20254261.1024
    827487.91447    658422.17644  23161285.9924                   23161285.6334
  20090550.36747  15657230.44143  23784249.5314                   23784252.2154
  14050689.42247  10958560.74644  23687895.9454                   23687892.5164
 -16765669.74248 -13056951.89845  21428230.3364                   21428227.9574
 -12931038.86747 -10069183.80145  21994403.8204                   21994401.4694
 11  8 15 18 58 30.0000000  0  9G17G24G07G08G26G13G19G11G28
  -4035070.15647  -3131964.52745  22772510.1644                   22772509.8714
  -7402828.08647  -5756464.88744  22226572.9614                   22226574.3324
  -9376433.68048  -7289318.82446  20226504.3524                   20226501.8324
 -19456513.97748 -15145845.60246  20240815.5554                   20240813.6914
    741100.06347    591106.98844  23144847.2504                   23144846.9924
  20173052.99246  15721517.97343  23799949.4064                   23799951.8874
  14124984.12147  11016452.66445  23702034.0314                   23702031.0824
 -16799324.24648 -13083176.18445  21421826.0314                   21421823.7504
 -12985370.25847 -10111519.93045  21984064.4844                   21984062.4964
 11  8 15 18 59  0.0000000  0  9G17G24G07G08G26G13G19G11G28
  -4151057.47747  -3222344.18745  22750438.4224                   22750438.4064
  -7477601.84447  -5814730.10944  22212344.3134                   22212345.2384
  -9388549.26248  -7298759.56247  20224199.0944                   20224196.5904
 -19526800.39848 -15200614.25446  20227440.7974                   20227438.4574
    655256.48046    524215.83244  23128511.8444                   23128511.3914
  20255567.47346  15785814.71543  23815651.6024                   23815654.3984
  14199404.91847  11074442.82845  23716195.6804                   23716192.1884
 -16832403.52047 -13108952.21945  21415530.9924                   21415529.1414
 -13039636.62148 -10153805.41845  21973738.1954                   21973735.7894
 11  8 15 18 59 30.0000000  0  9G17G24G07G08G26G13G19G11G28
  -4266767.14547  -3312507.52745  22728419.3524                   22728419.7154
  -7551967.33647  -5872677.19144  22198193.2664                   22198193.9024
  -9400191.77048  -7307831.67647  20221983.2114                   20221981.2424
 -19596707.10248 -15255087.02746  20214137.6254                   20214135.6994
    569955.89146    457747.84444  23112278.4454                   23112279.1134
  20338087.64546  15850115.92243  23831354.7974                   23831356.8754
  14273946.07847  11132526.77345  23730380.1334                   23730377.4884
 -16864909.72747 -13134281.73445  21409345.4694                   21409343.2274
 -13093841.41848 -10196042.93046  21963423.5944                   21963421.2734
 11  8 15 19  0  0.0000000  0  9G17G24G07G08G26G13G19G11G28
  -2806773.53947  -2174850.09045  23006247.1024                   23006247.1564
  -6050499.26247  -4702702.04345  22483912.8204                   22483914.1484
  -7835939.64548  -6088933.93447  20519650.6254                   20519648.0004
 -18090809.18448 -14081660.08246  20500700.3594                   20500698.2504
   2060623.16447   1619306.77044  23395944.3674   23395943.6804   21996028.11346
  17142017.35543                  24146850.5164                   24146852.0824
  15924023.01647  12418300.91844  24044378.8984                   24044376.7464
 -15321420.62548 -11931562.94145  21703061.5704                   21703059.7504
 -11572563.34848  -9010631.43446  22252912.8594                   22252911.1294
 11  8 15 19  0 30.0000000  0  9G17G24G07G08G26G13G19G11G28
  -2921922.44547  -2264576.45345  22984335.2424                   22984335.2814
  -6124039.32447  -4760005.93745  22469918.9224                   22469919.6484
  -7846632.39848  -6097265.96947  20517616.0164                   20517613.4494
 -18159948.02748 -14135534.51646  20487543.5864                   20487541.8984
   1976415.24247   1553690.19544  23379920.2034   23379918.7384   22078552.18846
  17206321.59043                  24162554.7734                   24162557.0864
  15998798.59847  12476567.53544  24058608.9454                   24058605.8834
 -15352776.89547 -11955996.39145  21697094.7424                   21697092.5594
 -11626646.02347  -9052773.78145  22242621.5474                   22242619.1914
 11  8 15 19  1  0.0000000  0  9G17G24G07G08G26G13G19G11G28
  -3036791.73847  -2354084.90645  22962476.0634                   22962475.9304
  -6197166.19147  -4816987.85945  22456003.4144                   22456003.7074
  -7856852.44148  -6105229.67247  20515671.1644                   20515668.6644
 -18228702.23848 -14189109.23446  20474460.3054                   20474458.5204
   1892752.97346   1488498.81344  23363998.8674   23363999.2074   22161070.67246
  17270621.46143                  24178257.7894                   24178259.9884
  16073684.53146  12534920.08243  24072857.1334                   24072856.1374
 -15383560.46948 -11979983.58245  21691236.7274                   21691234.6914
 -11680671.98847  -9094871.92246  22232340.3674                   22232337.9774
 11  8 15 19  1 30.0000000  0  9G17G24G07G08G26G13G19G11G28
  -3151383.52047  -2443377.13345  22940670.1334                   22940669.5704
  -6269880.81247  -4873648.56645  22442165.9064                   22442166.4024
  -7866602.29348  -6112826.97747  20513815.7194                   20513813.5204
 -18297073.28548 -14242385.39546  20461449.7504                   20461447.9384
   1809634.55546   1423731.23444  23348182.6884   23348182.4144   22243577.36346
  17334912.15243                  24193958.8834                   24193960.3594
  16148674.65246  12593353.81643  24087128.4694                   24087126.1254
 -15413774.26248 -12003526.79745  21685487.2974                   21685485.2854
 -11734645.10548  -9136928.89146  22222069.7504                   22222067.7734
 11  8 15 19  2  0.0000000  0  9G17G24G07G08G26G13G19G11G28
  -3265697.78947  -2532453.09045  22918916.4144                   22918916.6484
  -6342181.89547  -4929987.02345  22428407.8524                   22428408.6054
  -7875882.82448  -6120058.59447  20512049.8364                   20512047.3984
 -18365060.11748 -14295362.15646  20448512.3204                   20448510.6914
   1727060.44547   1359387.78544  23332469.1174   23332468.8164   22326068.18046
  17399190.50443                  24209655.7344                   24209657.7814
  16223765.01646  12651865.70343  24101418.3444                   24101415.5044
 -15443419.16848 -12026626.71945  21679846.0554                   21679844.3554
 -11788567.28548  -9178946.17246  22211808.8594                   22211806.5394
 11  8 15 19  2 30.0000000  0  9G17G24G07G08G26G13G19G11G28
  -3379733.55547  -2621312.06645  22897216.0944                   22897216.2584
  -6414067.98047  -4986002.10945  22414728.0164                   22414728.6884
  -7884693.83247  -6126924.33247  20510373.0864                   20510370.5234
 -18432661.28148 -14348038.41046  20435648.2584                   20435646.7544
   1645031.56646   1295469.21144  23316859.5234   23316858.7774   22408539.29746
  17463453.44143                  24225350.0394                   24225351.7544
  16298952.21947  12710453.07443  24115726.0394                   24115722.7664
 -15472494.88347 -12049283.10945  21674313.3204                   21674311.2624
 -11842440.10247  -9220924.97746  22201557.5314                   22201554.8984
 11  8 15 19  3  0.0000000  0  9G17G24G07G08G26G13G19G11G28
  -3493487.47347  -2709951.39845  22875568.9144                   22875568.5744
  -6485534.46548  -5041690.25045  22401128.7344                   22401128.8484
  -7893033.52048  -6133422.82846  20508786.2114                   20508783.4414
 -18499872.28148 -14400410.62546  20422858.1954                   20422856.7584
   1563551.37147   1231978.14844  23301354.9924   23301353.9494   22490989.67246
  17527700.25843                  24241040.2034                   24241041.9614
  16374235.85547  12769115.63343  24130052.2584                   24130048.9144
 -15500999.28948 -12071494.33645  21668888.9694                   21668886.6454
 -11896262.21148  -9262864.28145  22191314.9924                   22191312.9454
 11  8 15 19  3 30.0000000  0  9G17G24G07G08G26G13G19G11G28
  -3606957.59847  -2798369.60245  22853976.5704                   22853976.3134
  -6556578.03547  -5097048.82845  22387609.5634                   22387609.9534
  -7900900.05148  -6139552.61346  20507289.2424                   20507286.6604
 -18566689.68748 -14452476.14546  20410143.5394                   20410141.6884
   1482622.32047   1168916.57844  23285953.8134   23285953.8204   22573417.62946
  17591929.62943                  24256725.7974                   24256726.5864
  16449614.39547  12827852.13744  24144396.6804                   24144393.6334
 -15528931.06648 -12093259.35945  21663573.6414                   21663571.4614
 -11950033.31248  -9304763.84846  22181082.7274                   22181080.2664
 11  8 15 19  4  0.0000000  0  9G17G24G07G08G26G13G19G11G28
  -3720145.46147  -2886567.85245  22832437.6254                   22832437.5704
  -6627199.50447  -5152078.50845  22374170.7114                   22374171.1994
  -7908296.23848  -6145315.91446  20505881.6564                   20505879.2074
 -18633114.73448 -14504235.94546  20397503.4774                   20397501.4884
   1402242.72347   1106283.14844  23270657.8444   23270658.4344   22655816.84446
  17656136.60543                  24272405.8284                   24272407.2934
  16525081.56647  12886657.66844  24158757.7584                   24158754.9534
 -15556293.05148 -12114580.39145  21658367.0944                   21658365.0514
 -12003757.39848  -9346626.77345  22170859.5164                   22170857.2854
 11  8 15 19  4 30.0000000  0  9G17G24G07G08G26G13G19G11G28
  -3833048.96547  -2974544.53545  22810953.0084                   22810952.6294
  -6697395.62547  -5206776.74245  22360812.6254                   22360813.4304
  -7915220.21948  -6150711.25846  20504564.2274                   20504561.6054
 -18699143.87548 -14555687.23046  20384938.5704                   20384936.6884
   1322415.25047   1044079.92244  23255467.3834   23255467.3244   22738185.54746
  17720319.70343                  24288080.3054                   24288082.9574
  16600636.23847  12945531.35244  24173135.0164                   24173131.9924
 -15583083.53148 -12135456.07045  21653268.8594                   21653266.1844
 -12057433.92647  -9388452.63345  22160645.2274                   22160642.6524
 11  8 15 19  5  0.0000000  0  9G17G24G07G08G26G13G19G11G28
  -3945669.07047  -3062300.38745  22789521.5474                   22789521.8324
  -6767166.89147  -5261143.90645  22347535.8054                   22347535.9344
  -7921674.23448  -6155740.38746  20503336.3594                   20503334.0704
 -18764777.58648 -14606830.39846  20372448.6564                   20372446.4454
   1243138.79347    982306.04344  23240382.1334   23240380.7624   22820518.23446
  17784474.81343                  24303747.5234                   24303750.8874
  16676273.24647  13004469.20744  24187527.6804                   24187525.7544
 -15609304.65248 -12155888.11345  21648279.2114                   21648277.0704
 -12111066.35248  -9430244.12146  22150439.5944                   22150437.0394
 11  8 15 19  5 30.0000000  0  9G17G24G07G08G26G13G19G11G28
  -4058004.14847  -3149834.15645  22768145.4224                   22768144.3984
  -6836510.30147  -5315177.68745  22334339.6094                   22334339.9414
  -7927657.34848  -6160402.58646  20502197.5944                   20502195.3284
 -18830013.30948 -14657663.44146  20360034.8204                   20360033.0164
   1164415.54347    920963.27044  23225401.2114   23225400.9924   22902812.34046
  17848599.85943                  24319407.9924                   24319410.1804
  16751990.55547  13063469.60244  24201936.9224                   24201934.3714
 -15634955.84447 -12175876.06645  21643397.9304                   21643395.9264
 -12164654.90647  -9472001.45746  22140241.7894                   22140239.1564
 11  8 15 19  6  0.0000000  0  9G17G24G07G08G26G13G19G11G28
  -4170053.17647  -3237145.03945  22746822.7734                   22746822.4264
  -6905424.15247  -5368876.75445  22321225.5394                   22321226.2344
  -7933169.34048  -6164697.66846  20501148.6254                   20501146.3364
 -18894849.09448 -14708184.84846  20347697.2734                   20347695.1174
   1086245.76647    860051.77344  23210526.1334   23210525.2114   22985064.76246
  17912692.38342                  24335059.9224                   24335063.0394
  16827785.10947  13122530.17644  24216360.0314                   24216357.6804
 -15660037.37547 -12195420.12545  21638624.7114                   21638622.4804
 -12218200.45747  -9513725.27345  22130052.3204                   22130049.7194
 11  8 15 19  6 30.0000000  0  9G17G24G07G08G26G13G19G11G28
  -4281815.84447  -3324232.77345  22725555.2814                   22725554.9104
  -6973906.75047  -5422239.76645  22308193.8524                   22308194.2854
  -7938210.98848  -6168626.26246  20500189.3284                   20500186.7584
 -18959283.43748 -14758393.42646  20335435.5164                   20335433.9534
   1008630.71147    799572.50044  23195756.3834   23195755.7074   23067271.85246
  17976749.59443                  24350704.3364                   24350707.4694
  16903653.50447  13181648.32444  24230797.9454                   24230795.1254
 -15684549.31648 -12214520.32045  21633960.3284                   21633958.1484
 -12271704.36347  -9555416.62545  22119870.6644                   22119868.2854
 11  8 15 19  7  0.0000000  0  9G17G24G07G08G26G13G19G11G28
  -4393290.06247  -3411095.74245  22704342.0164                   22704342.1524
  -7041955.04747  -5475264.37144  22295244.4224                   22295244.8714
  -7942780.69148  -6172187.09846  20499319.2734                   20499316.9534
 -19023313.00048 -14808286.59846  20323250.8914                   20323249.4804
    931572.23447    739526.93444  23181093.1644   23181092.2034   23149431.47646
  18040769.75043                  24366339.1954                   24366341.6254
  16979594.06647  13240822.69144  24245248.9384                   24245246.1024
 -15708490.82447 -12233176.05145  21629404.5084                   21629402.1454
 -12325166.73847  -9597075.61745  22109697.2274                   22109694.7344
 11  8 15 19  7 30.0000000  0  9G17G24G07G08G26G13G19G11G28
  -4504477.18747  -3497735.01645  22683183.8834                   22683183.7194
  -7109569.58647  -5527950.97745  22282378.1954                   22282378.1214
  -7946881.06248  -6175382.22746  20498539.3054                   20498536.9344
 -19086938.18448 -14857864.68746  20311143.7734                   20311141.8754
    855069.18047    679914.16444  23166534.7194   23166533.6604   23231537.98846
  18104748.60543                  24381963.6484                   24381966.5004
  17055601.48847  13300049.16443  24259712.0554                   24259710.0354
 -15731864.49648 -12251389.30945  21624956.7194                   21624953.8164
 -12378590.54348  -9638704.56246  22099531.5784                   22099528.8134
 11  8 15 19  8  0.0000000  0  9G17G24G07G08G26G13G19G11G28
  -4615374.94147  -3584148.78145  22662080.9384                   22662080.0274
  -7176747.03947  -5580297.01244  22269594.7114                   22269594.6214
  -7950510.31648  -6178210.27046  20497848.7894                   20497846.6484
 -19150155.84848 -14907125.21546  20299113.6724                   20299111.8364
    779123.91847    620736.03944  23152082.9304   23152082.8054   23313590.21946
  18168685.13343                  24397577.2034                   24397581.1484
  17131674.48047  13359326.75044  24274188.8204                   24274185.7304
 -15754668.80147 -12269158.89845  21620617.2894                   21620614.7664
 -12431975.48847  -9680303.23045  22089372.4064                   22089369.9774
 11  8 15 19  8 30.0000000  0  9G17G24G07G08G26G13G19G11G28
  -4725979.39847  -3670334.03545  22641033.7194                   22641032.6644
  -7243482.72347  -5632298.80545  22256895.1564                   22256895.0514
  -7953665.93448  -6180669.19946  20497248.2894                   20497246.2544
 -19212961.58648 -14956064.76246  20287162.2584                   20287160.7114
    703740.22747    561995.49644  23137738.1484   23137737.0004   23395587.21546
  18232578.59843                  24413182.1954                   24413184.1724
  17207813.12947  13418655.51243  24288678.0944                   24288674.3364
 -15776901.04347 -12286482.73845  21616386.3914                   21616384.4104
 -12485319.80947  -9721870.23045  22079221.4064                   22079219.0514
 11  8 15 19  9  0.0000000  0  9G17G24G07G08G26G13G19G11G28
  -4836288.32847  -3756288.98045  22620042.2894                   22620042.0394
  -7309773.61347  -5683954.00844  22244280.2894                   22244280.0164
  -7956346.55548  -6182758.03947  20496738.1094                   20496736.3404
 -19275352.32848 -15004680.94146  20275289.6414                   20275287.6954
    628920.25047    503694.21544  23123500.3444   23123499.4344   23477526.78547
  18296427.33243                  24428774.5944                   24428777.8834
  17284015.67247  13478034.05544  24303178.7974                   24303175.7194
 -15798560.24247 -12303360.04745  21612264.8594                   21612262.7114
 -12538623.23048  -9763405.35946  22069078.0944                   22069075.0394
 11  8 15 19  9 30.0000000  0  9G17G24G07G08G26G13G19G11G28
  -4946303.20347  -3842014.81645  22599107.0084                   22599106.6454
  -7375619.97347  -5735262.81645  22231749.9924                   22231750.3674
  -7958554.25048  -6184478.34847  20496318.1804                   20496316.0274
 -19337327.73848 -15052973.47746  20263495.9774                   20263494.3244
    554663.15247    445831.52344  23109369.4064   23109369.2344   23559403.87147
  18360227.39543                  24444355.2734                   24444358.6374
  17360277.24246  13537458.59043  24317690.1954                   24317687.6374
 -15819648.50047 -12319792.46145  21608251.9144                   21608249.8794
 -12591888.73848  -9804910.95346  22058941.8834                   22058939.5514
 11  8 15 19 10  0.0000000  0  9G17G24G07G08G26G13G19G11G28
  -5056021.05947  -3927509.15645  22578228.1484                   22578228.0004
  -7441018.28147  -5786222.51645  22219305.5314                   22219305.4694
  -7960287.27048  -6185828.79347  20495988.3834                   20495986.1134
 -19398884.74648 -15100939.99246  20251782.5004                   20251780.8674
    480971.14547    388409.16844  23095346.4064   23095345.7664   23641216.84047
  18423977.51643                  24459924.0234                   24459926.5744
  17436596.81646  13596928.32443  24332213.5394                   24332210.5124
 -15840164.66447 -12335779.10545  21604347.8524                   21604345.6914
 -12645115.38748  -9846386.27745  22048813.0784                   22048810.5474
 11  8 15 19 10 30.0000000  0  9G17G24G07G08G26G13G19G11G28
  -5165442.44147  -4012772.53145  22557406.5234                   22557405.8874
  -7505967.81248  -5836832.49245  22206946.2194                   22206945.6174
  -7961546.93748  -6186810.39546  20495748.6724                   20495746.7734
 -19460022.50848 -15148579.81646  20240147.8984                   20240146.4264
    407844.27047    331427.18444  23081430.7424   23081429.0984   23722961.66446
  18487674.54342                  24475479.7504                   24475482.8324
  17512970.46946  13656440.14843  24346746.8834                   24346744.3714
 -15860109.94148 -12351320.89845  21600552.6414                   21600550.2894
 -12698305.36348  -9887833.02046  22038691.8364                   22038689.3054
 11  8 15 19 11  0.0000000  0  9G17G24G07G08G26G13G19G11G28
  -5274565.96147  -4097803.77045  22536640.3754                   22536640.3874
  -7570466.22347  -5887090.98045  22194672.1884                   22194672.3674
  -7962332.52348  -6187422.57846  20495599.2274                   20495597.2194
 -19520738.50448 -15195891.00846  20228594.1644                   20228592.2704
    335283.63747    274886.41844  23067623.2114   23067622.5314   23804636.02346
  18551316.64142                  24491021.1724                   24491024.3874
  17589395.51646  13715992.03544  24361290.6484                   24361287.7584
 -15879484.02348 -12366417.59445  21596865.8364                   21596863.4734
 -12751459.43047  -9929251.78546  22028576.9304                   22028574.0434
 11  8 15 19 11 30.0000000  0  9G17G24G07G08G26G13G19G11G28
  -5383390.31247  -4182601.89545  22515931.9144                   22515931.8324
  -7634511.21547  -5936996.14545  22182485.1024                   22182485.0744
  -7962644.16848  -6187665.44946  20495540.4384                   20495538.1844
 -19581030.75848 -15242871.99646  20217120.8834                   20217119.4414
    263290.55947    218787.91044  23053923.1024   23053922.9024   23886237.043 5
                                  24506549.836
  17665870.23046  13775582.61744  24375842.8524                   24375841.0664
 -15898286.93448 -12381069.22745  21593287.7734                   21593285.2194
 -12804577.47348  -9970642.46946  22018468.5234                   22018466.0664
 11  8 15 19 12  0.0000000  0  9G17G24G07G08G26G13G19G11G28
  -5491913.41047  -4267165.27345  22495280.7274                   22495280.4654
  -7698099.86747  -5986545.73445  22170384.5784                   22170384.2034
  -7962480.58248  -6187538.03146  20495571.0864                   20495569.1214
 -19640895.89848 -15289520.17646  20205729.1884                   20205727.2934
    191867.18047    163133.34044  23040331.9304   23040331.2234   23967762.816 6
                                  24522063.969
  17742392.77046  13835210.46544  24390405.1954                   24390403.0044
 -15916517.88348 -12395275.16845  21589818.6094                   21589815.9064
 -12857659.07048 -10012004.76246  22008367.7734                   22008365.2194
 11  8 15 19 12 30.0000000  0  9G17G24G07G08G26G13G19G11G28
  -5600133.21147  -4351492.32445  22474687.4144                   22474686.9184
  -7761229.95748  -6035737.97345  22158371.2344                   22158370.9344
  -7961840.83648  -6187039.56246  20495692.9534                   20495691.1644
 -19700331.25848 -15335833.46546  20194418.6484                   20194416.9414
    121014.90647    107923.77744  23026848.9774   23026848.8134   24049210.90246
  18741894.68453                  24537562.9304                   24537566.1644
  17818961.20747  13894874.09444  24404975.5234                   24404974.1094
 -15934176.19148 -12409034.90645  21586458.1884                   21586455.6724
 -12910704.65248 -10053338.99245  21998273.5314                   21998271.3094
 11  8 15 19 13  0.0000000  0  9G17G24G07G08G26G13G19G11G28
  -5708049.81647  -4435583.14145  22454151.0634                   22454150.7074
  -7823899.92247  -6084571.68445  22146445.5784                   22146444.6094
  -7960725.37148  -6186170.41446  20495905.3364                   20495903.3714
 -19759335.45348 -15381810.78146  20183190.8754                   20183189.3674
     50734.44547     53159.76644  23013474.7194   23013474.8834   24130577.89546
  18805297.25843                  24553047.1024                   24553051.4844
  17895572.58646  13954571.17644  24419553.4064                   24419552.1684
 -15951262.53548 -12422348.95345  21583206.8054                   21583204.8554
 -12963715.45348 -10094646.10946  21988185.6094                   21988183.0514
 11  8 15 19 13 30.0000000  0  9G17G24G07G08G26G13G19G11G28
  -5815661.00047  -4519435.93445  22433673.8674                   22433673.2114
  -7886106.61747  -6133044.41445  22134607.7814                   22134607.6844
  -7959133.37548  -6184929.94546  20496208.0704                   20496206.3524
 -19817905.72748 -15427449.96946  20172045.1644                   20172043.5704
    -18972.22747     -1157.13744  23000210.5234   23000210.1094   24211861.77346
  18868635.03143                  24568515.3984                   24568519.2344
  17972225.41446  14014300.60243  24434140.7894                   24434138.6054
 -15967775.94147 -12435216.55545  21580064.3134                   21580062.2894
 -13016691.05948 -10135925.80146  21978104.7344                   21978102.4144
 11  8 15 19 14  0.0000000  0  9G17G24G07G08G26G13G19G11G28
  -5922962.30147  -4603047.28145  22413254.6804                   22413254.3284
  -7947844.87547  -6181152.12945  22122859.4064                   22122860.0514
  -7957061.32448  -6183315.39146  20496602.1174                   20496600.4694
 -19876036.66048 -15472746.82046  20160983.3444                   20160981.5554
    -88101.00047    -55023.73444  22987055.7974   22987054.7704   24293063.44147
  18931908.77343                  24583967.2974                   24583971.9144
  18048920.27746  14074062.75843  24448735.3364                   24448732.4454
 -15983713.61747 -12447635.53945  21577031.3754                   21577029.0944
 -13069628.66448 -10177175.88345  21968031.2664                   21968028.7074
 11  8 15 19 14 30.0000000  0  9G17G24G07G08G26G13G19G11G28
  -6029953.82847  -4686417.23845  22392894.7344                   22392894.4024
  -8009113.74647  -6228894.09045  22111200.2664                   22111200.6724
  -7954510.32448  -6181327.67246  20497088.0634                   20497085.8364
 -19933727.02348 -15517700.36346  20150005.0314                   20150003.6454
   -156651.89147   -108440.02044  22974010.0474   22974010.5434   24374179.00047
  18995115.39143                  24599404.2034                   24599407.5084
  18125654.09046  14133855.27043  24463336.9384                   24463334.4494
 -15999076.60247 -12459606.71545  21574107.9614                   21574105.6174
 -13122529.96148 -10218397.68046  21957964.3284                   21957961.9104
 11  8 15 19 15  0.0000000  0  9G17G24G07G08G26G13G19G11G28
  -6136633.48047  -4769544.19145  22372593.8674                   22372593.4304
  -8069911.02047  -6276268.56245  22099630.8524                   22099630.7504
  -7951479.62148  -6178966.12946  20497664.6644                   20497662.5944
 -19990974.46148 -15562308.77746  20139111.3444                   20139109.5744
   -224623.44147   -161404.87944  22961075.7734   22961076.6254   24455206.03946
  19058253.05543                  24614822.5084                   24614826.9224
  18202424.70746  14193676.42243  24477946.8834                   24477943.8134
 -16013864.48447 -12471129.74245  21571293.6724                   21571291.9534
 -13175394.84848 -10259591.08646  21947904.5554                   21947902.0904
 11  8 15 19 15 30.0000000  0  9G17G24G07G08G26G13G19G11G28
  -6242999.38347  -4852426.67645  22352353.8674                   22352352.8404
  -8130233.35547  -6323272.95745  22088151.9534                   22088152.1334
  -7947967.95348  -6176229.81246  20498332.8594                   20498331.0984
 -20047775.54348 -15606569.38746  20128302.5314                   20128300.3134
   -292013.50847   -213916.61744  22948252.1484   22948251.7074   24536142.94946
  19121320.43843                  24630224.3134                   24630229.9304
  18279231.00846  14253525.40243  24492561.6724                   24492559.1484
 -16028076.59448 -12482204.12545  21568589.6884                   21568587.5554
 -13228223.14148 -10300756.00446  21937851.7344                   21937848.9574
 11  8 15 19 16  0.0000000  0  8G17G24G07G08G26G19G11G28
  -6349047.02047  -4935061.14145  22332173.1954                   22332173.2704
  -8190075.38747  -6369903.09045  22076764.5784                   22076764.6334
  -7943971.88348  -6173116.04346  20499093.6954                   20499091.7664
 -20104124.48048 -15650477.67646  20117579.5634                   20117578.1994
   -358817.53547   -265971.73044  22935540.1564   22935539.1564
  18356074.27346  14313403.19543  24507184.9144                   24507182.3284
 -16041709.18448 -12492826.94145  21565995.2974                   21565993.1134
 -13281011.18448 -10341889.55946  21927806.0314                   21927803.6454
 11  8 15 19 16 30.0000000  0  8G17G24G07G08G26G19G11G28
  -6454774.85547  -5017446.41445  22312053.6564                   22312053.8914
  -8249435.17647  -6416157.44945  22065468.4614                   22065468.9224
  -7939490.91048  -6169624.43446  20499946.4614                   20499944.5004
 -20160019.11748 -15694031.95346  20106943.4144                   20106941.7704
   -425034.52347   -317569.37944  22922938.8674   22922939.2034
  18432951.78946  14373307.69543  24521814.8284                   24521812.1604
 -16054762.45748 -12502998.33245  21563511.6414                   21563509.0124
 -13333759.34047 -10382992.01646  21917768.3444                   21917766.4384
 11  8 15 19 17  0.0000000  0  8G17G24G07G08G26G19G11G28
  -6560171.48447  -5099573.60945  22291997.0004                   22291997.7234
  -8308299.84847  -6462026.01245  22054267.0394                   22054267.1054
  -7934514.13747  -6165746.48046  20500893.4844                   20500891.3094
 -20215446.69948 -15737222.28946  20096395.9454                   20096394.2464
   -490652.48847   -368700.27044  22910452.4844   22910452.4264
  18509872.73846  14433245.99644  24536452.1334                   24536449.9534
 -16067225.89548 -12512710.13745  21561139.9774                   21561138.2584
 -13386457.67248 -10424055.65246  21907740.2504                   21907737.7814
 11  8 15 19 17 30.0000000  0  8G17G24G07G08G26G19G11G28
  -6665228.31247  -5181436.02745  22272005.4304                   22272005.4304
  -8366660.24247  -6507501.62945  22043161.6094                   22043161.3284
  -7929034.62948  -6161476.76646  20501936.3364                   20501934.3594
 -20270398.09848 -15780041.58647  20085939.3984                   20085937.3674
   -555663.74247   -419358.40244  22898081.0084   22898080.9104
  18586841.81346  14493221.79344  24551099.2814                   24551096.7034
 -16079092.65648 -12521956.98845  21558881.6334                   21558879.6374
 -13439099.30148 -10465075.12146  21897723.5164                   21897720.3794
 11  8 15 19 18  0.0000000  0  8G17G24G07G08G26G19G11G28
  -6769945.40247  -5263033.70345  22252079.0164                   22252078.3794
  -8424515.64847  -6552583.73845  22032151.7424                   22032151.9184
  -7923053.34047  -6156816.07047  20503074.4694                   20503072.5744
 -20324872.14148 -15822488.89546  20075573.0004                   20075571.0204
   -620068.53147   -469543.98044  22885825.3914   22885825.2854
  18663855.45347  14553232.34044  24565754.2194                   24565752.1724
 -16090364.00848 -12530739.87945  21556736.9844                   21556734.5514
 -13491685.66047 -10506051.52346  21887716.6094                   21887713.6804
 11  8 15 19 18 30.0000000  0  8G17G24G07G08G26G19G11G28
  -6874330.17647  -5344372.44145  22232214.8754                   22232214.1644
  -8481872.75447  -6597277.56645  22021236.2504                   22021237.2704
  -7916578.89547  -6151771.10246  20504306.4614                   20504304.5704
 -20378875.39847 -15864569.38346  20065296.4614                   20065294.8834
   -683874.29747   -519262.76244  22873683.3754   22873684.1644
  18740902.89846  14613269.24244  24580415.7504                   24580413.6254
 -16101048.77748 -12539065.69145  21554703.2974                   21554702.0664
 -13544225.99247 -10546992.05946  21877718.3054                   21877715.6484
 11  8 15 19 19  0.0000000  0  8G17G24G07G08G26G19G11G28
  -6978385.97348  -5425454.82845  22212413.6094                   22212413.5594
  -8538734.13347  -6641585.10945  22010416.4384                   22010417.0784
  -7909615.59048  -6146345.18746  20505631.2734                   20505629.6134
 -20432410.04747 -15906284.71146  20055109.0474                   20055107.2274
   -747084.70347   -568517.64844  22861655.3204   22861654.9144
  18817977.57846  14673327.37943  24595082.7194                   24595079.8404
 -16111151.80948 -12546938.21545  21552780.8204                   21552778.9964
 -13596724.66847 -10587900.11746  21867727.8444                   21867726.0784
 11  8 15 19 19 30.0000000  0  8G17G24G07G08G26G19G11G28
  -7082113.93747  -5506281.77345  22192675.0084                   22192674.8914
  -8595100.33647  -6685506.80945  21999690.5784                   21999690.8634
  -7902165.59048  -6140540.03946  20507049.1884                   20507047.3444
 -20485476.71947 -15947635.37946  20045010.6564                   20045008.9304
   -809701.41047   -617309.91044  22849739.5084   22849739.3444
  18895074.71946  14733403.02043  24609754.0474                   24609750.9804
 -16120675.59448 -12554359.35945  21550968.9304                   21550966.5664
 -13649184.84447 -10628778.18746  21857745.4694                   21857743.2894
 11  8 15 19 20  0.0000000  0  8G17G24G07G08G26G19G11G28
  -7185518.00847  -5586856.32845  22172998.1024                   22172997.2774
  -8650974.13347  -6729044.80945  21989057.8204                   21989058.1564
  -7894233.96948  -6134359.60246  20508558.7114                   20508556.8324
 -20538077.94947 -15988623.37546  20035000.9064                   20034999.4064
   -871728.12947   -665642.43744  22837936.1414   22837935.4924
  18972187.70746  14793490.96543  24624427.7664                   24624425.2074
 -16129625.13348 -12561333.07045  21549265.6644                   21549263.6454
 -13701611.40647 -10669630.06646  21847768.6724                   21847766.7034
 11  8 15 19 20 30.0000000  0  8G17G24G07G08G26G19G11G28
  -7288598.50047  -5667178.76245  22153381.8204                   22153381.4224
  -8706355.22747  -6772198.90245  21978519.4454                   21978519.2974
  -7885822.15648  -6127804.99246  20510159.4304                   20510157.5354
 -20590212.95747 -16029248.08646  20025080.5234                   20025078.7304
   -933165.80147   -713515.98444  22826245.8054   22826244.5044
  19049312.41046  14853588.03943  24639104.3524                   24639101.9414
 -16138002.48447 -12567860.89545  21547671.6334                   21547669.7774
 -13754006.27747 -10710457.24646  21837798.3984                   21837796.0004
 11  8 15 19 21  0.0000000  0  8G17G24G07G08G26G19G11G28
  -7391353.73447  -5747247.72745  22133828.8134                   22133827.4654
  -8761241.27747  -6814967.24245  21968074.8364                   21968075.1334
  -7876929.48047  -6120875.66846  20511851.7504                   20511849.4494
 -20641879.24247 -16069507.55546  20015248.5944                   20015247.1604
   -994012.86347   -760929.30144  22814665.9534   22814665.7584
  19126447.81646  14913693.45743  24653782.5554                   24653780.5204
 -16145806.96948 -12573942.34045  21546186.4774                   21546184.6884
 -13806369.18047 -10751259.52046  21827834.0234                   21827831.7854
 11  8 15 19 21 30.0000000  0  8G17G24G07G08G26G19G11G28
  -7493784.71947  -5827064.03545  22114336.5234                   22114335.5704
  -8815632.31647  -6857349.85245  21957724.6414                   21957724.5984
  -7867558.02048  -6113573.28146  20513635.2274                   20513633.0784
 -20693076.64548 -16109401.65246  20005506.3524                   20005504.5634
  -1054270.57847   -807883.37144  22803199.8054   22803200.2114
  19203589.37946  14973803.69543  24668462.3284                   24668459.8134
 -16153041.69948 -12579579.80945  21544809.9454                   21544807.6804
 -13858702.25447 -10792038.55546  21817875.5704                   21817873.0434
 11  8 15 19 22  0.0000000  0  8G17G24G07G08G26G19G11G28
  -7595889.64547  -5906626.26246  22094906.4694                   22094905.6334
  -8869525.89147  -6899344.83645  21947468.8754                   21947468.8324
  -7857706.80948  -6105897.08246  20515509.6414                   20515507.9964
 -20743802.53148 -16148928.34046  19995853.2894                   19995851.5474
  -1113937.64147   -854377.21144  22791845.0784   22791844.7704
  19280735.76646  15033917.73443  24683143.4064                   24683140.3794
 -16159705.93448 -12584772.74245  21543541.7114                   21543539.1254
 -13911005.38347 -10832794.25446  21807922.1094                   21807919.8284
 11  8 15 19 22 30.0000000  0  8G17G24G07G08G26G19G11G28
  -7697669.85947  -5985935.49245  22075538.4384                   22075537.6294
  -8922922.59047  -6940952.64845  21937308.0234                   21937308.0864
  -7847378.77748  -6097849.32446  20517475.1884                   20517473.3674
 -20794057.45748 -16188088.05146  19986290.0394                   19986288.5744
  -1173015.55547   -900411.98044  22780603.5394   22780602.4344
  19357882.87946  15094032.36743  24697823.7274                   24697820.2504
 -16165802.62148 -12589523.42645  21542381.5474                   21542379.4064
 -13963281.06648 -10873528.55946  21797974.2894                   21797972.5124
 11  8 15 19 23  0.0000000  0  7G17G24G07G08G26G11G28
  -7799120.21947  -6064987.66846  22056232.6724                   22056232.4344
  -8975816.61347  -6982168.75845  21927242.1954                   21927242.2464
  -7836569.62548  -6089426.65246  20519532.0394                   20519530.1994
 -20843835.05148 -16226875.80546  19976817.8834                   19976816.4344
  -1231499.65247   -945984.03144  22769473.7974   22769474.1844
 -16171327.73047 -12593828.72745  21541329.9064                   21541327.5704
 -14015525.35548 -10914238.39846  21788033.5314                   21788030.7704
 11  8 15 19 23 30.0000000  0  7G17G24G07G08G26G11G28
  -7900240.70747  -6143782.81645  22036990.5004                   22036990.0204
  -9028207.24648  -7022992.62145  21917273.2114                   21917272.9694
  -7825280.64848  -6080630.08646  20521680.1954                   20521678.7114
 -20893134.32048 -16265290.85546  19967436.4304                   19967434.6214
  -1289390.12947   -991093.52044  22758458.0314   22758457.4344
 -16176283.08648 -12597690.05545  21540387.2194                   21540384.6414
 -14067739.65648 -10954924.87146  21778097.1094                   21778094.8914
 11  8 15 19 24  0.0000000  0  7G17G24G07G08G26G11G28
  -8001020.16847  -6222312.22746  22017812.7344                   22017812.2894
  -9080082.42647  -7063414.82445  21907401.8594                   21907401.3834
  -7813501.61348  -6071451.67246  20523921.7974                   20523920.0634
 -20941942.93048 -16303323.55946  19958148.2814                   19958146.8404
  -1346676.29347  -1035732.11344  22747557.0474   22747556.3794
 -16180659.00847 -12601099.88345  21539554.2974                   21539552.1994
 -14119914.04748 -10995580.25846  21768168.4774                   21768166.0554
 11  8 15 19 24 30.0000000  0  7G17G24G07G08G26G11G28
  -8101449.25448  -6300568.62145  21998701.4694                   21998700.9494
  -9131432.34447  -7103427.74645  21897629.9774                   21897629.9384
  -7801224.55548  -6061885.18746  20526258.0554                   20526256.4064
 -20990250.88748 -16340966.15246  19948955.5864                   19948953.6844
  -1403349.17247  -1079892.81644  22736771.8984   22736771.7934
 -16184447.62548 -12604052.07845  21538833.5234                   21538831.0514
 -14172040.51248 -11036198.29746  21758248.8444                   21758246.3284
 11  8 15 19 25  0.0000000  0  7G17G24G07G08G26G11G28
  -8201530.64548  -6378554.08245  21979656.7274                   21979656.0234
  -9182259.07048  -7143032.98845  21887958.0164                   21887957.4384
  -7788453.42648  -6051933.69946  20528688.3984                   20528686.5864
 -21038059.91848 -16378219.96946  19939858.2894                   19939856.0864
  -1459412.25047  -1123578.35944  22726103.7034   22726103.9964
 -16187653.26647 -12606549.99645  21538223.2504                   21538221.4224
 -14224122.86348 -11076781.97746  21748338.3834                   21748335.3794
 11  8 15 19 25 30.0000000  0  7G17G24G07G08G26G11G28
  -8301267.81247  -6456271.31246  21960677.1564                   21960676.4304
  -9232565.11747  -7182232.48845  21878384.8444                   21878384.9574
  -7775192.25048  -6041600.37146  20531211.8834                   20531210.1724
 -21085372.41448 -16415086.87146  19930854.7814                   19930853.0634
  -1514868.77347  -1166791.27044  22715550.6804   22715550.5474
 -16190280.64847 -12608597.33245  21537723.4844                   21537721.3754
 -14276165.81248 -11117334.93046  21738434.6174                   21738432.3524
 11  8 15 19 26  0.0000000  0  7G17G24G07G08G26G11G28
  -8400669.18747  -6533726.88745  21941761.6804                   21941760.6844
  -9282358.26647  -7221032.33245  21868909.7664                   21868909.1374
  -7761451.02348  -6030892.97346  20533826.9694                   20533824.8014
 -21132195.85248 -16451572.68446  19921944.5474                   19921942.8364
  -1569728.05547  -1209538.77344  22705112.4224   22705111.5354
 -16192339.84447 -12610201.92245  21537331.1884                   21537329.5554
 -14328178.81648 -11157864.55946  21728537.0864                   21728534.3554
 11  8 15 19 26 30.0000000  0  7G17G24G07G08G26G11G28
  -8499737.86348  -6610923.22746  21922909.4774                   21922909.6134
  -9331640.82048  -7259434.31645  21859531.7664                   21859530.6914
  -7747233.53948  -6019814.47346  20536532.4924                   20536530.4304
 -21178532.29748 -16487679.02746  19913127.1804                   19913125.5434
  -1623993.14846  -1251823.29344  22694785.1804   22694785.4654
 -16193835.47747 -12611367.37945  21537046.9064                   21537045.3364
 -14380166.23048 -11198374.24646  21718644.2194                   21718641.5944
 11  8 15 19 27  0.0000000  0  7G17G24G07G08G26G11G28
  -7023052.21948  -5460259.05146  22203913.3204                   22203912.8014
  -7804992.49247  -6069838.20745  22150043.3444                   22150042.9734
  -6157123.77048  -4780767.96146  20839120.2344                   20839118.5084
 -19648960.98448 -15295805.29746  20204194.6254                   20204193.0204
   -102244.98847    -66045.52344  22984364.5864   22984363.6844
 -14619350.99647 -11384496.38745  21836661.1334                   21836659.7774
 -12856709.28948 -10011264.96146  22008548.5314                   22008546.0744
 11  8 15 19 27 30.0000000  0  7G17G24G07G08G26G11G28
  -7121460.69948  -5536940.95746  22185187.0784                   22185186.7194
  -7853257.70347  -6107447.46945  22140858.5704                   22140858.4614
  -6141963.55548  -4768954.85546  20842005.1414                   20842003.0744
 -19694325.97348 -15331154.65246  20195561.9224                   20195560.6294
   -155329.31647   -107409.94944  22974262.5474   22974263.0084
 -14619729.78147 -11384791.56645  21836589.1334                   21836587.7344
 -12908654.19948 -10051741.52046  21998663.7194                   21998661.3554
 11  8 15 19 28  0.0000000  0  7G17G24G07G08G26G11G28
  -7219537.44948  -5613364.34446  22166523.7504                   22166522.6764
  -7901011.53147  -6144658.23445  22131771.2194                   22131771.0704
  -6126331.82448  -4756774.35546  20844979.7344                   20844978.1054
 -19739202.09848 -15366123.09046  20187022.4844                   20187021.1414
   -207822.16447   -148313.49244  22964273.7974   22964273.5664
 -14619550.97347 -11384652.27045  21836623.5084                   21836621.4304
 -12960578.16448 -10092201.76646  21988782.9534                   21988780.4964
 11  8 15 19 28 30.0000000  0  7G17G24G07G08G26G11G28
  -7317284.03148  -5689530.48446  22147922.8594                   22147922.5824
  -7948254.63747  -6181471.03945  22122781.1334                   22122781.4574
  -6110231.32848  -4744228.57446  20848043.7734                   20848041.8714
 -19783589.51248 -15400710.69946  20178575.9614                   20178574.3754
   -259725.42647   -188757.62944  22954396.8914   22954396.9734
 -14618817.34447 -11384080.64845  21836763.0234                   21836761.4494
 -13012483.19148 -10132647.26646  21978905.5864                   21978903.0594
 11  8 15 19 29  0.0000000  0  7G17G24G07G08G26G11G28
  -7414695.98048  -5765435.85546  22129386.0314                   22129385.9184
  -7994982.14847  -6217882.07445  22113889.3914                   22113888.9694
  -6093658.91448  -4731315.07846  20851197.5234                   20851195.9774
 -19827483.36348 -15434913.71946  20170223.7424                   20170221.5634
   -311035.54747   -228739.54744  22944632.5704   22944632.8164
 -14617526.39547 -11383074.75045  21837008.6564                   21837007.1214
 -13064366.29748 -10173075.68446  21969032.6334                   21969030.6024
 11  8 15 19 29 30.0000000  0  7G17G24G07G08G26G11G28
  -7511775.50848  -5841082.21546  22110912.3054                   22110911.7934
  -8041195.89547  -6253892.77745  22105094.6484                   22105095.1954
  -6076617.89148  -4718036.41446  20854440.0084                   20854438.8634
 -19870884.56248 -15468732.85946  20161964.0944                   20161962.5274
   -361755.04347   -268261.24644  22934981.1094   22934981.5004
 -14615681.80947 -11381637.43745  21837359.9144                   21837358.4534
 -13116230.43448 -10213489.31246  21959163.3834                   21959161.5514
 11  8 15 19 30  0.0000000  0  7G17G24G07G08G26G11G28
  -7608520.92648  -5916468.22346  22092502.7344                   22092501.8244
  -8086893.35947  -6289501.19145  22096398.8284                   22096399.3484
  -6059107.94148  -4704392.36746  20857772.4454                   20857770.9144
 -19913790.46548 -15502166.05146  20153799.5704                   20153797.8754
   -411882.90246   -307321.96544  22925442.1094   22925442.2624
 -14613283.56648 -11379768.71545  21837816.2114                   21837814.0274
 -13168075.06247 -10253887.73846  21949297.3834                   21949294.9304
 11  8 15 19 30 30.0000000  0  7G17G24G07G08G26G11G28
  -7704934.27748  -5991595.48446  22074155.6724                   22074154.6134
  -8132076.19947  -6324708.58245  22087801.2894                   22087801.4614
  -6041132.54748  -4690385.62546  20861192.9224                   20861191.3714
 -19956202.83648 -15535214.67246  20145728.4454                   20145727.0704
   -461421.84447   -345923.77044  22916015.1564   22916015.5704
 -14610335.55547 -11377471.57845  21838377.3134                   21838375.2854
 -13219903.44148 -10294273.50846  21939435.0164                   21939432.7704
 11  8 15 19 31  0.0000000  0  7G17G24G07G08G26G11G28
  -7801013.88348  -6066462.68046  22055872.4064                   22055871.5164
  -8176742.14147  -6359513.19945  22079301.5314                   22079301.5704
  -6022690.96148  -4676015.62546  20864702.0784                   20864700.6414
 -19998118.55948 -15567876.30546  20137752.4224                   20137750.8954
   -510370.73447   -384065.80545  22906700.5474   22906701.1214
 -14606837.60247 -11374745.93445  21839043.0944                   21839040.8554
 -13271714.73448 -10334645.95746  21929575.8984                   21929573.3204
 11  8 15 19 31 30.0000000  0  7G17G24G07G08G26G11G28
  -7896756.35248  -6141067.16846  22037652.8834                   22037652.1764
  -8220887.41847  -6393912.11745  22070900.4534                   22070900.8594
  -6003781.24248  -4661280.84046  20868300.9534                   20868299.2854
 -20039533.65648 -15600147.83646  20129871.5864                   20129869.9264
   -558726.87547   -421745.93744  22897498.7584   22897498.8164
 -14602788.23047 -11371590.60245  21839813.6484                   21839811.6254
 -13323506.62948 -10375003.29746  21919719.6414                   21919717.6374
 11  8 15 19 32  0.0000000  0  7G17G24G07G08G26G11G28
  -7992163.15648  -6215410.10546  22019497.7584                   22019496.8204
  -8264512.71547  -6427905.84845  22062599.1334                   22062599.8714
  -5984405.82048  -4646183.16446  20871987.6484                   20871986.2974
 -20080448.18448 -15632029.31646  20122085.4844                   20122084.3094
   -606491.92647   -458965.48444  22888409.5314   22888409.2664
 -14598190.18447 -11368007.73845  21840688.6804                   21840686.7344
 -13375281.19148 -10415347.12546  21909867.3914                   21909865.3594
 11  8 15 19 32 30.0000000  0  7G17G24G07G08G26G11G28
  -8087232.61348  -6289490.18046  22001406.4614                   22001405.7194
  -8307615.60947  -6461492.50845  22054396.7584                   22054397.2974
  -5964563.92248  -4630722.00446  20875763.8984                   20875762.0514
 -20120859.43048 -15663518.63346  20114395.7194                   20114394.1054
   -653664.93747   -495723.69144  22879432.5394   22879432.2704
 -14593043.15648 -11363997.10245  21841667.9064                   21841665.9884
 -13427037.64548 -10455676.85246  21900018.7584                   21900016.7974
 11  8 15 19 33  0.0000000  0  7G17G24G07G08G26G11G28
  -8181961.46148  -6363304.83246  21983380.1254                   21983379.8984
  -8350192.88347  -6494669.58645  22046294.8834                   22046295.0784
  -5944254.26248  -4614896.35246  20879628.3984                   20879626.8364
 -20160763.54748 -15694612.78546  20106802.1954                   20106800.6174
   -700243.78547   -532018.94144  22870569.1804   22870569.4774
 -14587346.67248 -11359558.29345  21842751.8444                   21842749.6454
 -13478773.89848 -10495990.83646  21890173.3754                   21890171.2074
 11  8 15 19 33 30.0000000  0  7G17G24G07G08G26G11G28
  -8276345.31648  -6436850.65646  21965419.3524                   21965418.2504
  -8392239.17647  -6527432.92245  22038293.0944                   22038293.7194
  -5923473.21148  -4598703.36346  20883583.0864                   20883581.3404
 -20200154.87948 -15725307.36346  20099306.4774                   20099305.1254
   -746224.28547   -567847.92245  22861819.5944   22861819.5904
 -14581097.25047 -11354688.65245  21843941.0704                   21843939.4844
 -13530485.99648 -10536285.98446  21880333.0164                   21880331.3444
 11  8 15 19 34  0.0000000  0  7G17G24G07G08G26G11G28
  -8370383.43047  -6510127.09046  21947524.5234                   21947523.4924
  -8433753.11747  -6559781.45345  22030393.3134                   22030394.1954
  -5902221.49248  -4582143.64546  20887627.0704                   20887625.7774
 -20239031.74248 -15755601.06246  20091908.3134                   20091906.7194
   -791606.49247   -603210.71144  22853183.2584   22853183.7154
 -14574296.14547 -11349389.13345  21845235.8444                   21845233.8094
 -13582174.40248 -10576562.69546  21870497.1804                   21870494.9734
 11  8 15 19 34 30.0000000  0  7G17G24G07G08G26G11G28
  -8464073.73047  -6583132.48046  21929695.5784                   21929694.9734
  -8474732.18447  -6591713.18445  22022595.5474                   22022595.8524
  -5880498.36748  -4565216.59046  20891760.9694                   20891759.2664
 -20277391.68748 -15785491.96946  20084608.8914                   20084606.9184
   -836389.03547   -638106.23444  22844661.8284   22844662.3054
 -14566943.18447 -11343659.57845  21846634.9614                   21846633.1414
 -13633837.86348 -10616819.94946  21860665.9774                   21860664.0354
 11  8 15 19 35  0.0000000  0  7G17G24G07G08G26G11G28
  -8557415.07448  -6655865.96546  21911933.6174                   21911932.7854
  -8515174.59047  -6623226.75445  22014899.3984                   22014899.7464
  -5858303.58248  -4547922.01246  20895984.8524                   20895983.2854
 -20315232.09448 -15814978.03946  20077408.1094                   20077406.4694
   -880571.16047   -672533.90244  22836254.0164   22836254.1134
 -14559038.33247 -11337499.98445  21848138.7974                   21848136.9844
 -13685475.34848 -10657056.96146  21850840.2114                   21850836.6884
 11  8 15 19 35 30.0000000  0  7G17G24G07G08G26G11G28
  -8650406.03548  -6728326.43046  21894238.3444                   21894237.3834
  -8555079.23447  -6654321.28945  22007306.1094                   22007306.3404
  -5835637.78948  -4530260.41446  20900297.7584                   20900296.4144
 -20352551.41048 -15844058.05146  20070306.1254                   20070305.0084
   -924152.94547   -706493.76645  22827960.8754   22827960.8634
 -14550582.80547 -11330911.30145  21849748.2274                   21849746.4344
 -13737087.22348 -10697274.02746  21841018.2894                   21841015.5084
 11  8 15 19 36  0.0000000  0  7G17G24G07G08G26G11G28
  -8743043.54348  -6800511.47346  21876609.9304                   21876608.7194
  -8594442.00047  -6684993.58245  21999815.9224                   21999816.4224
  -5812498.59448  -4512229.92646  20904701.0944                   20904699.3554
 -20389345.15648 -15872728.53546  20063304.8284                   20063303.3554
   -967131.43047   -739983.52344  22819782.4694   22819782.7234
 -14541574.82447 -11323892.13345  21851462.3674                   21851460.6134
 -13788670.52048 -10737468.82846  21831202.2894                   21831199.6914
 11  8 15 19 36 30.0000000  0  7G17G24G07G08G26G11G28
  -8835327.18447  -6872420.77746  21859048.6954                   21859047.9734
  -8633262.37147  -6715243.21945  21992428.1024                   21992428.5594
  -5788886.80948  -4493831.18446  20909194.4614                   20909192.8204
 -20425612.54348 -15900988.87146  20056403.5474                   20056401.6564
  -1009507.36747   -773003.77044  22811718.6024   22811717.9344
 -14532016.02047 -11316443.75445  21853281.1724                   21853279.0634
 -13840225.98848 -10777641.93446  21821391.4694                   21821389.1684
 11  8 15 19 37  0.0000000  0  7G17G24G07G08G26G11G28
  -8927255.26648  -6944053.02046  21841555.2894                   21841554.5354
  -8671537.46947  -6745067.96945  21985145.0704                   21985145.1454
  -5764801.99248  -4475063.86346  20913777.9844                   20913776.1374
 -20461350.03148 -15928836.28946  20049602.9224                   20049601.1214
  -1051279.08647   -805553.19544  22803769.3754   22803770.0514
 -14521905.86347 -11308565.73845  21855205.3914                   21855203.2424
 -13891751.73848 -10817791.89546  21811586.9614                   21811584.4654
 11  8 15 19 37 30.0000000  0  7G17G24G07G08G26G11G28
  -9018829.00447  -7015409.14546  21824128.9224                   21824128.6804
  -8709268.62147  -6774468.86345  21977964.8754                   21977965.2114
  -5740247.00848  -4455930.16446  20918450.2814                   20918448.4774
 -20496558.53148 -15956271.52046  20042903.0864                   20042901.3284
  -1092449.05947   -837633.74244  22795934.6724   22795935.2384
 -14511247.63348 -11300260.66045  21857233.4694                   21857230.9804
 -13943250.37548 -10857920.71146  21801786.9384                   21801784.6094
 11  8 15 19 38  0.0000000  0  7G17G24G07G08G26G11G28
  -9110048.99247  -7086489.64846  21806770.8054                   21806770.0274
  -8746455.83247  -6803445.91445  21970888.0084                   21970888.8054
  -5715223.48848  -4436431.38746  20923212.2034                   20923211.0824
 -20531237.78148 -15983294.34446  20036303.8134                   20036301.9494
  -1133018.82047   -869246.56644  22788214.7734   22788214.8444
 -14500043.98447 -11291530.57445  21859365.3834                   21859363.4144
 -13994722.90248 -10898029.20746  21791992.1484                   21791989.9104
 11  8 15 19 38 30.0000000  0  7G17G24G07G08G26G11G28
  -9200912.41447  -7157292.28146  21789480.0164                   21789479.1564
  -8783095.87147  -6831996.58645  21963915.5634                   21963916.1884
  -5689729.95348  -4416566.35246  20928063.3444                   20928061.7304
 -20565383.85248 -16009901.69146  20029805.7664                   20029804.3054
  -1172986.23047   -900390.03945  22780609.5234   22780609.7544
 -14488293.56648 -11282374.44545  21861601.6484                   21861599.0634
 -14046167.14148 -10938115.64146  21782202.6644                   21782200.1134
 11  8 15 19 39  0.0000000  0  7G17G24G07G08G26G11G28
  -9291422.64547  -7227819.71946  21772256.3054                   21772255.7584
  -8819191.78547  -6860123.28545  21957047.1174                   21957047.2624
  -5663771.32848  -4396338.90646  20933003.2194                   20933001.4884
 -20598999.14148 -16036095.45746  20023409.0084                   20023407.7304
  -1212355.50847   -931067.44544  22773117.8364   22773117.3444
 -14476001.83248 -11272796.51245  21863940.3054                   21863938.4654
 -14097587.37948 -10978183.38346  21772417.6724                   21772414.8674
 11  8 15 19 39 30.0000000  0  7G17G24G07G08G26G11G28
  -9381577.48848  -7298070.22746  21755100.6564                   21755100.0314
  -8854740.98047  -6887823.95345  21950282.1804                   21950282.3984
  -5637346.70348  -4375748.35246  20938031.6804                   20938030.4964
 -20632081.23048 -16061873.74246  20017113.9064                   20017112.7624
  -1251125.39147   -961277.78544  22765740.2194   22765740.6524
 -14463168.44948 -11262796.51645  21866382.4774                   21866381.4144
 -14148981.69148 -11018230.91446  21762637.8444                   21762635.1254
 11  8 15 19 40  0.0000000  0  7G17G24G07G08G26G11G28
  -9471378.96547  -7368045.38746  21738011.9774                   21738011.4414
  -8889745.10947  -6915099.89845  21943621.2344                   21943621.2034
  -5610459.28547  -4354797.17246  20943147.9844                   20943146.8524
 -20664630.94148 -16087237.18046  20010920.2274                   20010918.2584
  -1289298.60947   -991023.20344  22758475.9384   22758476.1454
 -14449797.34447 -11252377.52045  21868927.1564                   21868925.1054
 -14200352.75848 -11058260.34446  21752861.5554                   21752859.6294
 11  8 15 19 40 30.0000000  0  7G17G24G07G08G26G11G28
  -9560828.02347  -7437745.93746  21720990.3754                   21720989.7034
  -8924204.79747  -6941951.61345  21937063.8594                   21937063.8444
  -5583111.39847  -4333487.21146  20948352.7424                   20948350.9734
 -20696648.39548 -16112185.86746  20004827.3204                   20004825.5664
  -1326877.14847  -1020305.22745  22751325.0234   22751325.6914
 -14435890.89848 -11241541.37145  21871573.3594                   21871571.4694
 -14251702.19548 -11098272.89846  21743090.3284                   21743088.1764
 11  8 15 19 41  0.0000000  0  7G17G24G07G08G26G11G28
  -9649923.82847  -7507171.21546  21704036.1564                   21704034.9224
  -8958118.64547  -6968377.99645  21930609.7194                   21930610.5274
  -5555303.29347  -4311818.63746  20953643.7894                   20953643.1094
 -20728131.77347 -16136718.40646  19998836.0784                   19998834.2194
  -1363860.80947  -1049123.72344  22744287.2424   22744287.6884
 -14421450.22348 -11230288.95345  21874321.3444                   21874319.5434
 -14303029.50048 -11138268.22746  21733323.2504                   21733320.6844
 11  8 15 19 41 30.0000000  0  7G17G24G07G08G26G11G28
  -9738664.70347  -7576319.93046  21687148.7584                   21687148.5204
  -8991484.97347  -6994377.75045  21924260.6804                   21924260.8484
  -5527035.06647  -4289791.52746  20959023.5084                   20959022.4024
 -20759078.89848 -16160833.07046  19992947.0704                   19992945.7704
  -1400248.90647  -1077478.14544  22737363.2664   22737363.0904
 -14406475.63747 -11218620.48445  21877171.2114                   21877169.0634
 -14354333.59448 -11178245.45346  21723560.3284                   21723558.6804
 11  8 15 19 42  0.0000000  0  7G17G24G07G08G26G11G28
  -9827050.55547  -7645192.00046  21670330.0394                   21670329.0664
  -9024303.23047  -7019950.43745  21918015.4534                   21918015.8444
  -5498307.81247  -4267406.72746  20964490.0394                   20964488.9144
 -20789488.71548 -16184529.05946  19987160.0704                   19987159.1094
  -1436042.37547  -1105369.19944  22730551.7424   22730551.5594
 -14390968.91848 -11206537.35945  21880122.4064                   21880119.6334
 -14405614.64848 -11218204.73046  21713801.8364                   21713799.9064
 11  8 15 19 42 30.0000000  0  7G17G24G07G08G26G11G28
  -9915082.01647  -7713787.91846  21653577.9144                   21653576.7154
  -9056573.58247  -7045096.16045  21911874.7504                   21911875.2274
  -5469123.37547  -4244665.67246  20970043.8834                   20970042.7074
 -20819361.03148 -16207806.21946  19981475.4614                   19981474.0394
  -1471242.41847  -1132797.85544  22723853.2814   22723853.4494
 -14374932.46147 -11194041.47345  21883173.5234                   21883171.7274
 -14456873.66048 -11258146.84046  21704047.5634                   21704045.0474
